GFSSW_250_spd_000.txt.gz
Wind_Speed
23 21 20 18 16 14 11 9 7 5 8 9 11 13 15 19 23 25 27 29 31 32 32 34 31 24 19 14 2 5 5 11 7 7 4 7 10 11 10 12 19 22 26 28 23
29 26 25 22 20 20 17 15 12 9 8 10 7 9 12 14 17 22 23 26 27 29 30 32 32 31 23 19 4 9 6 7 5 3 3 1 4 6 8 2 5 6 5 7 10
34 33 32 29 26 24 22 21 19 15 12 10 11 7 9 12 13 17 20 21 24 26 28 28 30 32 30 24 18 10 13 11 3 8 6 6 7 12 9 2 5 3 2 3 3
43 41 37 35 34 30 28 27 25 22 18 15 14 12 9 11 11 12 15 18 19 21 23 26 27 30 36 33 23 9 12 15 12 10 7 7 3 5 8 3 5 3 2 1 5
39 40 42 41 40 39 34 32 31 28 25 23 19 17 14 13 11 10 11 15 17 17 20 21 22 25 28 31 27 11 7 13 12 8 7 6 2 3 6 9 14 5 3 4 8
45 45 42 40 41 43 43 39 36 35 30 28 26 23 19 17 15 11 10 12 14 15 15 18 19 21 21 25 23 16 15 14 8 4 6 6 7 6 6 7 7 4 5 6 6
53 50 48 47 44 43 43 42 42 40 37 34 32 28 24 24 18 18 14 13 12 13 12 14 16 17 18 20 24 21 20 13 9 9 12 10 8 4 7 7 8 8 8 6 5
63 60 56 53 48 48 46 45 43 43 41 40 37 35 31 29 27 22 20 18 13 12 11 11 11 14 15 15 18 15 16 19 15 15 15 15 16 13 13 15 14 12 12 12 10
70 68 67 62 57 52 48 48 46 44 43 43 44 42 38 38 31 28 26 25 21 14 12 9 10 9 12 12 11 10 12 13 15 20 22 23 22 20 18 18 19 17 16 17 18
76 75 73 71 69 66 62 58 51 50 48 46 46 47 46 42 36 36 32 31 29 21 18 13 10 9 7 9 10 8 8 8 10 13 15 15 16 15 16 14 14 15 15 14 13
83 82 78 77 76 76 71 66 60 57 55 54 51 49 47 48 44 41 39 36 31 29 24 20 17 13 8 6 8 8 7 2 5 6 8 8 7 7 9 11 11 10 8 11 13
87 88 87 85 83 81 78 75 70 64 63 59 57 54 51 52 48 45 44 42 38 37 28 28 24 20 14 11 8 8 9 8 4 2 2 3 2 4 9 8 8 8 8 11 11
87 90 90 90 87 88 82 79 77 70 68 66 64 61 58 53 54 50 47 46 45 41 36 35 30 27 23 19 14 11 8 8 11 8 6 4 5 6 6 5 5 4 4 5 7
69 83 89 93 91 90 87 89 82 77 73 74 69 70 61 63 57 55 52 49 45 43 43 42 34 32 29 25 21 17 13 11 11 10 8 10 6 6 5 4 10 7 5 6 9
55 59 74 87 91 91 93 90 86 79 77 78 74 72 69 65 66 61 58 54 50 49 44 46 42 39 35 30 26 24 20 16 15 15 11 8 13 11 7 9 11 12 11 13 13
57 57 58 69 82 88 92 95 88 83 82 77 78 77 73 73 69 68 64 59 58 53 46 48 46 42 41 35 32 32 26 24 19 18 20 13 14 12 13 13 14 15 14 17 15
65 57 61 58 65 77 88 93 92 81 86 83 83 82 78 76 74 72 69 64 59 53 46 49 44 44 46 43 40 36 33 32 26 25 24 19 18 18 15 16 16 17 18 20 22
67 63 63 58 44 58 76 84 88 87 90 89 88 83 79 77 77 75 73 68 64 60 57 55 50 46 48 47 47 45 42 35 33 32 29 23 23 24 20 22 21 24 25 24 24
63 64 67 57 50 46 62 76 82 91 97 93 89 84 82 80 80 78 76 73 70 64 60 56 51 52 52 51 49 48 43 43 41 37 33 33 30 27 26 28 30 29 32 32 35
65 65 66 66 60 46 45 55 70 91 99 95 91 86 84 81 80 78 78 75 73 69 66 63 61 62 59 58 53 49 48 45 43 42 40 39 34 33 32 33 35 39 36 31 36
61 66 69 68 63 47 40 43 63 82 99 96 92 89 87 86 83 82 79 79 78 75 72 69 66 65 66 58 56 54 51 49 51 46 43 44 41 39 37 40 39 41 40 37 38
58 58 66 67 63 57 44 42 56 75 91 96 94 89 89 89 86 83 80 76 81 80 75 74 72 72 63 63 61 61 58 53 53 49 47 47 46 44 43 44 42 42 44 46 43
60 63 61 61 61 58 51 49 51 67 81 94 95 91 91 91 89 83 81 78 81 83 76 79 74 76 72 68 65 64 60 57 56 54 51 54 49 51 47 47 46 47 48 49 49
62 65 60 57 61 62 55 53 48 56 76 88 94 98 98 92 90 86 82 80 79 77 77 85 77 78 75 70 70 71 68 63 63 60 63 59 56 52 51 49 49 51 49 50 48
66 65 66 62 62 63 56 54 50 52 71 88 96 102 100 94 93 89 85 83 78 77 79 80 76 77 75 76 77 74 72 71 67 64 67 67 62 56 55 54 51 50 49 53 54
64 64 66 66 65 63 60 56 53 53 70 86 95 99 99 97 96 91 88 83 82 78 78 78 76 74 73 75 77 74 71 71 71 72 70 70 64 62 60 61 59 54 49 57 58
75 75 72 69 69 65 69 62 56 54 59 81 86 98 99 98 96 92 88 85 84 83 81 78 74 75 74 73 73 72 68 71 72 71 73 69 65 68 65 67 63 60 60 62 62

GFSSW_250_spd_003.txt.gz
Wind_Speed
25 23 21 20 17 15 13 12 10 9 11 10 10 10 11 15 19 23 25 27 27 29 31 33 31 19 17 2 17 24 18 10 4 3 6 11 10 7 11 24 21 16 23 29 32
31 28 27 25 22 22 20 18 15 12 11 12 11 10 8 11 14 17 21 23 24 25 28 31 33 22 18 11 5 11 10 5 4 5 4 6 4 5 8 9 11 9 9 10 11
39 36 34 30 28 26 23 22 21 19 15 14 14 12 10 7 11 13 15 19 21 22 25 27 30 28 30 20 8 4 4 10 5 2 2 5 6 5 8 7 4 2 1 1 2
41 41 39 38 35 32 30 28 26 25 23 20 17 15 15 11 8 10 11 14 17 19 22 24 26 29 31 26 24 10 8 2 1 6 3 5 4 4 5 10 5 4 4 4 4
42 42 42 44 41 39 37 35 33 31 29 26 24 21 18 19 13 9 9 11 13 15 17 21 22 23 24 27 26 23 7 4 5 11 6 1 2 2 2 2 3 12 12 11 8
47 45 43 42 42 44 44 41 39 38 33 33 30 26 23 23 20 16 11 11 12 12 12 14 17 18 20 24 27 24 14 5 4 8 10 7 10 9 9 6 6 5 7 4 2
54 53 51 49 46 44 43 43 44 45 43 39 36 34 30 28 25 21 19 11 13 11 12 10 11 15 16 20 20 23 18 10 5 1 4 6 6 5 2 4 8 7 6 8 9
63 61 58 57 55 53 50 47 45 45 46 46 44 41 36 37 31 26 25 20 15 13 13 9 7 8 10 12 14 16 15 16 11 9 10 12 12 14 13 11 13 15 16 16 16
71 69 68 66 64 61 56 52 50 50 50 49 48 46 42 42 34 32 31 28 23 20 17 14 9 6 4 8 10 9 13 9 12 15 17 19 19 19 18 18 17 18 17 17 16
76 75 74 74 74 71 66 62 58 54 55 51 50 48 45 46 42 40 38 34 30 25 24 20 16 11 6 2 6 8 6 6 6 9 11 11 12 15 14 13 15 14 12 10 11
79 80 80 80 79 77 74 71 67 60 58 54 53 51 48 49 44 46 45 41 35 31 30 24 23 17 11 6 2 4 6 5 4 5 4 3 5 6 9 9 7 7 11 11 11
77 82 84 84 85 85 81 76 75 70 70 63 60 57 54 53 51 48 47 47 43 39 38 32 33 23 18 12 9 7 3 4 5 7 5 5 3 2 4 5 3 5 6 8 8
60 64 76 84 88 89 87 85 80 76 75 79 68 71 63 55 58 54 50 49 46 45 41 40 40 26 26 22 18 15 10 6 6 8 9 8 7 5 10 3 5 2 3 5 6
58 53 55 61 74 87 91 90 86 82 79 86 76 79 69 67 64 61 57 54 52 48 45 44 43 32 33 29 25 22 18 14 11 8 11 10 9 9 6 9 8 9 5 9 12
61 57 54 58 55 66 81 90 90 89 84 87 85 80 77 72 77 67 66 60 55 54 48 44 45 37 39 39 32 30 23 20 18 15 10 13 12 14 10 11 13 13 13 12 13
62 59 64 63 58 51 62 74 85 89 92 93 91 86 81 79 79 77 71 67 64 60 54 54 49 42 40 44 36 34 27 26 22 22 20 15 18 14 14 17 16 15 15 18 16
62 60 62 62 56 51 49 57 67 80 94 97 96 90 86 85 82 80 77 72 67 62 56 56 52 44 45 45 39 39 35 32 29 26 29 19 23 19 18 20 20 20 20 18 18
64 62 62 64 54 57 51 47 50 67 87 93 96 95 91 90 88 85 84 79 75 69 65 62 59 48 46 47 45 48 43 39 38 35 34 24 24 28 25 24 27 27 28 28 28
65 63 63 63 62 57 53 42 46 62 73 85 90 95 96 96 92 89 85 82 80 75 69 66 61 59 54 54 55 52 46 47 42 38 36 31 31 34 32 31 33 35 36 34 35
65 63 64 61 52 54 51 46 52 60 58 79 84 92 97 98 97 91 87 83 81 79 77 70 69 67 62 62 57 55 54 48 43 38 36 36 37 38 38 36 38 40 42 39 40
64 67 67 57 57 55 44 45 55 57 52 68 79 83 96 99 97 95 87 86 83 81 79 75 71 72 71 65 61 60 56 51 49 43 39 39 37 41 40 39 40 41 43 43 42
62 63 64 60 58 50 52 49 56 54 44 58 72 79 92 102 102 96 90 88 85 83 78 73 74 80 70 68 67 64 61 59 56 50 49 46 42 40 40 43 43 43 43 46 44
63 69 66 61 59 61 55 54 54 55 47 53 64 79 89 98 100 97 93 93 91 88 79 76 76 79 77 77 71 65 62 62 58 58 54 49 44 49 47 45 45 45 46 49 48
65 65 66 67 64 63 60 59 54 58 51 48 59 75 84 90 94 96 91 92 90 86 81 84 80 80 78 71 71 71 67 67 64 62 58 53 53 53 51 48 47 48 44 48 52
78 76 72 68 71 69 63 59 62 59 51 49 54 67 75 84 91 97 93 94 90 88 88 84 80 78 76 77 79 78 77 74 70 66 65 61 60 58 56 53 53 51 50 49 54
85 82 85 76 71 69 65 63 63 63 57 54 49 57 70 81 91 93 93 93 89 90 90 84 79 78 77 79 83 81 78 76 74 70 70 65 61 61 58 57 57 57 56 56 59
88 86 84 85 79 75 71 67 67 66 64 60 51 54 65 78 85 87 93 92 85 87 89 83 79 78 74 77 81 84 77 75 74 75 71 67 64 68 65 61 61 63 62 61 63

GFSSW_250_spd_006.txt.gz
Wind_Speed
24 23 22 21 19 18 17 13 11 10 10 12 10 10 12 13 16 19 23 25 26 27 29 31 31 32 16 2 12 12 15 17 18 17 15 15 12 13 17 19 17 20 17 18 21
32 31 29 27 26 23 22 22 19 14 14 13 12 10 9 11 12 14 16 21 22 24 24 27 30 32 30 20 8 16 11 19 16 9 5 6 8 9 7 7 12 19 20 16 17
39 37 36 33 31 31 28 25 25 22 19 17 15 14 12 11 11 11 11 14 18 20 21 22 24 29 32 27 12 7 11 10 9 7 5 2 7 8 6 8 7 3 3 2 3
39 40 41 41 39 36 33 31 28 27 24 23 21 19 18 15 15 12 10 9 12 16 17 19 21 23 27 28 21 7 8 11 9 9 4 3 4 5 8 8 9 8 8 6 6
42 41 41 42 42 42 40 38 35 33 32 29 27 24 22 22 20 15 13 9 9 11 14 17 18 21 25 27 28 18 9 8 8 4 3 6 2 0 1 2 1 5 8 8 10
51 49 46 45 44 43 42 43 41 40 38 36 34 32 27 26 23 20 17 14 11 8 11 13 16 18 20 25 25 23 18 14 6 2 8 9 9 7 6 6 10 4 5 4 2
58 57 55 51 50 46 44 44 44 45 45 42 39 39 37 29 30 25 21 19 15 12 8 11 12 13 15 16 20 21 19 19 14 10 8 3 5 7 5 3 8 11 10 8 9
62 63 62 60 56 53 51 49 46 47 45 46 45 43 44 41 37 30 26 23 22 17 13 9 11 12 11 12 14 17 15 20 19 15 13 12 12 12 11 12 15 17 20 19 16
68 67 66 67 67 62 57 57 55 53 51 49 48 46 43 46 42 39 32 30 24 23 20 13 11 14 9 8 9 11 12 14 16 16 16 13 14 15 17 18 18 17 14 13 14
72 73 74 72 72 69 67 65 62 61 60 56 55 53 49 46 43 46 41 36 30 26 24 22 17 15 16 9 3 3 6 6 7 7 9 7 8 8 10 12 10 10 10 11 13
72 75 77 77 79 77 74 72 72 70 67 65 60 58 57 52 49 48 46 41 39 31 30 29 26 21 17 13 7 3 1 3 2 4 2 3 5 6 4 6 6 10 12 12 14
56 63 70 77 81 81 80 80 79 75 76 75 70 65 61 56 55 53 49 45 41 41 36 34 38 27 19 21 15 11 8 6 5 3 3 0 2 2 2 3 5 6 6 7 8
54 55 60 61 68 78 83 83 83 82 80 87 77 75 73 59 64 59 53 50 45 44 42 45 46 34 27 24 25 20 16 13 9 10 6 4 2 2 5 3 3 2 2 1 3
57 57 60 59 58 62 69 80 84 85 84 94 84 80 79 69 69 68 59 56 52 50 46 48 48 37 35 32 31 30 24 18 18 13 9 9 6 4 5 5 7 6 9 9 11
60 61 62 62 62 55 54 60 75 79 85 95 92 85 82 76 80 74 70 62 58 57 52 48 51 43 39 40 40 40 30 22 21 20 17 14 11 8 8 11 11 11 10 15 15
57 58 64 66 66 63 61 57 50 68 74 90 95 93 88 85 85 85 79 72 69 64 57 57 59 48 45 45 42 42 35 27 24 26 26 21 18 15 11 13 14 15 14 15 17
61 59 60 66 67 67 66 65 53 46 60 81 86 93 94 90 90 89 86 83 76 70 64 62 62 55 49 47 46 41 33 31 30 24 34 26 24 23 18 18 19 19 18 17 18
64 63 63 61 64 67 69 70 64 60 54 70 78 83 94 94 94 93 89 87 84 77 74 70 66 61 53 48 49 48 42 37 36 36 38 30 31 27 26 27 28 27 26 25 26
64 66 69 65 67 70 69 68 66 65 64 61 71 80 85 95 98 97 93 90 86 83 79 75 71 69 64 61 58 51 47 45 42 42 41 36 36 31 32 33 34 33 34 32 34
68 70 70 69 69 69 71 67 64 69 68 61 59 74 81 87 96 101 97 93 90 88 85 82 80 77 74 70 63 56 55 53 46 43 40 40 38 40 35 37 36 39 36 38 39
71 74 72 70 72 71 66 66 65 71 71 62 52 62 80 86 90 97 97 96 93 90 89 85 83 84 82 72 67 64 61 56 52 48 42 42 39 42 43 42 39 42 41 41 42
77 75 75 75 72 71 66 68 67 68 65 60 54 50 72 86 86 92 96 97 97 96 93 89 88 87 81 78 77 74 67 64 62 52 49 46 42 48 46 47 45 44 43 45 45
80 79 76 76 72 70 72 65 67 64 65 60 55 49 65 80 86 87 93 99 104 102 98 94 89 85 87 85 77 71 66 65 65 61 54 50 45 50 47 46 45 47 48 46 46
88 87 84 84 76 77 70 69 70 67 67 66 62 58 53 71 80 85 89 100 106 106 96 97 91 86 84 75 74 71 68 67 68 64 56 52 53 55 54 53 50 51 50 48 51
90 86 89 86 83 77 76 67 72 71 69 70 66 63 58 48 71 76 83 94 103 103 99 98 92 87 82 84 82 76 75 74 73 66 68 60 59 57 57 56 52 52 53 51 54
97 95 96 93 92 88 82 78 73 74 73 70 68 70 62 45 53 63 80 90 100 103 100 99 90 89 84 87 86 83 78 78 77 74 70 66 62 62 60 58 56 57 56 57 59
95 95 95 97 96 94 91 87 80 79 73 76 76 73 65 54 51 63 77 83 93 98 100 96 91 91 86 85 86 89 81 80 78 77 73 68 65 67 64 61 62 62 61 62 65

GFSSW_250_spd_009.txt.gz
Wind_Speed
25 24 22 21 20 19 18 16 13 11 11 12 10 10 11 11 16 19 22 24 25 25 26 29 31 29 19 5 9 7 8 13 15 16 16 14 16 19 16 15 16 16 16 14 14
31 30 29 28 26 25 23 22 20 18 17 14 12 11 10 9 10 13 16 19 21 22 24 25 28 31 28 11 4 9 10 9 11 13 14 13 9 9 9 9 4 5 8 13 17
35 36 35 34 33 31 31 29 27 25 21 20 17 14 14 12 7 8 11 14 17 19 20 23 26 29 30 20 5 10 10 10 15 12 11 6 2 2 1 2 1 2 7 8 4
36 36 36 36 38 38 36 34 32 31 29 23 22 20 18 16 13 10 7 10 12 15 17 19 20 22 27 27 16 9 12 10 8 10 12 12 7 6 8 7 8 5 2 3 4
41 39 38 37 37 37 37 39 40 38 35 32 29 27 24 21 20 15 12 9 9 12 14 14 17 18 21 25 26 16 11 9 10 8 9 11 4 3 4 2 5 9 8 7 6
50 49 47 46 44 42 40 40 40 40 40 39 37 35 32 25 27 23 17 13 11 9 11 12 12 15 17 19 23 22 11 7 6 4 5 8 8 6 4 7 10 11 5 3 3
57 56 55 54 53 48 48 47 44 43 41 42 42 39 38 32 33 27 22 19 16 14 11 11 9 11 12 13 16 20 19 14 13 11 7 6 9 8 11 10 7 8 10 11 9
62 62 63 62 61 59 55 54 51 48 46 44 44 45 43 41 38 33 31 25 22 18 16 14 11 8 11 11 9 14 17 17 18 17 14 15 12 9 7 8 11 15 17 19 20
65 67 66 66 66 62 59 61 58 55 53 51 49 48 44 42 40 40 36 32 29 25 20 19 17 9 8 9 8 6 11 11 12 17 18 18 15 15 16 18 16 14 16 17 16
66 69 70 72 72 69 67 67 65 62 61 58 56 53 51 48 45 40 38 37 33 30 26 24 22 18 11 10 8 4 3 6 4 8 12 11 11 14 13 10 10 11 13 14 17
49 55 63 63 69 74 73 72 72 70 66 66 63 61 58 55 53 47 43 40 37 33 34 31 29 27 18 15 10 9 4 3 1 4 8 7 7 7 6 6 11 16 15 16 14
46 49 51 52 57 60 69 72 77 75 77 74 68 70 64 62 64 59 51 45 42 40 39 36 38 35 26 22 17 14 11 7 5 2 0 3 3 4 6 9 11 9 7 6 7
46 46 46 47 52 53 55 60 68 73 78 81 77 74 72 68 71 67 61 54 49 46 43 39 47 39 33 31 25 21 19 14 11 10 9 7 6 6 8 10 10 8 3 2 1
46 48 52 49 47 45 52 55 53 59 68 79 83 79 80 77 77 76 69 62 56 52 51 46 50 42 37 37 36 33 28 21 18 16 12 13 13 10 9 14 12 10 8 7 7
49 52 55 56 57 53 47 50 55 54 55 64 71 83 85 83 83 81 77 72 64 60 56 53 55 47 41 44 45 44 36 29 25 22 20 18 16 13 15 14 12 10 11 11 9
50 48 56 58 60 59 58 58 50 52 52 59 55 68 79 86 87 86 84 82 76 69 62 61 63 54 48 48 46 49 38 33 31 27 24 27 23 21 19 20 15 14 14 16 15
64 61 59 60 58 62 61 62 61 56 56 57 58 60 70 80 83 91 88 87 83 78 68 67 66 62 57 53 49 46 45 35 32 31 30 29 30 26 23 23 21 19 19 18 18
73 70 67 66 63 60 65 66 62 59 60 57 56 54 58 69 78 83 91 90 88 82 77 74 73 69 63 59 55 51 50 44 38 35 38 37 36 28 29 28 29 27 23 23 24
77 77 77 74 67 69 67 64 61 62 65 67 67 56 49 60 69 77 82 92 93 89 85 81 78 77 73 68 65 58 53 49 46 39 40 40 40 32 32 35 33 32 31 29 30
80 82 81 81 73 72 69 65 65 68 69 71 71 61 49 50 54 63 76 84 96 96 92 88 86 83 81 78 71 66 62 59 50 44 42 44 45 42 37 38 38 37 36 34 35
85 86 87 85 78 78 73 70 70 71 74 73 71 69 60 50 52 51 67 81 90 100 99 96 93 89 87 83 76 71 69 64 55 49 46 46 46 50 45 44 41 43 41 40 40
87 86 88 87 79 77 72 71 73 73 76 76 73 70 67 59 45 46 58 80 89 97 104 101 99 96 88 83 85 80 76 70 64 54 52 52 51 57 54 46 45 45 45 46 45
89 89 89 89 86 81 73 75 75 74 79 75 77 72 70 64 50 48 56 78 88 93 103 106 102 98 96 93 88 82 75 71 68 64 57 54 51 57 57 53 49 49 47 50 49
93 93 92 89 90 87 83 80 78 78 79 78 75 73 73 70 59 51 54 70 86 91 96 105 105 101 97 90 85 85 80 75 71 68 62 53 53 62 59 56 54 53 52 53 52
96 99 101 97 95 92 86 86 84 83 81 81 76 74 75 70 66 53 54 66 79 90 95 96 103 104 98 94 94 89 85 81 75 66 64 57 60 64 62 60 59 57 55 55 55
104 107 107 105 104 100 94 93 92 88 83 85 81 79 77 70 69 60 64 63 73 85 93 91 96 104 101 99 99 94 90 88 82 75 71 67 62 64 66 63 60 57 55 57 60
91 91 99 108 111 111 104 98 98 94 86 86 82 78 76 71 73 68 63 67 65 79 86 87 90 99 100 103 102 105 97 93 86 80 74 71 65 71 68 65 63 62 60 60 62

GFSSW_250_spd_012.txt.gz
Wind_Speed
24 23 22 21 22 21 19 18 17 15 14 10 11 10 9 11 13 14 17 19 22 23 24 24 27 22 7 9 11 12 17 17 19 21 22 20 17 16 18 19 16 13 15 17 17
31 31 30 29 27 27 26 24 22 21 20 19 14 12 11 9 11 13 14 15 17 20 22 23 24 26 20 4 11 14 16 15 11 12 11 11 12 16 15 13 10 3 2 4 5
34 35 35 35 34 33 33 31 29 27 25 24 22 17 15 13 10 13 13 13 13 15 18 21 22 23 25 15 6 14 13 12 8 8 9 12 13 9 4 4 5 6 6 3 2
37 37 35 34 34 33 34 34 35 34 31 29 27 25 19 17 15 13 15 14 12 10 12 16 20 22 23 20 9 11 11 8 8 9 11 11 11 7 5 5 9 7 3 1 1
43 42 40 38 37 36 36 35 33 32 33 35 33 31 27 22 22 17 15 17 16 12 8 11 15 18 19 23 13 5 8 9 12 14 13 14 13 12 8 6 1 4 9 7 4
50 50 48 47 46 44 42 39 37 36 35 35 35 35 33 27 32 23 20 18 17 17 11 5 9 12 15 15 18 9 2 3 10 12 14 13 12 9 5 2 4 9 12 5 5
55 55 54 53 52 51 51 49 46 43 42 40 40 38 34 34 32 29 28 23 20 19 18 10 4 6 9 11 12 16 10 6 5 8 15 15 13 8 4 6 6 4 4 9 10
58 58 59 59 58 57 58 57 52 50 49 48 45 44 39 36 35 35 35 30 26 23 23 19 10 6 4 5 7 10 12 12 9 9 8 11 11 9 6 6 1 5 11 16 18
58 60 61 63 62 61 62 63 63 59 57 56 53 50 46 42 40 37 39 39 33 28 27 25 20 13 9 5 2 3 5 9 13 12 12 14 14 14 13 14 15 16 20 17 16
45 48 51 57 61 65 66 66 66 64 61 59 56 55 53 51 48 43 41 38 37 35 31 30 28 21 15 11 7 2 3 4 5 5 9 13 19 22 19 15 14 13 12 17 19
41 44 45 48 50 53 54 62 68 69 70 66 64 62 57 58 56 53 47 43 39 36 34 36 33 33 22 17 14 9 7 7 6 3 5 8 14 17 14 13 13 15 16 15 16
46 44 39 42 39 43 49 54 57 62 70 71 69 70 65 63 64 59 56 50 46 43 38 36 41 40 31 24 22 17 14 11 10 9 8 9 10 10 9 11 17 14 11 8 8
38 43 45 44 45 44 40 39 45 53 59 66 69 71 72 69 69 67 62 59 55 50 45 43 45 45 37 32 30 27 22 18 14 13 14 12 12 11 11 12 15 13 9 8 6
48 49 49 49 43 44 44 44 41 38 46 60 59 63 71 74 74 72 70 68 63 59 55 51 50 48 42 38 37 34 32 25 20 20 17 16 14 13 13 18 18 17 14 11 11
54 54 54 50 50 48 48 46 49 50 40 43 51 57 61 68 74 76 77 74 72 68 62 58 56 54 47 45 43 45 40 33 28 27 19 21 19 16 17 17 22 20 19 18 16
55 57 59 62 64 58 54 54 52 50 51 50 48 48 55 62 68 75 79 79 78 75 70 67 62 61 54 53 50 50 42 38 33 32 25 27 25 21 23 18 21 23 24 24 21
64 65 66 69 67 65 65 61 59 53 47 57 57 52 50 54 64 69 77 84 83 81 77 77 69 68 61 56 58 56 45 39 34 33 30 34 31 29 27 24 23 23 24 24 23
71 70 72 74 77 75 71 71 66 59 60 60 57 60 57 49 50 60 70 78 86 87 84 82 76 74 69 62 62 61 54 46 43 39 38 42 36 38 33 29 30 29 27 27 26
82 81 82 82 85 83 81 75 70 70 67 66 66 63 61 57 54 50 61 71 79 87 90 87 83 85 79 75 70 66 63 53 51 47 45 44 45 44 35 35 39 37 34 32 31
90 95 95 96 94 92 88 78 77 75 74 76 69 69 64 62 60 55 50 60 70 80 88 92 90 88 87 85 79 71 69 66 56 51 45 47 46 48 42 41 42 39 38 38 35
98 101 104 107 107 104 96 88 88 83 82 81 77 73 66 70 64 62 56 54 60 76 82 90 95 94 94 90 84 79 75 71 63 57 51 49 49 55 45 46 47 46 42 41 41
109 112 113 115 112 112 107 101 97 91 90 87 84 79 76 72 72 69 64 62 56 68 81 84 92 98 94 93 93 90 85 82 74 60 55 52 54 61 51 47 49 50 48 48 46
115 114 110 113 115 115 110 109 105 103 91 89 87 83 82 75 74 72 70 66 63 62 76 83 82 93 99 99 99 94 88 82 77 70 62 57 56 59 64 55 53 53 50 49 47
125 120 115 110 112 114 113 104 110 112 96 88 85 85 83 78 74 74 75 72 69 66 68 79 81 84 93 98 99 99 93 89 86 78 69 59 62 62 65 66 63 57 53 52 51
126 127 116 122 123 118 118 109 105 108 102 89 89 85 84 81 77 75 77 77 73 70 65 69 78 80 90 96 102 102 98 96 93 84 77 68 63 65 66 75 71 64 57 54 53
127 126 127 126 126 123 121 116 109 110 107 91 90 88 88 83 79 79 81 78 77 73 69 60 69 76 84 91 101 106 103 100 97 93 86 79 69 70 72 76 73 66 63 60 59
96 94 97 96 103 115 120 121 117 114 108 102 99 89 85 87 83 80 79 78 79 72 68 60 61 72 75 89 96 105 103 100 96 95 92 84 73 78 79 79 76 72 67 66 65

GFSSW_250_spd_015.txt.gz
Wind_Speed
23 24 23 23 22 21 20 20 17 16 15 14 14 14 13 12 13 13 13 16 18 18 20 21 21 18 8 12 20 17 19 22 21 24 27 24 19 17 18 19 19 16 20 20 19
31 30 30 30 29 28 27 26 24 23 21 19 18 16 17 15 14 14 12 11 13 15 16 19 20 20 17 5 15 18 5 22 21 22 21 20 18 16 16 16 15 13 10 9 7
35 35 35 35 35 34 33 31 32 30 27 24 22 22 20 19 16 15 16 13 11 12 15 15 20 21 20 15 1 17 24 16 16 14 10 13 12 10 11 12 8 9 8 7 5
39 38 37 37 36 36 36 34 32 33 31 29 27 25 23 23 21 18 18 18 14 10 11 13 15 18 19 18 9 10 11 8 11 10 12 14 12 13 12 8 8 7 4 3 4
42 41 40 39 40 39 38 37 36 34 34 31 27 24 25 25 31 20 21 22 19 14 9 11 12 13 14 16 15 3 5 7 11 13 14 14 13 14 12 13 11 4 2 5 6
46 47 49 48 46 46 46 43 41 37 35 35 34 29 25 26 32 27 26 26 24 20 16 10 10 9 11 12 14 9 2 10 13 15 16 17 16 14 12 13 8 4 3 4 7
48 48 49 51 51 51 50 49 47 48 45 41 40 36 33 30 31 32 32 28 28 26 21 16 11 9 7 8 8 10 7 1 8 15 17 16 15 15 11 6 3 5 6 4 9
53 53 53 54 53 54 55 56 54 51 50 50 47 46 41 39 35 34 33 33 30 29 27 22 17 11 10 6 5 6 8 9 4 2 12 19 15 13 8 9 10 8 7 10 14
47 49 51 53 54 57 59 59 58 56 54 54 53 50 48 45 44 41 37 36 33 34 32 30 24 18 13 10 6 1 3 7 11 8 5 8 15 11 12 16 16 14 16 20 20
40 40 43 45 44 45 48 50 55 60 62 60 58 56 56 54 51 47 45 41 39 35 36 37 34 25 20 16 12 7 4 4 4 6 7 9 14 19 17 17 21 21 17 14 15
33 32 32 33 35 34 35 39 47 50 53 57 62 62 60 58 56 52 51 49 45 41 37 40 40 35 27 21 18 15 10 8 6 5 6 9 15 13 13 16 18 17 20 16 13
35 34 34 36 33 35 36 36 35 37 42 48 52 56 63 64 62 59 54 55 53 49 43 40 41 46 33 28 25 21 17 15 11 9 9 8 12 9 9 15 18 21 19 17 15
39 40 40 40 42 42 40 39 40 38 37 41 43 50 55 58 67 65 62 60 59 56 52 46 48 52 39 32 31 30 26 22 18 14 13 14 14 14 12 16 19 19 18 15 13
45 47 49 43 43 43 48 48 45 41 41 46 37 38 45 54 58 64 68 66 64 63 60 54 52 53 49 38 36 36 34 30 26 20 19 19 17 16 15 17 20 19 16 12 12
54 52 55 49 47 46 47 48 49 49 48 46 45 47 41 47 52 57 63 69 69 70 65 63 60 58 54 48 45 42 45 38 33 28 28 20 20 22 22 21 22 22 21 19 14
58 60 61 58 56 54 55 57 55 53 50 52 47 51 53 48 46 51 58 62 70 71 72 71 67 62 60 59 54 52 48 44 39 36 32 26 25 25 25 24 24 26 26 23 21
65 67 67 68 69 65 65 65 61 57 57 59 59 57 60 57 58 47 52 60 64 68 73 78 74 70 67 65 64 59 54 47 42 36 36 34 33 31 30 26 26 27 30 28 26
73 72 73 74 75 74 72 72 70 65 65 67 66 68 62 65 62 61 54 50 59 65 68 75 78 78 75 69 69 67 64 52 49 45 45 43 37 39 38 33 29 30 29 28 28
75 77 81 80 85 85 81 75 70 75 77 75 75 72 71 72 68 69 65 59 51 59 67 70 75 83 81 78 77 68 72 57 58 54 50 46 47 50 44 35 34 36 34 32 30
82 83 82 84 88 91 90 80 83 85 84 86 84 82 79 77 77 75 73 70 64 57 60 70 76 79 86 87 81 77 71 74 62 57 52 53 52 50 49 41 40 41 40 38 37
89 89 88 93 95 97 94 89 93 94 94 91 90 89 89 88 83 80 78 74 75 65 59 63 73 78 84 84 84 84 77 80 73 68 60 57 53 55 55 46 44 47 46 45 43
99 99 101 102 103 104 104 102 102 100 101 97 95 94 96 96 93 87 80 82 79 77 70 63 65 75 78 86 91 91 87 88 84 74 65 62 57 62 64 54 49 52 52 50 48
113 110 115 111 112 115 113 113 111 110 109 111 103 100 97 96 95 90 89 89 86 77 78 72 63 70 75 81 88 92 89 87 85 81 75 70 60 66 66 64 52 50 54 54 49
120 121 127 126 125 128 129 127 125 122 120 119 112 111 112 103 97 92 91 93 93 83 78 78 72 62 70 73 82 93 98 96 94 89 82 74 74 72 68 70 61 59 58 59 56
140 138 142 142 142 142 143 139 138 133 130 126 123 117 108 103 97 95 91 94 94 87 85 84 73 70 62 71 78 81 93 100 99 92 92 83 83 77 72 69 73 66 61 64 61
143 142 141 142 146 149 148 144 147 144 142 137 132 124 114 102 93 92 92 97 95 92 87 85 79 75 66 64 70 78 83 96 102 99 96 93 86 82 81 78 73 75 71 69 64
133 131 131 135 137 134 135 141 138 137 134 132 136 132 124 117 112 104 101 92 93 93 85 81 79 74 67 63 67 79 72 78 95 101 99 97 85 92 87 79 72 78 80 77 71

GFSSW_250_spd_021.txt.gz
Wind_Speed
23 21 21 20 20 20 21 22 22 22 20 19 20 19 19 19 18 15 13 14 16 14 15 17 16 12 12 29 35 23 30 27 28 27 26 31 28 29 28 26 24 24 22 23 23
28 28 28 27 27 27 27 27 26 25 25 23 21 21 20 21 19 18 15 12 13 13 12 13 14 12 7 18 36 39 29 22 27 24 22 29 29 32 29 28 21 24 20 21 24
34 33 33 33 32 31 31 30 29 28 27 25 23 22 23 22 20 18 16 14 11 11 11 10 9 11 10 4 15 37 41 36 32 27 23 27 29 27 22 22 18 15 16 16 13
37 37 36 36 35 34 34 35 34 31 30 28 25 24 23 25 20 22 15 16 15 13 12 9 9 8 9 11 6 7 26 31 24 21 21 19 20 18 16 15 13 10 6 8 6
42 42 42 41 39 38 38 38 37 37 35 32 29 27 27 26 28 19 21 17 17 16 17 14 9 9 8 10 10 7 7 14 20 20 19 15 16 15 14 11 8 5 8 9 7
46 46 47 47 46 45 45 44 43 42 41 40 38 36 33 31 31 25 24 22 19 19 19 19 14 9 9 7 10 9 7 7 8 15 17 14 13 8 10 9 7 9 14 14 14
47 46 47 47 47 46 46 45 44 42 44 46 46 45 42 38 36 34 30 27 24 21 20 20 20 12 10 9 7 9 9 8 7 8 8 7 4 8 8 8 9 15 19 20 21
49 49 50 50 50 49 48 48 47 46 45 44 45 45 46 44 44 41 40 37 32 28 25 22 21 21 14 11 9 8 8 6 7 7 2 9 18 6 12 10 10 14 18 22 14
44 42 42 41 41 40 38 36 37 38 40 42 45 47 47 48 46 46 44 45 41 37 31 28 25 23 22 17 13 13 10 6 6 6 2 7 9 11 10 12 14 11 16 13 15
34 35 35 35 34 32 32 32 31 31 31 33 33 38 44 48 50 49 48 48 47 45 40 36 33 26 27 27 15 18 15 10 6 5 6 10 8 4 12 12 12 11 15 13 18
34 33 35 34 32 35 32 30 32 30 26 25 25 26 32 36 42 45 46 50 49 48 45 41 35 35 34 28 23 24 20 18 13 8 6 12 13 4 6 8 13 16 15 18 16
38 39 38 37 40 38 36 37 37 31 31 27 25 23 21 26 29 32 38 41 50 51 48 45 43 43 40 33 29 28 26 24 19 14 11 14 10 6 9 12 13 16 15 12 13
40 39 39 38 40 40 37 39 40 34 31 37 26 29 26 29 25 24 23 30 38 47 52 50 52 46 43 39 34 32 33 29 25 21 14 16 17 13 11 10 12 12 14 14 16
46 45 46 45 43 45 41 46 39 39 28 43 33 35 36 35 36 23 27 22 23 34 43 50 53 52 48 44 43 35 40 37 31 27 24 19 20 17 15 12 14 14 17 17 16
49 50 53 48 48 46 43 50 47 42 27 41 41 43 46 42 41 37 30 30 26 20 22 44 51 55 54 50 48 49 42 43 39 32 30 22 22 25 22 18 17 21 19 18 14
52 52 56 55 58 50 52 54 50 46 35 46 43 46 51 54 52 46 39 38 34 27 23 29 34 49 58 57 52 56 50 46 45 37 30 30 25 23 22 25 23 24 23 23 20
62 61 60 65 64 64 61 60 59 49 50 54 59 52 52 54 57 52 49 43 42 38 33 34 26 28 44 59 60 59 56 53 48 41 33 36 30 30 27 27 25 25 26 30 27
70 70 71 69 72 70 71 69 65 59 60 66 67 59 54 57 58 60 56 49 50 46 47 38 34 34 32 34 59 61 62 57 54 49 48 48 37 38 37 34 32 30 30 32 32
76 76 78 79 80 79 77 74 71 70 70 71 74 68 60 60 64 67 61 57 57 55 50 49 42 44 33 31 40 54 58 64 66 62 56 47 45 45 46 38 38 35 35 35 33
81 82 88 84 85 87 86 80 81 82 79 81 77 77 74 72 69 67 69 63 61 61 60 56 52 52 43 39 29 33 45 65 64 63 59 54 52 45 50 46 43 44 42 39 34
89 87 97 94 92 90 87 90 90 89 90 88 85 79 78 78 78 74 66 67 69 67 67 65 59 58 54 46 44 41 36 43 65 69 65 62 53 56 57 55 51 51 51 46 40
97 97 107 108 104 102 98 98 100 98 100 99 96 92 87 84 84 82 72 68 72 75 71 70 69 63 56 58 50 47 39 43 52 53 69 72 57 65 64 66 60 57 56 54 49
109 107 113 117 113 115 111 107 109 106 106 107 106 105 102 97 96 91 86 74 77 81 75 76 71 71 63 57 53 52 48 49 43 46 62 72 60 71 74 71 63 60 59 60 57
119 118 122 127 123 122 123 117 118 116 115 116 112 114 111 107 108 99 97 91 88 83 82 86 79 73 69 70 75 62 59 55 54 43 44 51 62 69 79 76 71 68 69 63 66
130 128 131 132 135 134 133 129 129 129 130 126 122 121 121 117 116 109 110 102 97 92 93 93 87 79 74 77 81 72 68 61 49 46 46 44 52 58 77 81 79 77 73 74 71
137 137 140 140 143 145 143 144 140 137 135 134 134 130 131 128 125 123 118 110 106 103 99 99 93 88 83 79 82 79 74 65 60 57 49 50 50 42 57 80 86 84 82 78 76
120 120 119 126 131 135 141 138 134 129 130 135 146 138 142 141 134 126 123 120 111 109 110 107 101 97 85 85 85 90 66 71 68 61 56 44 44 57 51 64 80 87 87 84 81

GFSSW_250_spd_024.txt.gz
Wind_Speed
22 22 22 21 20 19 18 18 18 17 19 20 19 18 18 14 17 20 20 13 11 11 11 13 14 4 20 27 33 33 32 37 36 38 33 30 27 26 27 23 26 27 25 23 23
26 26 26 26 26 25 24 23 23 22 20 20 20 20 18 17 15 16 19 18 10 7 7 8 10 8 6 19 27 31 34 38 39 35 30 19 19 26 29 29 29 29 19 20 22
31 31 30 30 30 30 30 30 28 27 25 23 23 22 22 18 14 14 16 18 17 8 4 4 4 5 4 2 15 36 38 41 42 41 43 40 38 33 28 23 24 21 16 16 18
36 35 35 35 34 35 34 35 34 32 31 28 27 26 26 23 15 20 16 18 20 18 7 6 5 4 6 4 3 7 18 39 48 45 45 42 20 19 19 16 15 13 12 8 11
39 39 39 39 39 38 37 37 36 36 36 34 32 30 31 29 23 23 23 21 21 21 18 9 8 7 9 7 7 6 6 8 16 22 26 22 20 16 15 14 12 15 12 5 5
43 43 43 42 42 42 42 42 41 41 41 40 40 36 34 35 33 30 28 25 24 23 23 18 13 10 10 10 7 8 9 8 8 12 13 15 12 16 14 9 10 11 9 5 7
46 46 46 46 45 45 44 43 42 42 42 43 41 40 43 42 40 37 35 32 29 26 24 22 18 15 13 12 12 9 7 5 7 9 9 9 10 13 6 8 10 9 10 10 11
51 51 50 49 49 48 47 45 45 45 45 46 45 42 43 42 44 44 42 40 37 33 30 26 24 19 17 16 15 14 10 7 8 10 11 7 14 11 10 12 10 10 15 9 12
54 52 52 51 48 46 43 40 38 36 35 35 37 37 40 40 44 44 44 45 43 43 38 34 29 27 23 22 19 14 15 10 5 6 6 7 15 15 12 12 12 10 12 7 9
52 47 44 40 38 37 34 32 31 29 27 26 25 28 27 31 36 40 43 47 46 46 44 42 38 34 29 29 20 18 19 16 12 7 2 9 6 16 15 12 16 9 9 12 13
42 40 39 39 38 35 31 29 29 28 28 26 25 22 23 27 27 31 34 38 46 50 48 45 43 42 39 36 26 24 24 21 15 14 8 7 11 2 10 12 7 6 8 15 18
42 43 43 40 41 40 36 37 35 28 31 30 29 26 23 24 22 20 26 29 36 44 51 49 49 48 43 40 33 30 28 27 21 18 13 6 9 2 4 4 7 8 13 16 14
46 45 45 45 43 42 39 40 38 33 33 37 27 33 23 27 27 23 15 23 27 33 41 51 53 48 46 44 41 35 36 31 28 21 16 14 12 9 7 7 10 12 13 13 12
51 51 53 53 49 47 42 44 39 38 32 41 30 34 34 30 34 32 26 20 17 19 27 44 50 52 50 48 46 42 45 37 30 26 23 16 15 12 13 10 11 13 12 12 16
58 56 56 57 57 54 52 53 47 42 33 42 38 38 39 39 43 38 31 29 25 16 17 27 41 50 53 54 50 56 46 42 37 30 28 21 17 16 16 17 15 12 15 17 17
62 61 60 61 61 56 56 56 54 50 39 42 44 44 46 44 43 40 38 35 33 28 27 30 21 30 51 55 55 62 52 49 44 38 27 28 22 18 20 21 17 18 19 20 21
73 72 70 69 65 65 60 59 59 52 50 53 51 50 49 47 48 45 41 37 37 33 36 37 30 23 30 44 55 62 60 54 50 43 35 42 33 32 26 24 26 24 24 26 26
79 78 79 78 75 70 72 70 63 60 63 63 60 56 57 59 55 53 47 40 41 39 44 38 37 40 40 32 41 54 62 60 56 51 49 48 34 41 38 32 33 29 29 28 31
82 84 87 84 82 80 80 76 73 73 71 71 70 70 67 68 65 61 53 50 48 47 45 45 42 49 39 39 32 38 46 63 62 58 54 48 44 46 42 40 36 34 31 31 35
87 85 92 90 89 88 87 81 81 82 81 77 78 77 74 72 68 64 63 54 55 56 55 51 49 51 44 43 32 32 37 43 56 62 60 56 55 47 50 48 46 42 40 42 42
93 91 98 97 96 95 93 92 92 92 90 88 86 84 82 82 76 71 66 67 67 62 64 60 56 58 49 35 43 41 41 33 38 50 61 62 50 57 58 56 52 51 48 48 44
102 102 109 104 104 102 99 99 100 99 102 97 93 90 88 88 82 77 70 70 71 71 70 68 65 60 52 49 43 36 34 35 33 28 34 56 61 68 67 63 59 54 53 55 48
104 107 112 113 114 110 108 107 104 105 107 108 102 96 92 90 87 84 78 79 80 79 74 75 69 65 60 54 46 46 48 45 37 34 30 34 49 71 71 70 64 63 60 57 55
108 110 114 117 117 116 115 114 114 114 113 112 110 106 101 99 98 94 89 87 87 88 84 83 78 72 65 58 63 57 55 51 42 27 30 27 34 50 72 74 72 70 68 66 62
116 118 117 120 119 118 119 120 122 123 123 118 117 116 112 108 107 105 100 95 93 93 90 87 80 79 71 68 70 63 60 59 51 44 30 32 32 44 56 67 75 76 74 73 68
122 124 123 124 129 128 127 125 125 125 126 125 127 127 123 117 115 112 108 104 100 100 99 94 84 85 77 74 73 72 69 61 57 51 48 39 42 44 49 48 50 67 78 76 74
93 96 104 119 130 133 135 131 132 133 134 133 132 129 124 123 120 116 115 113 110 109 108 106 95 91 83 84 82 90 64 67 61 61 57 50 52 54 48 55 51 48 60 75 79

GFSSW_250_spd_027.txt.gz
Wind_Speed
23 22 22 21 20 19 19 18 18 19 21 20 20 19 18 17 16 14 13 9 7 6 6 7 7 11 22 31 33 35 39 40 41 42 39 37 33 32 34 30 25 24 25 23 22
25 25 26 26 25 24 25 25 24 23 24 24 23 22 19 17 18 17 13 12 4 4 4 3 6 5 6 18 28 33 33 33 33 37 40 44 42 36 30 30 35 29 27 23 22
30 30 30 30 31 30 29 29 29 29 27 27 27 27 25 20 20 20 18 14 11 5 5 6 2 1 3 2 14 26 30 34 36 37 38 40 44 44 43 41 36 27 24 15 14
36 36 35 35 35 35 35 35 35 35 34 33 32 32 31 28 25 25 21 21 17 13 9 10 9 4 6 5 4 9 17 30 37 39 42 46 47 44 38 30 20 15 16 11 9
41 41 40 41 41 40 41 41 41 39 39 38 36 35 34 33 30 28 28 25 22 20 17 15 14 9 10 9 9 10 9 10 16 22 25 34 30 28 24 19 13 16 13 11 7
45 44 43 42 42 41 40 41 41 41 40 41 41 40 38 35 36 35 33 31 29 26 24 20 19 18 12 10 14 12 10 9 4 9 18 23 26 20 20 14 13 14 8 11 9
44 45 45 45 45 45 45 45 46 46 46 45 44 43 44 41 41 42 40 39 38 31 30 27 23 21 18 13 14 13 7 8 9 11 12 20 22 18 13 13 13 13 7 9 10
49 50 49 49 51 52 50 49 48 48 50 48 46 46 44 44 44 44 44 43 43 40 36 32 31 24 24 19 19 15 11 9 10 11 13 13 20 15 11 10 10 9 7 10 14
56 56 54 54 54 53 52 52 50 48 48 48 47 48 47 47 47 48 48 47 44 46 43 39 37 35 28 26 24 18 17 15 12 10 10 7 9 11 10 10 13 10 6 11 11
58 58 59 57 54 54 51 49 45 43 43 43 42 41 39 41 42 43 44 47 48 48 45 44 42 42 38 35 29 20 20 18 12 11 9 9 6 7 10 12 15 14 5 8 7
60 61 60 58 54 52 46 42 39 39 40 37 37 33 32 32 32 33 36 38 42 47 50 46 45 47 47 42 33 28 23 24 18 16 11 8 16 11 5 14 14 12 5 7 8
61 61 60 56 53 50 46 41 41 39 40 38 37 35 31 29 33 29 30 30 32 36 43 49 54 49 46 44 39 37 30 28 22 21 15 12 12 8 3 3 6 4 5 6 14
59 60 61 58 53 52 49 47 43 42 41 44 42 41 33 30 38 33 33 25 26 26 30 42 47 51 50 48 46 42 41 37 29 22 22 15 13 12 5 4 4 7 9 11 12
63 61 61 63 60 55 52 51 48 45 41 47 42 43 41 36 39 37 39 26 23 24 22 27 34 43 50 50 50 47 49 38 33 27 25 18 14 15 14 9 8 9 12 14 12
66 66 66 66 66 61 59 58 56 54 48 49 47 43 44 42 44 42 40 35 34 24 23 28 22 30 39 51 52 56 48 42 39 33 26 23 18 16 16 16 14 13 13 13 14
70 72 71 71 71 68 65 62 61 62 51 52 53 47 49 47 47 48 41 39 39 31 30 30 24 24 25 32 46 59 52 47 44 38 27 32 27 22 23 20 20 18 16 15 16
78 77 78 77 76 73 74 69 68 61 56 60 58 60 56 56 52 50 46 44 43 39 40 40 31 28 26 23 27 41 52 51 44 40 39 42 31 34 30 26 24 24 22 19 20
81 82 86 82 81 83 83 79 72 65 63 61 62 63 64 61 58 54 50 44 44 41 46 40 37 39 39 35 29 30 29 38 49 49 48 45 34 43 39 33 29 30 25 24 25
88 88 90 88 88 90 88 87 81 81 75 71 72 70 68 68 67 61 55 51 51 50 48 44 39 43 40 42 32 34 22 32 33 47 49 47 45 46 39 37 36 35 31 32 31
92 98 99 94 93 93 93 89 87 87 85 84 84 77 72 72 71 70 66 61 58 55 55 50 46 45 41 37 27 28 38 29 25 25 43 53 49 53 49 46 45 41 35 35 35
86 88 90 96 98 99 99 97 95 96 93 93 91 88 83 80 79 77 75 72 68 67 64 60 54 54 51 38 39 37 34 32 29 21 21 32 50 61 58 55 50 47 42 43 41
90 91 89 89 97 100 100 101 101 101 99 95 94 93 92 88 85 83 81 79 74 73 71 68 63 56 53 50 48 41 33 29 11 27 26 19 29 53 65 61 56 51 49 50 50
97 96 95 96 98 98 102 105 107 105 107 103 99 97 95 96 93 89 85 85 81 78 76 72 68 62 60 59 54 45 41 36 34 33 20 25 29 40 46 60 61 59 56 56 56
106 103 101 100 104 102 100 104 108 110 111 109 107 102 100 100 99 97 91 89 86 82 78 78 74 70 63 63 63 55 52 47 41 29 28 25 35 47 41 42 53 63 64 63 61
110 113 112 111 108 105 108 107 105 109 113 115 114 111 109 106 105 105 101 95 94 90 85 81 77 75 72 66 66 60 55 51 42 37 31 35 35 43 49 37 32 40 58 65 67
93 95 96 108 116 116 113 111 113 112 110 112 114 115 114 113 110 108 106 103 100 97 94 88 83 79 73 73 73 71 65 54 48 48 44 40 33 39 47 44 36 37 40 45 57
66 73 79 82 91 101 112 117 117 117 117 118 114 115 114 113 114 115 112 110 106 103 100 97 92 88 80 82 82 78 52 61 58 54 52 45 44 47 47 48 46 41 39 40 41

GFSSW_250_spd_030.txt.gz
Wind_Speed
27 25 24 23 21 20 19 19 20 21 20 19 19 16 15 14 12 12 12 7 4 1 4 2 1 13 22 28 34 35 36 36 35 30 25 27 29 32 35 35 36 39 33 37 39
28 27 25 24 24 24 24 24 25 26 26 24 23 22 18 19 20 14 15 12 10 6 2 2 1 0 9 19 24 29 35 38 38 38 39 40 42 45 46 44 40 41 43 39 39
29 29 29 29 29 30 30 30 30 29 29 30 28 27 26 23 24 22 20 16 15 13 11 5 4 4 2 6 15 20 27 32 35 38 39 39 40 41 41 39 40 40 32 30 27
35 35 35 36 36 36 36 35 35 35 35 35 35 33 32 32 27 26 25 23 19 17 17 14 7 9 7 6 5 8 16 26 33 34 36 39 40 41 43 38 25 24 23 16 13
42 42 41 42 42 42 42 42 41 41 41 41 41 38 36 34 33 30 30 27 24 23 22 19 14 14 11 12 9 8 8 12 18 20 21 24 29 32 31 24 19 17 8 13 14
47 47 47 46 46 46 45 45 44 43 42 41 39 39 38 36 36 38 32 32 29 28 28 27 21 20 16 16 14 13 9 8 12 16 15 14 18 21 21 10 11 11 10 14 17
50 49 48 45 44 43 41 44 44 44 45 46 45 43 42 43 40 41 38 37 36 33 34 33 29 25 22 21 19 15 12 10 9 12 13 15 17 18 17 10 10 13 11 11 14
49 50 50 48 49 47 47 50 49 50 52 52 51 49 47 46 46 46 44 42 41 40 38 37 36 33 27 25 24 19 15 15 11 13 11 15 13 13 13 11 9 13 11 9 11
57 55 55 53 54 51 51 54 52 51 54 52 51 50 50 48 46 45 47 47 46 44 41 38 40 40 33 30 29 23 19 19 14 16 9 9 10 10 8 10 6 11 10 9 11
58 60 58 58 59 57 55 56 56 54 53 53 51 50 51 49 49 46 46 47 49 51 48 46 42 43 42 40 35 27 21 23 19 18 11 10 10 8 11 10 8 10 13 11 8
60 62 63 61 61 59 57 58 58 56 56 53 51 48 47 47 46 45 46 45 48 49 51 51 49 49 49 46 39 32 28 27 23 20 17 13 10 15 15 11 10 12 14 11 5
64 65 67 66 66 64 62 60 59 56 51 50 48 49 45 44 45 43 42 42 41 43 45 49 55 53 47 44 43 38 37 35 28 24 20 18 12 11 11 9 7 3 9 9 7
70 69 70 69 67 66 64 61 58 56 52 54 49 50 46 40 47 43 39 38 36 33 37 41 46 47 50 50 46 44 44 40 35 26 21 21 15 11 11 10 7 7 8 11 13
73 71 71 74 71 67 63 62 61 57 55 55 55 50 49 43 45 47 43 39 36 37 30 32 38 43 46 51 53 49 53 41 36 32 27 22 21 18 13 15 8 9 11 14 14
79 75 72 71 73 70 68 64 63 61 60 57 59 54 52 51 50 52 50 41 40 37 28 34 26 30 37 48 47 54 50 43 38 34 30 25 25 22 20 16 12 10 10 14 12
85 83 77 74 75 74 74 71 67 67 62 60 58 59 56 54 55 54 52 47 47 39 37 33 28 27 31 30 39 46 50 48 42 38 30 37 31 27 26 18 17 15 13 13 14
90 89 85 81 79 79 77 77 75 68 66 67 63 62 63 63 57 56 54 51 48 45 45 47 38 36 32 27 27 34 43 45 44 38 45 41 33 35 31 26 21 20 19 17 14
89 90 89 87 84 84 83 80 78 74 73 72 72 69 69 69 66 62 58 54 52 48 51 46 41 38 38 32 33 32 24 28 42 48 47 39 41 42 36 30 26 24 23 22 19
87 89 88 88 89 92 92 88 81 81 80 78 78 78 75 73 70 70 67 62 60 56 55 51 45 47 44 43 39 31 19 27 24 35 44 42 49 42 42 35 31 30 28 29 27
92 91 89 89 91 91 95 94 92 86 83 87 86 83 80 78 75 74 73 69 66 62 56 52 49 47 46 43 38 30 33 20 16 17 26 42 51 52 46 44 42 37 34 33 30
97 96 94 94 94 94 94 93 97 94 89 87 92 91 87 84 81 80 76 73 71 68 63 58 54 53 51 40 39 37 34 29 24 20 19 24 35 49 53 51 47 44 41 37 35
101 100 98 99 95 97 96 95 95 95 97 97 91 96 94 92 88 88 81 77 73 72 69 65 60 57 54 52 47 41 36 28 22 25 27 22 22 26 41 53 51 48 46 43 42
108 105 102 100 99 99 99 99 97 96 96 96 100 98 100 98 98 96 92 85 81 77 74 70 66 65 63 61 52 44 42 38 32 28 22 24 23 28 25 31 50 54 51 50 52
100 100 101 102 103 104 103 100 101 98 97 96 96 99 101 103 102 100 99 94 90 86 80 77 73 72 68 68 61 55 49 42 38 30 28 26 30 34 35 30 26 41 54 55 55
74 78 82 84 93 104 109 107 104 103 101 98 96 97 102 106 107 105 101 100 98 95 91 86 82 78 75 75 70 64 57 53 45 38 32 36 36 38 43 37 24 20 25 44 56
56 59 65 67 71 79 94 107 111 110 109 104 99 95 99 106 110 111 109 106 103 101 99 95 91 85 81 78 75 68 63 60 56 50 45 38 36 43 49 38 31 25 25 25 29
48 49 52 54 57 59 69 85 101 109 114 113 107 98 98 100 107 111 111 110 107 103 102 101 97 93 88 85 79 70 67 65 63 57 51 44 43 42 45 42 34 27 25 26 28

GFSSW_250_spd_033.txt.gz
Wind_Speed
31 30 27 26 24 23 21 20 18 17 15 12 11 10 8 9 12 12 10 8 3 4 6 4 4 13 21 29 32 35 36 38 37 36 35 33 33 34 32 30 31 33 39 45 41
32 30 29 27 26 24 23 23 22 21 20 20 17 16 15 16 14 18 16 14 13 6 8 9 6 5 9 19 26 30 32 34 35 36 36 35 35 33 31 34 38 45 46 42 39
31 31 29 28 27 27 27 27 27 26 24 26 23 22 22 21 21 22 23 20 19 15 9 10 11 9 7 7 14 24 30 31 32 32 33 36 38 38 38 39 40 41 40 39 29
34 33 33 33 32 32 33 34 33 30 30 30 31 29 30 29 27 27 28 25 24 22 17 13 14 14 12 12 10 10 17 21 26 31 33 34 34 35 37 39 40 44 37 18 10
41 41 40 40 39 39 40 41 41 39 37 36 36 34 36 35 33 31 30 27 27 27 27 18 16 17 16 16 15 14 13 11 10 10 14 18 20 19 22 23 20 11 10 7 4
47 47 46 46 46 47 46 47 46 44 43 40 39 36 36 38 32 31 31 32 30 31 30 29 18 23 20 20 19 18 17 15 12 7 10 12 12 14 14 9 7 6 7 6 11
52 52 52 51 50 49 49 49 47 41 39 37 36 34 35 41 35 37 35 35 34 34 34 33 27 28 24 25 22 21 21 20 18 16 10 10 8 8 12 5 5 7 7 8 10
55 52 50 49 50 46 48 50 49 47 46 45 44 42 42 45 42 45 42 39 39 38 39 36 34 32 32 30 28 23 24 23 20 17 13 11 7 7 10 6 5 7 9 9 10
55 55 56 57 57 53 53 53 55 53 53 50 48 47 43 45 43 44 42 43 42 40 40 40 39 38 38 36 35 30 25 24 22 18 12 10 9 5 10 9 3 8 11 10 9
62 62 63 59 62 62 62 59 60 57 56 55 54 50 47 46 44 43 42 41 39 41 43 44 43 42 41 41 39 33 27 27 24 20 16 13 10 7 8 11 6 6 11 9 9
64 64 63 61 59 60 60 60 58 62 63 60 58 52 52 51 47 45 44 43 41 43 44 44 49 53 49 46 39 36 32 33 29 22 20 17 12 7 8 9 7 10 10 9 8
68 70 71 67 66 64 65 62 63 62 63 62 61 60 56 53 50 50 46 45 41 41 42 48 53 49 47 49 44 37 36 37 35 27 22 19 16 11 8 6 4 10 11 8 6
71 72 73 74 70 66 66 66 66 65 65 67 64 62 57 52 52 51 47 46 42 40 44 46 44 45 45 47 50 45 46 43 40 33 27 21 20 15 11 11 3 6 9 12 9
77 76 76 79 78 74 72 72 72 68 68 67 67 64 61 53 52 54 49 45 42 42 40 40 39 40 41 46 50 50 53 47 42 36 32 26 22 19 17 16 6 6 12 15 16
87 84 83 82 83 80 78 75 73 72 71 69 67 64 62 59 55 56 55 47 45 46 39 42 36 34 33 39 42 52 47 47 41 38 33 31 30 24 21 20 12 11 14 19 18
89 89 90 89 89 90 88 81 77 76 70 69 67 67 67 64 60 61 58 53 52 47 41 41 40 31 37 33 36 43 46 48 45 41 35 43 39 31 29 23 22 18 18 19 18
86 83 83 82 85 86 89 90 87 81 75 73 68 68 69 69 65 63 61 59 56 53 48 46 45 39 36 34 32 32 40 43 43 44 50 52 41 43 34 27 24 21 20 18 16
91 89 89 88 87 88 88 86 89 88 83 77 73 71 72 73 71 69 66 63 62 59 55 53 50 48 40 39 34 29 26 29 41 50 56 47 48 43 40 30 26 24 23 21 17
96 96 95 96 95 94 93 93 90 88 86 83 79 77 75 76 77 75 71 67 66 65 60 55 51 52 48 46 37 31 24 31 30 40 47 51 54 48 43 37 31 29 25 27 26
104 105 103 102 101 99 98 98 97 89 88 89 88 83 80 79 81 81 78 72 70 68 62 58 56 56 57 55 45 37 33 21 20 22 34 50 57 56 49 45 39 33 30 29 28
108 106 104 102 102 102 103 100 98 93 89 90 92 90 85 84 85 85 83 79 76 72 70 64 59 60 58 49 47 44 39 32 30 24 23 27 45 55 53 48 44 42 38 35 31
105 103 104 103 103 103 103 103 102 97 93 91 91 93 94 89 89 90 88 85 83 78 75 71 65 61 60 57 55 51 47 38 34 32 31 33 36 45 51 51 49 46 41 39 35
84 80 78 81 90 98 104 107 104 101 97 94 93 93 95 96 94 93 92 91 88 84 81 78 72 70 66 61 56 51 47 40 41 40 32 30 31 28 24 34 51 52 50 46 43
63 61 60 60 65 71 85 100 106 106 101 97 94 96 95 99 98 97 96 96 94 91 86 81 78 75 71 67 63 55 50 46 42 36 35 31 36 35 30 27 31 47 54 53 52
53 51 47 49 53 57 64 78 97 104 108 103 98 97 100 99 101 101 101 98 100 97 93 87 82 76 73 74 67 60 56 51 46 40 32 39 40 39 36 33 26 28 40 51 55
43 43 43 40 44 48 56 62 74 92 104 107 108 99 98 100 101 102 103 102 101 102 99 93 88 81 75 76 72 66 60 55 53 45 41 41 43 42 42 36 31 30 27 25 35
39 37 35 36 37 41 47 54 60 73 89 102 108 106 101 101 101 101 102 104 103 102 103 100 94 88 81 77 76 71 63 61 60 54 47 43 45 48 45 39 37 31 29 26 28

GFSSW_250_spd_036.txt.gz
Wind_Speed
34 33 32 31 28 27 25 22 20 19 16 15 11 9 8 8 8 5 4 4 4 7 9 9 8 13 24 30 34 35 35 36 40 41 40 38 36 36 38 37 35 36 37 39 37
36 36 34 32 30 29 28 26 23 22 20 18 17 16 14 13 13 13 12 12 10 9 10 12 12 11 9 16 25 31 32 34 36 37 38 37 36 36 33 31 32 32 37 39 41
37 36 34 33 32 30 29 28 27 25 24 23 21 21 20 20 20 23 18 17 18 16 12 14 13 13 13 12 10 18 25 30 33 33 33 32 30 30 32 35 39 42 41 37 40
39 37 35 32 32 31 31 31 30 29 29 28 26 26 26 26 27 26 25 25 22 23 18 17 18 16 14 15 14 11 12 18 23 28 31 31 31 33 34 37 40 37 35 29 14
41 40 39 38 38 38 38 38 36 34 34 33 33 32 33 33 32 30 33 29 29 27 24 20 21 20 19 18 15 15 13 11 11 16 23 26 27 30 29 25 26 25 20 10 7
47 46 46 47 46 46 45 44 43 41 41 40 40 38 39 41 34 34 33 31 29 29 29 25 21 25 26 22 20 18 16 16 13 9 11 13 13 13 16 18 20 12 9 10 10
54 53 51 52 52 52 51 50 49 48 48 46 43 42 39 43 36 33 33 32 31 32 32 28 27 27 29 26 27 23 20 18 16 13 12 11 8 8 10 13 10 4 8 12 11
58 59 58 58 56 56 55 53 51 48 46 45 43 41 38 45 37 37 38 36 36 35 37 35 30 31 33 33 33 29 25 22 20 17 17 15 11 7 7 7 6 5 9 11 12
60 60 59 59 58 57 56 57 55 54 53 50 46 43 43 50 44 44 44 42 42 40 39 41 38 37 37 39 38 35 30 25 23 21 19 18 12 9 8 7 3 6 9 12 12
64 66 65 63 62 65 64 62 63 63 59 58 57 53 52 52 52 46 46 44 42 38 39 39 42 41 40 41 42 39 33 30 28 23 20 16 13 12 11 8 4 2 8 12 13
69 70 70 68 67 68 67 66 65 63 64 65 65 62 60 58 56 50 49 44 43 42 41 39 38 43 42 44 43 38 34 33 32 27 20 18 18 18 14 12 6 8 10 15 16
75 76 77 74 73 72 71 68 68 65 65 65 63 61 58 57 58 54 49 49 47 46 42 45 46 40 41 45 45 41 38 38 35 31 25 22 21 20 16 13 6 9 13 17 17
79 80 82 81 79 77 76 76 75 73 70 73 71 67 61 59 58 56 53 54 51 48 49 49 40 40 42 44 46 47 48 47 44 36 31 26 23 21 19 16 9 8 11 15 18
86 87 87 87 87 84 81 78 79 76 75 71 72 68 66 63 58 59 59 56 51 49 51 47 43 43 42 44 47 48 52 51 47 40 36 31 28 23 21 19 13 10 12 11 17
91 92 94 95 96 94 89 86 84 80 82 76 77 73 73 63 62 60 61 56 53 54 47 51 46 42 40 42 38 47 45 45 51 43 39 34 32 31 26 22 16 13 12 10 17
89 90 91 92 93 95 96 95 92 90 85 81 79 80 78 74 68 66 64 60 58 56 50 52 48 40 40 38 40 37 38 41 46 48 37 42 42 34 34 25 20 16 13 15 19
100 101 100 100 97 93 93 94 96 96 94 89 83 82 81 78 73 72 70 64 60 58 52 53 49 46 43 40 37 34 35 39 41 44 43 56 46 45 39 31 25 20 16 18 20
107 104 102 100 101 99 97 95 94 91 92 91 90 87 87 84 80 76 73 68 65 64 63 61 55 52 47 43 43 35 32 31 40 50 60 55 43 51 44 36 28 23 19 22 24
109 108 106 103 100 99 100 100 100 96 86 84 91 94 94 91 87 81 77 73 70 70 69 65 59 57 54 51 44 36 25 36 33 41 49 52 56 50 43 38 33 29 25 24 29
105 104 102 101 101 99 97 98 99 97 92 93 91 89 91 94 91 87 86 77 73 75 75 68 67 61 61 59 46 36 37 22 23 30 41 50 58 56 47 43 38 35 31 30 29
87 82 79 80 84 91 98 103 100 93 92 94 98 91 88 89 95 94 89 82 80 78 70 71 68 66 67 58 49 46 38 30 27 26 29 43 53 56 53 49 44 41 40 37 33
71 67 63 63 64 69 79 92 99 100 97 93 93 98 94 92 93 98 95 89 84 76 76 79 74 69 65 66 59 57 54 45 36 31 33 34 41 46 51 53 50 47 45 42 39
59 57 55 54 54 57 60 70 85 94 100 102 95 94 99 99 96 97 97 96 90 84 83 80 77 75 71 69 62 56 55 50 42 39 32 30 32 31 39 49 53 52 51 48 46
53 48 46 46 46 47 52 58 67 79 92 100 101 96 95 101 101 99 99 100 97 91 86 83 84 79 72 71 69 62 58 54 50 46 39 35 38 32 28 36 51 57 57 54 49
47 45 41 40 41 42 44 50 57 64 78 90 99 102 101 99 100 100 100 102 101 96 93 88 86 84 83 75 67 61 61 58 53 53 47 44 44 43 35 32 37 50 54 55 54
44 41 39 35 35 36 39 42 50 56 65 80 92 100 103 106 100 99 94 100 101 99 96 93 90 87 84 79 74 69 63 60 57 56 53 50 50 49 42 37 36 37 43 51 54
45 39 35 32 31 29 32 35 41 49 56 68 80 93 99 105 104 96 96 96 97 101 99 96 93 89 89 86 82 73 65 63 59 59 57 53 53 55 51 42 41 41 37 39 47

GFSSW_250_spd_039.txt.gz
Wind_Speed
34 34 34 34 33 31 29 27 24 22 19 19 18 15 12 13 11 8 7 5 5 5 6 7 8 12 24 32 35 38 40 41 44 40 40 41 38 36 35 34 33 35 32 33 36
37 37 37 37 36 35 33 30 27 25 24 24 23 22 20 17 17 15 12 10 10 9 9 10 10 10 9 11 25 32 34 35 40 39 35 36 39 39 38 37 36 36 37 38 39
40 40 39 39 38 37 35 32 30 28 28 28 27 27 26 23 23 23 18 16 16 14 13 14 14 14 12 10 9 12 20 30 39 36 33 34 34 36 37 36 36 35 37 40 45
43 41 40 40 39 39 37 34 31 31 31 31 30 30 29 29 28 27 25 24 22 22 19 18 18 17 16 14 12 12 10 17 22 27 31 32 34 34 34 33 33 35 39 43 38
46 45 45 44 42 40 38 36 34 34 35 35 34 33 33 33 32 29 32 30 28 29 27 23 23 20 18 19 16 14 14 14 13 12 16 22 27 28 29 27 29 33 34 31 19
50 50 49 48 47 46 44 42 41 41 41 40 38 38 37 37 38 34 38 37 36 34 32 29 25 24 23 22 21 20 17 14 16 15 13 10 14 18 19 18 20 23 23 16 10
54 54 53 52 53 53 51 50 49 49 48 46 44 43 43 42 43 39 41 41 39 38 36 32 26 27 29 27 26 27 22 17 17 16 14 11 11 12 14 16 18 16 14 10 11
59 59 59 60 60 60 60 59 56 54 54 53 50 49 50 48 47 44 41 42 41 39 39 34 32 32 33 34 30 29 26 24 17 17 16 14 14 16 16 15 14 12 11 13 15
63 64 63 63 63 62 62 60 60 57 58 58 56 51 50 49 49 47 43 42 39 40 40 40 37 37 36 39 34 33 30 28 23 19 17 18 17 17 17 13 11 10 12 15 17
70 70 69 68 68 68 67 67 67 64 62 61 58 55 53 51 51 47 45 47 45 45 45 46 46 42 41 42 44 40 37 31 28 24 20 21 19 19 16 12 12 9 12 13 15
76 76 76 76 75 73 72 72 70 70 70 68 65 65 60 57 55 56 51 52 51 51 52 48 47 42 45 44 45 42 38 36 33 29 26 23 22 19 15 14 13 13 10 13 14
82 82 82 80 79 79 79 78 77 75 72 71 69 70 67 66 61 60 59 56 58 58 54 47 50 47 41 40 42 39 38 36 35 34 30 27 25 21 18 16 15 12 14 15 17
88 89 90 89 89 88 86 85 83 81 76 80 75 70 71 69 66 62 60 60 61 59 56 51 52 42 41 42 44 42 42 43 41 41 34 30 28 23 20 18 17 15 14 18 18
96 97 97 97 97 96 93 92 90 87 85 83 87 76 76 70 66 62 62 60 57 55 59 54 49 47 46 45 47 45 47 47 46 44 40 35 32 26 23 21 19 16 18 14 14
91 96 99 100 102 103 103 97 94 90 91 88 84 82 82 76 74 70 71 68 61 60 58 55 53 53 47 51 44 48 47 45 47 43 46 36 34 33 30 26 21 18 20 16 13
95 100 102 102 101 102 103 104 102 100 97 100 87 89 86 83 81 78 71 69 68 67 62 59 57 49 50 42 44 45 42 42 40 41 41 42 41 41 37 33 24 22 20 18 16
99 105 107 108 107 103 101 98 97 97 108 109 96 91 92 88 86 80 77 74 68 64 59 58 55 55 50 47 46 43 43 44 42 37 36 48 47 50 47 37 32 26 22 21 16
107 109 109 110 107 103 100 97 100 105 112 87 84 92 95 96 91 87 81 80 75 72 70 64 60 56 52 48 47 44 44 41 36 40 47 57 53 53 50 44 36 31 24 23 20
99 99 99 98 99 98 99 102 105 103 92 94 91 92 97 105 102 95 87 86 81 76 70 67 63 65 59 57 53 48 37 43 40 40 43 51 54 62 50 45 40 34 29 28 24
85 83 82 78 75 72 77 90 102 102 96 90 90 97 104 106 105 103 96 92 88 83 79 75 72 67 64 60 52 45 47 37 35 32 37 44 52 58 54 50 45 39 34 32 31
71 66 66 65 64 61 60 66 77 93 100 97 96 90 101 100 95 103 103 101 95 89 85 81 76 72 69 56 55 50 41 33 34 32 38 45 51 56 54 48 46 44 43 39 35
60 59 59 57 55 53 54 55 60 72 88 98 103 95 98 97 95 100 112 107 95 91 86 82 78 74 62 66 64 57 51 46 38 34 36 39 49 44 48 52 51 47 45 43 40
58 54 53 55 52 45 41 48 51 60 72 88 101 100 97 93 96 104 103 90 98 97 94 90 77 74 75 73 66 56 53 49 45 43 40 38 33 43 47 51 56 53 49 48 45
53 52 49 49 47 44 39 38 44 51 62 76 93 96 100 97 99 105 98 94 104 102 94 87 83 77 75 64 71 66 59 56 50 46 40 37 32 31 36 47 52 56 54 54 50
49 51 45 45 44 37 35 36 36 45 54 67 84 93 98 103 102 106 98 93 102 101 102 96 89 84 84 86 80 71 67 61 55 53 44 43 41 39 35 37 45 56 57 58 55
52 51 45 38 36 34 31 34 32 40 49 61 74 86 96 104 105 101 94 93 102 97 97 95 91 91 90 86 75 69 66 63 63 62 61 53 49 48 43 38 37 46 57 59 60
52 47 42 35 32 31 25 26 29 33 43 53 65 75 89 99 102 102 94 91 98 93 92 87 95 94 87 85 77 75 69 66 67 67 66 59 56 54 50 45 42 42 47 56 60

GFSSW_250_spd_042.txt.gz
Wind_Speed
32 33 34 34 33 32 30 29 26 24 21 21 19 18 17 14 13 12 11 12 13 13 15 20 27 33 38 41 39 37 38 43 47 44 44 45 42 40 40 40 39 39 40 41 42
37 38 38 38 37 36 34 33 31 29 27 26 25 24 23 21 19 18 14 13 11 10 10 11 12 15 16 19 26 32 35 34 39 41 41 41 42 43 41 41 41 39 42 40 40
42 42 41 41 40 39 37 37 35 34 31 29 29 30 29 28 27 24 20 17 17 14 13 12 12 12 14 14 12 12 24 32 33 31 34 36 40 39 37 39 40 37 37 39 38
46 45 44 44 44 42 40 38 37 36 35 32 33 34 34 33 33 30 27 24 24 20 18 17 16 17 17 16 14 12 10 24 28 23 31 21 32 32 34 36 35 34 33 35 36
49 49 49 49 48 46 45 42 40 39 39 37 35 37 37 39 37 35 35 31 29 28 25 24 23 22 20 19 19 16 14 16 20 20 14 25 27 14 14 20 26 28 26 27 32
53 53 53 53 53 51 50 47 45 43 41 40 38 39 39 42 43 39 39 39 34 33 33 30 27 26 26 26 23 21 20 18 20 19 14 14 18 22 25 26 19 18 20 25 28
57 58 59 59 58 56 54 52 50 49 47 45 43 43 43 43 46 44 42 42 42 39 39 37 33 32 32 32 28 26 23 21 21 20 20 17 16 11 15 19 18 17 20 21 14
63 63 63 62 62 60 60 58 55 54 52 52 50 48 51 44 49 50 46 47 46 45 43 42 40 38 35 36 33 30 26 25 23 22 19 19 17 13 13 14 16 19 18 16 11
65 65 67 67 67 67 66 66 64 62 59 58 57 55 57 52 54 52 52 51 49 49 47 44 42 41 36 38 37 35 32 28 26 26 22 19 16 17 13 15 18 16 16 14 12
73 74 74 74 73 72 73 72 71 70 67 66 62 62 60 61 59 59 56 54 54 52 50 47 45 43 38 36 41 39 37 32 29 28 28 24 21 19 15 16 18 15 14 14 11
78 79 80 81 81 82 82 80 78 75 74 72 66 67 63 65 59 58 58 54 50 49 52 52 46 41 46 47 45 41 39 35 36 33 29 29 25 23 19 16 21 15 12 13 11
86 87 87 88 87 87 87 87 85 83 77 79 75 71 71 73 67 64 61 58 56 56 53 50 49 51 49 46 44 44 43 40 42 40 35 33 30 25 24 19 17 14 12 12 13
92 94 94 94 95 95 93 92 91 89 81 81 82 78 82 75 73 69 65 68 64 60 57 57 59 53 50 48 46 43 42 42 43 45 38 36 32 29 27 22 18 14 14 12 13
93 97 100 103 102 103 102 100 98 95 89 87 96 87 86 80 76 76 70 71 69 65 68 63 63 56 53 51 52 48 47 44 41 45 44 42 37 34 30 27 23 18 15 14 13
89 93 99 101 102 103 104 105 104 99 98 104 99 99 92 84 83 82 79 75 70 70 69 61 64 60 54 59 57 53 51 42 39 42 43 42 40 35 33 33 28 23 18 17 15
96 101 103 102 99 95 95 95 92 95 101 124 103 100 98 90 88 88 81 77 79 75 69 69 66 60 55 59 54 57 51 44 40 41 38 44 43 42 41 41 33 26 22 19 16
105 109 110 109 108 106 103 99 94 91 109 121 93 95 100 97 93 91 90 83 78 72 64 69 60 57 55 53 52 51 49 46 42 40 35 45 46 45 48 47 39 31 25 22 19
103 103 103 102 101 99 97 96 95 96 114 107 86 80 85 103 105 101 95 87 83 76 79 73 67 63 62 57 56 53 48 44 45 45 48 49 43 51 57 51 44 36 30 24 22
95 91 87 81 80 78 77 78 84 91 100 101 90 89 94 101 103 111 99 89 84 83 77 77 70 74 68 64 60 53 45 49 47 43 41 45 54 57 58 52 45 39 34 30 26
84 78 72 70 68 66 66 66 69 73 83 92 95 91 94 96 99 105 105 97 91 88 85 79 82 74 71 71 65 56 58 53 40 41 40 44 47 54 57 53 49 45 40 35 31
70 66 56 58 56 57 58 58 59 61 69 79 91 96 98 95 98 103 98 105 109 105 94 88 85 80 79 69 60 56 53 45 46 43 43 45 46 50 55 54 52 47 44 41 36
58 54 53 55 51 49 49 51 53 54 61 66 79 95 96 92 94 101 106 99 100 102 95 89 86 85 78 68 68 63 57 53 45 41 41 44 50 43 48 49 50 50 48 47 41
53 52 47 45 43 49 46 39 42 45 53 60 70 84 91 96 100 100 108 105 92 95 98 100 88 81 81 75 70 64 58 56 55 51 47 48 49 41 46 48 47 52 54 53 48
53 47 52 46 42 38 36 35 33 36 47 53 62 73 85 99 104 105 109 107 95 96 89 86 91 87 78 67 67 65 64 60 56 49 47 47 47 39 42 48 50 53 56 57 53
57 52 46 42 40 34 30 29 25 31 40 46 58 69 81 95 103 104 109 101 100 99 93 89 95 92 84 80 78 72 69 65 57 55 50 50 50 40 36 40 49 54 57 57 54
57 53 47 41 37 35 30 27 26 23 34 42 53 63 75 86 95 108 110 98 102 96 97 92 93 92 88 88 88 79 73 67 65 61 59 54 54 47 41 39 43 49 54 59 59
55 49 46 39 37 32 28 26 23 20 25 35 45 53 66 78 89 101 104 102 100 90 96 96 99 93 86 89 86 82 74 67 67 67 63 60 54 53 47 45 41 41 51 59 62

GFSSW_250_spd_045.txt.gz
Wind_Speed
34 33 34 33 32 33 31 28 24 22 19 19 17 17 17 16 16 18 19 22 29 33 36 37 37 35 32 33 32 29 29 38 21 25 30 39 43 40 41 41 37 38 39 40 42
37 37 38 38 38 37 35 33 30 27 26 24 24 22 23 23 21 20 20 20 19 19 21 26 32 36 36 34 35 37 40 45 46 45 40 42 41 39 39 37 37 35 38 36 37
43 43 43 42 42 41 40 38 36 33 31 29 28 29 28 29 28 24 24 23 22 21 19 19 20 20 21 23 26 36 43 48 49 46 42 37 37 33 39 34 31 33 35 31 33
47 48 48 47 47 46 44 42 40 38 35 33 33 32 34 34 34 33 29 27 26 25 22 20 20 20 19 18 19 21 21 30 40 41 35 34 32 36 30 21 22 23 23 26 28
51 52 52 52 52 50 48 46 45 43 40 37 36 36 37 41 36 39 36 34 32 29 27 23 23 24 21 19 20 21 20 19 21 27 37 36 29 22 22 18 19 25 22 21 21
55 56 56 56 55 55 53 51 51 49 46 43 40 40 42 45 41 43 42 41 38 36 35 31 28 25 25 23 24 22 23 19 20 24 21 27 20 21 20 19 20 10 16 20 22
59 60 60 60 60 59 59 58 55 55 52 49 45 43 46 45 47 48 45 46 45 41 39 38 34 27 30 29 28 25 25 23 23 24 23 19 17 15 14 18 14 12 14 17 19
62 63 64 64 65 64 64 64 62 60 58 56 51 48 51 47 49 52 50 47 50 47 45 42 40 36 32 35 30 30 30 29 26 26 23 20 20 16 13 14 12 9 13 15 12
65 67 68 69 70 70 70 68 66 63 63 60 58 54 56 55 55 54 54 54 52 51 51 48 44 42 38 36 36 35 35 34 30 29 32 26 22 22 19 14 12 9 10 15 14
74 75 76 76 76 77 77 76 75 73 70 67 62 62 60 63 59 60 59 58 56 54 53 51 49 46 42 38 41 42 38 36 33 32 33 28 26 25 21 17 16 15 7 12 12
78 80 81 83 84 84 85 84 83 80 79 76 71 69 70 70 67 64 64 62 60 56 56 56 53 49 51 48 49 44 39 38 33 30 31 32 29 28 22 14 7 13 16 14 10
83 85 87 89 90 91 91 91 89 87 82 87 83 77 81 76 72 72 69 66 65 65 63 58 51 58 55 51 48 45 43 38 38 34 35 37 36 38 28 20 18 15 16 13 11
89 91 93 95 97 98 99 99 96 93 91 94 93 88 89 80 79 76 76 73 68 67 63 61 65 60 54 51 48 45 43 44 42 42 40 40 40 37 33 27 25 25 17 18 13
84 88 91 96 97 102 104 103 101 98 103 104 97 96 91 90 82 86 83 79 74 69 69 64 67 60 54 48 51 47 48 50 48 47 43 45 43 40 37 32 27 25 24 27 22
91 94 97 99 102 101 99 95 92 89 103 104 101 99 96 93 90 92 89 87 78 78 79 66 69 64 58 58 56 57 57 54 52 46 46 44 43 44 42 36 33 31 31 24 21
89 95 101 108 108 109 106 102 99 95 100 98 88 93 102 98 100 99 94 91 89 85 79 76 76 70 63 64 58 65 62 56 51 45 41 42 40 41 42 43 42 37 31 31 19
86 93 101 106 106 102 99 96 95 93 97 103 91 91 90 97 106 109 100 96 91 85 77 80 76 70 68 66 65 65 62 55 48 43 38 46 41 44 47 49 45 40 35 30 33
88 92 98 97 93 88 85 83 83 82 88 94 80 90 99 92 95 105 109 100 94 87 87 81 78 70 71 67 66 65 64 58 52 47 50 58 46 44 50 51 46 40 35 33 33
89 85 83 79 76 73 72 71 71 68 73 86 82 84 89 92 94 92 96 102 96 95 89 85 77 82 80 74 69 65 57 57 57 57 58 55 49 52 50 49 49 43 38 35 33
80 71 65 65 63 65 65 63 63 60 69 75 75 84 89 93 92 94 92 96 106 106 102 92 95 91 84 84 75 65 66 60 55 53 46 49 49 53 45 45 46 45 42 42 38
70 64 52 52 51 53 56 59 58 56 60 61 67 75 87 92 96 100 96 95 101 107 106 99 96 90 93 83 67 69 63 58 59 54 51 49 48 47 42 44 44 47 48 47 43
68 59 52 45 46 45 48 49 49 52 54 52 57 64 79 89 98 96 96 98 101 102 104 104 95 97 88 73 73 72 68 65 57 55 53 54 50 45 43 43 42 45 49 51 47
65 57 47 45 41 40 40 41 41 41 45 52 51 58 71 82 88 97 98 100 101 101 100 103 100 95 88 88 84 73 66 61 61 62 55 54 51 43 42 41 40 46 50 52 54
61 51 51 43 39 36 36 35 35 30 35 41 49 55 64 71 82 89 97 99 101 101 99 94 96 93 86 76 77 71 66 65 64 59 58 54 53 45 45 45 42 43 49 54 58
56 50 43 42 43 38 35 32 31 25 27 34 44 48 55 64 71 84 96 100 101 99 99 92 88 89 84 80 75 76 75 69 61 60 57 58 52 48 46 45 45 48 49 54 59
49 45 45 43 40 38 35 31 27 24 24 25 37 42 48 57 65 78 91 101 101 98 98 92 91 89 89 86 84 82 77 70 67 65 63 62 54 51 51 46 45 45 47 55 59
43 44 41 41 42 39 35 30 23 19 20 20 29 35 43 53 61 71 88 99 101 98 96 93 92 84 87 90 92 81 73 71 71 69 64 59 56 54 53 49 47 46 50 53 60

GFSSW_250_spd_048.txt.gz
Wind_Speed
39 38 38 37 36 35 34 32 28 22 20 19 18 17 17 17 18 25 34 38 39 38 38 37 35 34 32 31 30 27 27 21 13 29 16 18 19 23 33 36 34 31 34 34 34
43 41 41 41 40 39 38 37 33 29 26 23 24 23 23 23 22 21 28 35 38 40 41 40 38 37 37 36 35 33 31 29 24 30 23 21 25 37 39 36 33 36 36 27 29
44 44 44 44 44 43 42 41 39 35 32 30 28 29 29 29 28 26 27 29 33 35 37 39 41 42 42 41 40 36 40 38 35 41 41 44 50 47 39 36 36 28 17 16 22
45 46 47 48 48 49 47 46 43 40 38 36 34 33 34 35 32 35 32 30 32 31 30 30 30 29 29 31 35 37 40 43 44 45 48 50 51 46 42 34 21 17 19 19 16
51 51 52 52 52 53 52 51 49 46 44 41 39 39 39 41 34 40 38 38 37 34 32 30 30 28 27 26 27 26 27 29 33 36 40 44 49 44 37 32 22 19 16 10 15
55 56 56 57 57 57 56 54 53 52 50 47 44 43 45 44 39 45 44 44 44 41 39 38 35 29 27 28 28 24 24 24 24 24 23 29 29 28 29 22 18 11 10 13 17
57 59 60 60 61 61 61 60 58 57 54 52 50 49 52 47 43 51 48 49 49 48 46 44 38 35 34 31 28 25 24 22 25 26 16 17 19 21 21 17 14 11 7 10 13
59 61 61 62 63 64 64 63 62 61 60 57 55 54 59 52 50 54 52 51 54 52 51 48 44 42 39 38 31 27 24 27 24 25 22 21 23 19 18 16 14 9 7 7 10
66 67 68 68 69 69 68 69 68 68 67 63 61 60 63 60 55 56 57 55 57 57 55 53 48 47 42 41 39 31 32 31 25 27 24 23 21 22 18 17 14 10 7 6 10
72 74 76 77 77 79 78 77 75 76 75 70 68 66 65 67 63 61 64 61 62 61 57 56 51 50 45 39 38 45 42 36 32 30 28 27 21 24 20 16 17 13 9 2 10
77 79 82 83 84 85 86 86 85 86 84 80 76 75 75 71 68 65 66 66 63 62 62 60 56 50 53 51 52 51 46 39 34 32 30 31 23 23 24 19 16 16 10 9 8
83 85 88 89 90 91 91 91 90 90 95 91 87 84 85 76 74 73 71 70 69 68 71 63 53 62 61 57 54 48 48 41 40 37 34 33 30 24 28 24 19 14 12 10 10
80 82 83 87 91 95 97 98 98 98 96 97 95 93 91 86 82 86 81 78 75 76 70 67 69 69 65 62 58 50 46 46 48 44 39 38 36 31 32 30 25 23 19 12 10
76 80 81 90 92 96 97 97 96 99 99 101 101 99 97 92 92 97 92 85 81 78 77 72 77 70 66 62 59 54 53 53 56 49 44 41 38 37 31 31 31 29 24 24 13
72 75 81 86 88 89 90 93 98 100 99 94 97 102 101 97 94 102 97 94 86 84 82 71 79 76 68 63 62 59 60 56 59 53 51 46 45 36 32 29 36 35 33 30 27
66 70 78 80 86 91 91 89 89 88 90 91 98 94 93 95 99 103 102 96 95 93 86 82 87 80 70 76 71 72 66 63 63 56 50 47 43 40 30 35 40 37 36 33 30
73 76 82 87 90 89 88 87 86 85 84 81 85 89 95 97 96 102 103 104 102 98 89 88 85 82 81 80 74 76 73 67 62 53 42 48 42 42 38 41 42 38 37 35 31
74 75 81 88 85 82 77 74 73 73 74 75 78 83 85 92 101 101 99 102 106 102 95 94 94 84 81 80 77 74 71 63 56 50 47 54 39 51 49 43 41 37 35 35 31
76 78 80 74 70 67 65 66 64 62 62 62 69 76 80 89 97 101 104 102 104 108 104 99 93 93 90 86 84 80 69 70 66 60 58 54 54 58 49 45 40 36 33 36 37
80 76 70 62 55 54 54 58 59 57 56 55 61 68 74 82 96 100 105 106 102 101 104 103 95 95 89 93 89 77 80 75 65 61 58 55 57 55 53 52 46 39 35 42 41
82 72 64 55 49 45 47 49 50 51 52 54 53 61 66 79 90 100 107 106 106 103 100 104 97 97 101 95 81 80 75 72 73 69 61 60 57 63 59 55 50 41 41 46 48
83 69 57 50 48 45 41 41 43 48 47 48 50 49 59 73 81 94 103 107 105 105 99 102 101 106 100 85 84 86 83 81 73 63 59 60 66 63 57 50 45 40 39 45 49
79 65 50 44 44 45 43 43 37 37 40 44 45 44 52 64 78 88 97 103 106 105 102 101 102 105 98 96 95 91 80 74 70 70 63 61 68 57 54 50 47 45 41 43 52
67 49 45 41 40 40 44 45 43 32 33 36 39 42 49 57 68 80 89 97 105 104 105 102 101 103 103 98 95 85 77 70 67 66 64 62 64 55 52 50 49 48 45 46 51
52 43 37 37 43 43 41 39 40 35 30 25 34 38 43 51 63 71 81 88 98 101 103 103 95 101 104 100 93 83 77 75 67 62 60 73 64 58 56 55 54 52 51 46 50
42 35 36 37 39 43 45 42 36 27 27 19 30 35 36 42 50 60 68 80 96 102 102 100 99 93 93 97 91 84 79 77 73 68 67 74 68 62 61 59 57 55 49 48 48
34 31 33 38 39 40 41 39 33 27 19 19 21 29 31 35 44 52 64 78 92 97 102 100 97 91 92 98 93 88 86 82 75 77 76 77 72 67 67 62 58 56 49 46 44

GFSSW_250_spd_051.txt.gz
Wind_Speed
42 41 40 38 37 37 35 35 34 30 26 24 21 19 17 18 22 32 43 43 43 41 39 37 35 31 29 28 26 24 25 23 19 13 12 15 25 31 30 26 29 32 43 38 33
47 45 44 42 41 40 40 39 38 35 32 29 28 26 25 23 24 23 31 41 45 45 44 42 40 37 37 35 34 30 30 28 27 18 13 10 23 27 26 29 33 44 44 31 21
48 47 46 45 44 43 42 42 43 41 38 35 33 33 32 30 27 28 28 32 42 46 46 45 44 42 42 40 38 37 37 35 32 26 28 32 29 28 30 36 42 48 36 31 25
47 47 47 46 45 44 44 45 45 46 44 41 39 38 38 36 31 34 33 33 35 39 45 46 46 45 45 42 41 42 41 39 39 36 34 39 41 38 41 46 53 40 35 28 20
49 50 50 50 49 48 48 48 48 49 49 47 46 45 44 42 36 40 38 39 39 38 39 42 45 45 44 42 43 42 42 43 45 44 43 44 47 49 49 51 47 27 27 18 16
54 54 54 54 55 54 54 53 53 54 53 52 51 50 52 47 42 46 45 43 43 43 40 41 41 38 35 36 39 31 31 32 33 33 39 45 44 41 37 29 18 17 16 13 14
56 56 57 57 58 58 59 59 58 58 58 56 55 56 58 51 49 52 49 48 48 47 48 44 39 37 36 37 29 28 25 28 28 28 30 25 25 19 14 14 14 16 15 11 12
58 59 60 60 61 61 62 62 63 63 62 61 62 62 64 58 55 53 54 53 55 53 52 50 45 43 41 40 33 31 28 33 27 29 30 25 21 19 17 15 14 13 13 8 10
64 66 67 68 68 69 69 69 69 68 66 65 66 68 67 65 60 61 61 60 57 59 58 54 52 51 47 44 39 35 36 37 31 28 30 26 23 20 21 20 14 11 11 8 7
69 71 71 72 74 75 77 77 77 77 72 72 71 73 71 69 69 66 68 65 64 61 59 57 56 57 53 49 45 47 48 44 38 31 30 28 26 24 21 21 14 12 12 14 7
72 74 77 77 80 81 82 81 82 86 83 83 80 80 77 74 76 73 74 72 68 64 61 62 60 54 60 62 59 56 52 49 45 37 32 30 30 27 23 20 17 14 10 15 7
66 71 74 75 80 83 86 89 90 91 90 88 89 87 87 82 84 81 79 77 72 69 72 65 54 66 66 63 63 58 56 51 51 42 37 32 34 29 26 21 22 17 12 12 7
62 67 69 71 73 74 81 89 92 93 95 98 94 92 93 90 93 88 87 82 78 76 73 69 71 71 68 66 65 62 57 57 56 49 43 40 32 31 30 25 26 23 14 15 14
65 68 70 75 77 79 79 82 85 92 95 100 100 101 101 98 99 98 96 92 87 84 80 75 77 71 71 67 66 63 61 62 64 56 47 42 33 32 30 30 27 25 21 20 16
66 69 70 71 75 75 81 85 86 89 89 94 102 102 103 105 105 105 102 101 96 92 87 75 81 75 71 68 70 68 65 64 65 65 58 46 39 36 38 34 32 27 28 25 20
67 69 71 73 77 80 83 86 88 88 87 85 92 96 103 104 106 111 107 105 103 98 94 87 88 81 77 81 75 78 74 71 71 68 58 46 40 35 34 40 35 29 32 31 27
65 70 73 77 78 83 85 89 88 85 84 82 85 91 96 100 107 113 112 111 108 105 102 97 89 88 87 84 80 81 80 74 72 64 46 48 42 37 39 41 43 36 34 32 33
71 73 75 77 75 79 80 82 80 77 75 75 78 84 92 97 103 109 115 112 114 111 107 101 98 92 88 86 83 81 81 71 64 58 46 50 40 45 44 46 49 39 35 31 31
76 71 72 73 75 72 68 63 64 63 64 65 67 71 80 90 100 106 110 114 114 112 114 106 98 101 97 90 90 83 78 74 72 67 58 52 51 59 50 49 45 41 34 33 34
72 72 75 75 67 59 56 50 49 53 55 58 58 60 68 80 95 103 109 111 114 113 114 112 102 104 99 100 100 90 84 82 71 67 59 55 52 58 51 51 49 45 41 38 38
71 74 75 67 56 49 46 46 47 48 49 52 56 55 59 71 84 95 105 107 110 111 113 112 109 110 106 106 98 92 85 79 78 73 59 57 51 62 56 57 53 48 46 39 39
73 72 64 55 49 47 45 43 42 43 42 47 50 54 56 61 73 86 98 105 107 110 113 110 110 116 110 104 100 96 94 89 78 65 60 58 56 67 62 61 56 50 48 43 40
71 59 52 49 48 48 46 44 43 40 39 43 45 49 55 58 61 74 84 97 106 108 113 112 109 112 112 110 108 101 96 85 78 76 67 61 63 71 69 62 55 50 47 47 44
55 49 45 43 41 40 45 46 46 41 37 36 40 42 49 53 53 67 79 88 100 105 110 110 111 113 114 113 111 101 95 89 83 81 71 62 80 75 67 61 56 54 51 53 52
45 41 39 34 36 37 41 45 50 48 38 31 33 38 40 47 47 62 74 79 89 100 106 108 110 113 112 112 109 100 94 89 84 75 70 72 78 72 68 67 63 58 52 53 56
41 36 32 31 33 38 44 47 48 46 42 33 31 31 34 41 43 56 67 70 79 87 103 103 109 112 107 106 103 100 100 93 85 79 74 78 75 76 75 69 61 55 53 55 58
36 30 29 31 38 45 48 49 50 44 37 30 27 27 28 34 38 45 54 59 68 78 94 103 107 108 107 104 102 106 103 95 92 85 79 78 80 76 72 66 59 56 56 56 59

GFSSW_250_spd_054.txt.gz
Wind_Speed
44 44 43 40 39 38 36 34 31 29 31 27 24 21 19 18 25 33 43 44 42 39 37 34 32 30 28 25 25 25 24 24 21 17 14 18 20 20 21 31 25 28 30 33 47
46 46 45 45 44 42 41 38 37 34 33 34 31 28 25 23 22 27 33 43 46 45 43 41 37 35 33 30 29 27 27 25 25 25 22 17 15 23 32 33 31 26 30 41 54
49 49 49 48 49 46 44 43 41 39 38 38 37 34 33 29 27 27 30 40 43 47 48 47 43 40 38 35 32 32 32 30 29 28 25 21 24 18 24 29 28 26 37 51 44
49 49 49 48 46 45 44 43 43 42 41 41 42 41 38 36 33 35 32 33 37 43 46 53 50 47 44 41 39 38 37 36 36 34 32 28 27 29 31 30 29 40 48 43 32
51 50 50 49 48 47 46 46 45 45 45 45 46 47 44 39 41 39 38 36 36 38 41 48 51 51 49 45 43 43 41 41 41 39 39 36 33 33 36 38 42 45 46 23 21
51 51 52 53 52 52 51 51 50 50 50 50 50 51 50 44 44 46 44 42 39 39 41 39 45 46 48 49 46 44 45 46 44 45 43 42 40 39 36 38 41 33 16 18 16
53 54 55 56 56 56 55 56 56 56 55 56 56 57 56 52 49 51 51 48 46 44 43 43 39 38 39 42 42 42 42 43 43 45 42 39 40 35 31 30 20 12 13 12 10
56 56 57 59 59 60 59 60 60 60 59 60 63 62 61 59 56 55 56 56 54 51 49 47 46 42 39 39 35 35 34 36 34 34 28 26 26 23 23 23 13 10 10 6 6
62 64 64 66 67 67 66 67 67 65 64 64 65 66 66 67 63 62 60 62 61 57 54 50 49 49 45 42 38 36 39 39 36 33 31 27 23 22 22 19 14 13 12 8 11
65 66 65 67 69 71 72 73 74 75 73 73 72 72 70 71 69 68 68 67 66 63 57 53 52 53 51 47 47 44 51 45 41 38 34 29 25 22 20 18 17 15 14 9 10
67 69 70 73 74 76 78 80 81 81 80 81 80 81 79 77 76 74 75 74 71 67 62 62 59 52 57 58 57 52 52 48 43 41 37 34 28 24 22 20 18 14 13 7 7
57 59 59 62 64 67 72 77 82 85 87 86 86 87 87 85 85 82 81 80 76 72 72 66 59 66 64 60 59 56 55 53 51 46 43 37 34 27 24 20 17 16 13 11 2
58 60 62 63 64 67 69 74 77 77 80 85 88 93 95 94 92 92 90 86 83 79 76 72 73 70 69 66 63 60 59 61 61 52 50 43 40 31 27 23 22 18 17 13 6
57 60 61 63 63 67 70 74 78 83 85 87 87 88 93 101 101 99 96 97 91 87 83 79 79 74 75 68 65 64 65 67 69 59 54 49 43 37 28 28 24 21 17 17 12
57 61 64 67 72 76 76 78 83 85 86 90 90 94 96 96 101 106 104 102 101 97 92 81 83 80 78 74 71 71 70 70 72 65 61 52 47 41 33 31 31 28 24 19 16
61 66 69 72 76 81 82 83 82 84 86 87 91 94 98 97 100 103 108 109 108 104 100 92 90 87 82 82 80 82 75 73 76 72 61 52 45 45 38 42 35 29 27 22 20
61 67 72 78 83 86 88 88 86 86 87 85 87 88 92 96 99 100 107 109 112 111 107 102 96 94 89 89 86 82 81 74 76 71 47 49 43 42 47 43 36 34 34 27 25
67 74 77 81 83 86 85 85 84 85 87 89 87 85 84 88 94 98 102 110 111 112 113 108 105 104 95 90 89 85 86 77 72 62 51 50 40 40 52 48 39 37 34 28 29
73 75 78 80 79 78 78 78 78 78 78 77 76 75 73 75 82 92 97 105 111 110 114 115 109 110 103 99 99 92 85 78 78 71 62 56 47 48 54 47 46 43 35 33 32
75 77 74 70 71 72 70 65 59 58 57 57 60 63 65 67 73 80 91 99 107 111 111 115 116 114 110 106 104 97 89 90 80 72 65 59 52 52 56 53 51 47 40 37 37
71 70 66 68 67 62 57 52 51 47 47 50 53 56 59 62 66 75 82 92 103 109 112 112 114 117 115 112 106 102 99 91 82 79 69 62 55 58 61 60 55 53 50 44 39
62 64 64 59 52 47 42 42 42 44 44 45 49 52 58 59 62 68 76 85 97 109 109 112 113 117 119 116 113 109 104 96 90 75 69 65 64 66 67 63 62 58 54 46 43
59 55 47 42 38 37 35 35 38 40 43 44 44 48 52 59 62 63 67 78 88 102 109 110 111 116 120 123 119 114 109 102 89 84 78 71 64 70 68 63 64 62 54 48 44
52 42 36 34 34 33 33 35 39 41 44 47 45 43 48 55 58 60 63 70 81 91 102 105 110 114 120 125 122 116 112 104 95 88 80 73 70 74 72 65 67 64 57 51 46
44 36 33 30 26 27 32 38 41 47 46 47 43 42 42 48 51 54 55 58 73 80 88 97 103 112 120 124 122 122 112 105 98 91 82 76 72 78 75 69 69 65 57 50 47
35 32 28 25 27 31 33 37 42 47 50 46 40 38 33 39 40 46 48 51 66 73 81 88 96 109 117 124 122 121 116 108 99 92 85 81 78 81 81 72 68 60 52 50 51
32 30 28 30 36 40 44 47 45 48 46 34 35 32 30 28 30 31 38 41 56 68 74 82 94 106 115 120 121 118 115 109 99 93 90 87 87 84 83 76 65 59 54 55 54

GFSSW_250_spd_057.txt.gz
Wind_Speed
43 43 43 42 40 40 38 34 31 30 29 25 22 20 20 18 26 37 43 41 40 37 36 35 32 29 27 24 24 26 24 22 20 21 19 19 16 21 18 21 21 27 28 29 31
48 48 48 48 46 43 41 40 38 35 33 33 28 26 24 24 24 29 39 43 44 43 40 37 36 35 33 31 28 24 25 24 23 22 22 21 21 18 21 25 26 29 31 31 37
48 47 46 45 45 45 44 43 42 40 40 37 36 32 31 29 29 30 30 41 46 48 47 43 40 38 35 33 31 27 27 25 25 24 23 25 24 22 22 19 23 28 26 28 40
50 50 50 49 48 47 46 46 44 42 41 41 40 38 35 35 35 35 33 32 37 46 51 50 45 42 41 38 37 34 32 29 30 28 28 26 26 26 25 26 29 25 32 34 43
51 52 52 51 51 50 49 48 47 45 44 43 43 42 39 39 41 39 40 37 35 39 45 52 53 49 48 44 41 37 38 35 35 34 34 32 32 30 29 29 29 29 31 33 23
51 52 53 54 53 53 52 50 50 49 48 47 47 45 45 42 45 45 44 44 41 39 39 42 49 50 48 50 48 46 45 43 40 39 38 37 37 35 33 34 31 32 29 21 14
51 52 53 54 54 54 55 55 54 53 53 52 52 51 50 48 47 49 49 50 47 45 43 43 43 46 48 46 48 50 50 49 46 44 42 40 40 39 38 35 33 25 16 10 7
56 55 57 58 58 58 58 58 57 56 56 57 57 57 56 55 55 53 54 54 54 50 49 45 43 42 41 42 39 42 44 49 48 46 42 39 37 36 34 28 22 18 11 8 7
63 63 65 67 67 66 65 64 63 61 60 60 61 61 61 61 59 60 59 58 59 57 54 51 48 46 45 44 39 37 39 43 42 43 39 35 30 24 21 17 15 15 11 7 7
66 65 66 67 69 70 69 70 71 70 69 69 69 68 67 66 66 64 65 64 62 62 59 55 54 52 49 49 48 46 46 43 41 39 34 30 25 22 19 17 16 14 8 5 7
62 64 67 69 72 74 75 74 73 72 72 74 76 76 75 74 73 72 70 69 67 65 64 64 59 57 62 56 53 50 48 43 40 37 32 30 25 23 20 18 14 11 8 8 8
62 63 63 63 65 66 70 72 74 76 75 78 81 80 80 81 81 81 80 77 73 70 69 68 61 70 64 60 58 53 52 51 46 43 38 34 30 24 23 17 16 15 13 11 7
59 62 63 66 67 68 69 70 69 70 70 70 74 79 83 86 86 86 86 86 83 78 74 71 73 73 71 67 62 59 57 60 56 50 46 40 34 29 26 24 21 17 15 11 8
64 65 64 65 64 65 65 68 69 72 73 74 77 82 82 81 82 88 90 92 91 89 85 78 78 77 75 72 68 63 66 67 64 55 53 46 40 34 28 26 21 21 17 16 12
65 68 68 69 70 69 69 68 69 70 72 77 79 81 84 84 85 88 87 90 95 96 93 88 86 82 78 79 77 73 72 68 69 63 59 49 45 40 32 29 29 27 23 20 17
62 66 69 72 72 74 75 76 78 82 82 85 85 84 88 89 88 89 92 92 94 98 99 96 94 90 83 87 84 87 79 75 76 71 60 55 47 45 37 42 37 30 28 25 20
58 62 66 69 70 74 77 79 82 85 89 90 92 92 95 96 97 93 96 97 97 98 98 102 101 98 94 92 90 89 85 82 80 74 54 59 52 48 46 47 41 36 31 28 22
66 67 69 72 75 78 79 80 81 82 85 88 92 94 95 99 100 101 98 99 100 101 102 101 107 104 103 98 94 93 91 86 80 72 62 63 52 49 51 53 46 40 37 29 28
71 73 74 75 76 78 79 80 79 79 79 79 80 82 84 87 88 90 93 96 100 100 105 105 104 108 109 107 105 97 92 85 87 80 69 63 58 57 56 56 49 43 40 36 34
65 67 67 69 70 68 67 66 68 71 73 75 77 77 76 78 79 79 81 87 94 100 103 107 107 109 113 113 112 105 95 102 91 84 72 68 61 59 63 62 55 51 44 43 40
48 52 53 56 58 60 62 63 63 63 63 63 64 65 67 68 71 71 70 75 85 96 104 106 107 110 113 117 116 110 109 102 93 86 77 70 63 64 62 67 63 56 53 49 44
45 50 53 55 54 51 51 50 50 49 51 50 53 56 61 63 65 66 67 72 77 87 100 107 106 110 113 117 121 118 114 107 100 86 79 75 68 74 69 66 66 59 56 51 46
48 50 48 46 44 37 34 34 35 39 43 49 52 55 58 62 62 64 67 71 74 81 90 102 107 108 114 119 123 125 118 113 102 92 85 79 71 78 75 71 68 63 59 53 48
44 43 41 38 33 32 32 34 37 42 47 51 53 55 57 58 60 62 64 65 71 77 84 94 103 109 114 121 125 125 123 117 108 99 88 81 78 82 80 75 71 68 61 53 48
38 35 32 28 28 33 36 38 42 45 46 48 53 54 55 53 51 50 54 60 66 69 79 85 94 104 114 117 121 123 123 117 109 101 91 83 78 83 81 81 77 71 62 55 47
33 30 27 28 29 34 39 40 40 45 45 47 46 46 47 44 40 39 45 50 56 59 68 78 86 98 108 115 118 123 124 121 112 104 95 87 82 85 85 83 78 69 62 55 48
30 26 26 30 33 38 42 44 45 50 46 43 38 37 35 36 37 35 35 42 47 51 59 70 78 89 102 111 113 118 119 117 113 104 100 92 87 86 89 85 81 72 64 58 50

GFSSW_250_spd_060.txt.gz
Wind_Speed
43 42 42 42 41 40 39 37 33 32 28 24 21 22 22 20 24 37 42 42 40 38 36 33 30 31 29 26 24 23 26 25 22 23 23 22 20 18 15 17 20 23 25 30 31
44 44 45 45 45 44 43 42 40 36 35 31 27 26 27 27 27 26 36 45 44 43 42 39 34 33 34 31 28 24 23 27 25 22 22 20 20 16 17 19 19 20 25 27 30
46 46 47 46 46 45 45 42 40 38 37 36 34 31 32 32 32 32 30 36 44 48 47 44 40 36 35 33 29 27 24 24 25 24 23 21 20 20 20 20 21 24 26 27 30
47 48 48 48 48 46 45 44 42 42 41 39 38 37 36 37 38 37 35 32 36 45 50 47 45 43 39 37 36 33 31 29 26 26 26 24 23 20 20 23 23 25 27 28 29
49 49 50 51 51 50 49 48 46 45 44 43 42 40 39 40 40 43 42 38 37 38 44 50 49 47 45 41 39 39 36 35 33 31 31 29 28 26 25 26 27 27 29 31 28
50 51 52 53 54 54 53 52 51 49 48 47 45 45 44 42 44 45 47 45 42 42 40 46 51 52 52 49 46 45 42 41 39 36 35 34 31 30 29 29 30 30 32 29 18
50 52 53 53 54 54 54 54 54 54 53 52 51 50 48 47 45 47 49 51 48 47 45 42 46 48 50 53 54 52 49 47 44 39 39 38 35 34 32 32 34 33 32 22 11
57 57 58 58 58 58 57 57 56 57 56 56 55 55 54 53 52 50 51 52 54 52 49 48 45 44 47 45 47 50 53 54 50 47 45 41 40 38 36 34 32 30 25 11 8
63 64 66 66 66 64 63 62 60 59 59 60 59 59 58 58 58 57 56 55 55 56 55 52 50 48 47 46 42 44 50 54 53 52 49 46 44 41 34 31 29 21 14 9 6
64 65 66 67 68 68 68 68 69 69 68 66 65 65 63 63 63 62 61 60 59 59 58 56 55 54 52 49 48 48 53 54 54 54 51 48 45 38 29 23 17 16 13 12 7
64 62 63 65 69 71 71 72 71 71 71 71 71 73 71 70 69 68 65 64 64 62 62 61 59 59 62 57 51 50 49 48 44 42 41 38 34 27 22 20 18 17 15 13 7
65 63 62 65 69 70 70 71 73 74 74 76 76 76 75 76 77 76 74 70 69 67 66 64 63 67 65 61 58 54 52 50 47 41 37 32 29 25 24 21 23 20 20 15 8
65 66 65 67 67 69 71 73 74 72 70 71 75 79 80 81 81 80 80 80 78 74 72 69 70 70 69 67 64 61 57 57 55 48 41 34 31 31 28 26 26 20 19 13 8
67 68 67 68 69 71 72 72 73 75 77 76 76 76 76 78 80 84 84 84 84 83 81 76 74 72 73 71 69 67 66 63 61 55 49 42 38 34 30 30 26 23 18 17 12
64 67 69 69 69 72 74 76 77 75 76 74 77 82 83 81 80 78 80 85 88 87 86 85 84 79 76 76 76 74 75 68 68 62 57 46 41 38 34 31 30 29 21 19 16
64 65 65 66 67 69 72 76 78 79 79 81 80 81 82 84 87 86 86 84 84 85 89 92 90 87 85 82 80 83 82 76 76 71 62 52 45 43 38 38 39 32 26 24 22
72 73 73 73 70 71 72 74 77 79 81 84 85 86 86 86 86 86 88 90 90 89 90 92 93 95 92 91 88 85 85 83 83 77 58 59 53 49 46 46 44 37 31 28 24
72 74 76 75 77 75 79 81 80 80 82 83 86 89 91 93 93 94 93 93 92 92 93 94 94 96 98 95 96 94 91 86 85 81 64 68 57 56 54 52 48 42 37 32 31
51 55 58 59 62 67 72 77 79 81 82 85 86 87 91 93 95 99 100 101 100 100 99 95 98 96 98 99 102 99 101 85 91 90 78 73 66 63 61 58 54 48 41 37 36
38 39 40 44 47 52 56 60 66 70 73 77 82 85 88 93 98 99 100 99 99 101 104 103 104 101 100 101 101 108 100 101 95 92 84 78 71 63 65 65 61 55 46 45 42
37 37 40 42 44 46 49 52 56 60 63 66 70 72 77 80 83 89 92 91 98 99 101 100 106 110 103 101 104 107 109 109 102 93 87 83 75 71 70 73 65 61 56 55 51
42 42 44 46 46 46 46 47 50 53 56 59 63 67 70 73 75 78 80 85 87 92 94 93 99 108 109 112 108 107 111 114 110 96 90 90 86 76 73 74 69 67 62 60 56
41 39 39 38 38 38 39 41 42 43 45 47 52 57 60 63 66 69 73 73 76 81 84 89 95 100 107 114 116 116 117 116 116 108 98 94 85 76 76 77 75 73 66 63 60
34 35 34 33 32 33 33 33 34 36 41 46 49 53 57 62 64 66 68 66 68 70 75 80 86 94 105 116 119 117 120 120 116 109 100 96 90 84 83 81 81 77 72 65 61
32 29 28 28 29 29 31 33 33 36 39 44 46 56 60 60 59 58 59 60 64 64 69 76 79 86 98 109 113 115 116 116 115 112 107 101 92 87 89 89 82 81 76 67 64
28 26 25 26 28 29 32 32 33 35 38 36 42 46 44 44 46 47 47 50 54 57 65 70 74 81 90 103 110 113 116 119 118 110 110 104 95 93 95 86 83 78 76 71 66
29 28 27 28 29 32 33 32 35 39 39 41 34 37 32 34 33 33 35 39 46 51 60 63 68 74 88 98 103 108 110 114 117 112 113 107 100 97 94 91 89 82 81 75 70

GFSSW_250_spd_063.txt.gz
Wind_Speed
42 43 41 40 39 38 37 36 35 33 28 25 23 22 22 26 35 39 40 41 40 39 36 35 33 30 29 24 25 25 25 23 22 19 19 22 19 19 22 22 18 22 24 26 30
39 41 44 43 42 42 41 39 39 38 35 31 29 28 28 29 34 36 43 44 45 42 41 39 38 34 31 29 27 24 23 25 23 24 29 26 24 23 22 21 19 20 23 26 28
40 41 42 42 43 43 44 43 43 43 41 39 35 34 34 33 36 37 41 40 46 48 45 42 41 39 38 31 30 28 25 23 25 26 28 24 23 20 19 20 21 22 25 27 29
44 44 45 45 44 45 46 46 46 44 42 40 38 35 37 38 39 40 38 40 45 47 49 47 45 43 42 37 34 33 30 28 26 22 26 25 25 21 18 21 20 23 25 28 30
50 49 49 48 48 48 47 47 47 46 44 43 42 41 39 39 42 44 43 41 44 45 49 51 50 48 45 43 40 38 37 35 32 28 27 28 24 24 22 23 25 26 26 28 30
53 53 53 53 53 52 51 51 50 50 49 48 47 45 44 41 43 45 48 46 46 46 46 51 49 51 51 48 48 45 43 40 37 34 31 29 28 28 27 26 27 28 28 30 29
54 55 55 55 55 56 56 55 54 54 54 52 51 50 48 47 45 45 48 51 51 50 48 45 48 49 52 52 52 51 48 45 42 37 35 33 32 30 30 28 28 28 30 30 28
62 62 62 61 58 58 58 57 57 57 57 57 55 55 53 52 51 49 49 51 53 54 53 51 48 47 49 50 54 55 53 50 47 43 40 36 34 33 34 32 29 30 31 27 21
64 64 66 67 67 66 65 63 62 61 60 60 60 59 57 57 55 54 53 52 56 56 56 57 54 52 48 50 49 52 58 55 50 47 42 36 32 38 31 27 34 34 30 27 13
63 64 67 68 69 68 68 69 69 68 67 66 64 64 62 62 60 59 58 58 56 58 58 59 59 57 54 51 50 52 57 57 56 54 49 43 33 23 46 47 42 37 29 18 13
69 67 66 68 68 68 70 72 71 71 74 73 72 70 68 66 65 63 63 63 61 60 61 62 61 60 63 59 55 51 52 53 53 49 47 44 35 27 37 38 42 33 22 18 14
73 72 70 69 69 70 70 70 70 72 75 75 75 76 76 75 73 70 68 66 65 65 65 64 62 66 67 64 60 54 54 54 52 48 46 43 40 46 47 38 31 27 24 19 15
71 74 75 73 72 71 71 71 71 72 73 74 76 78 80 79 78 79 78 74 72 70 68 67 70 70 68 67 64 61 61 59 55 49 46 42 36 32 17 30 31 29 24 19 16
70 70 71 76 76 74 74 73 73 74 76 71 73 75 77 79 81 82 81 81 80 79 75 72 73 73 71 69 70 68 68 64 61 51 48 43 38 29 34 32 33 29 24 20 19
67 68 68 68 70 76 76 76 76 75 80 73 75 76 76 80 76 80 83 85 85 83 81 80 79 75 75 74 73 72 73 70 67 58 55 46 40 38 35 35 34 31 27 23 19
67 69 68 68 69 70 71 73 76 78 83 77 79 81 81 79 78 80 82 82 84 87 87 86 87 83 82 79 77 77 76 76 72 69 57 53 47 42 37 36 38 35 29 27 23
52 63 70 73 73 72 72 73 73 78 75 74 80 83 84 84 85 83 83 86 87 84 85 89 91 90 89 86 85 80 80 78 79 77 60 61 54 48 45 44 43 41 35 32 27
43 49 56 59 64 67 70 76 78 77 79 79 78 80 83 83 87 89 89 90 88 88 91 88 88 93 93 91 90 88 86 82 79 79 66 69 58 53 54 51 47 45 39 35 30
28 34 40 47 53 58 62 67 71 75 79 81 83 85 87 83 87 86 92 95 92 90 91 92 93 90 90 94 95 89 96 83 84 83 78 75 72 64 62 58 55 47 45 38 39
33 33 33 36 41 46 48 53 57 60 65 70 77 83 88 89 91 90 92 91 93 96 98 97 93 98 95 93 91 98 94 95 93 87 81 82 78 68 67 64 62 59 52 50 47
37 36 36 39 41 43 45 47 49 51 53 57 61 66 74 83 87 92 92 93 94 96 101 103 97 98 97 93 97 99 96 103 100 95 87 84 82 78 74 71 69 65 63 57 55
34 34 36 37 38 40 42 45 48 52 55 57 61 64 66 71 75 81 89 91 89 96 99 103 100 105 102 99 103 105 101 104 107 101 94 89 91 86 83 77 73 74 69 63 60
29 29 30 32 33 35 36 38 39 40 43 46 52 57 61 68 74 78 81 85 82 89 100 101 93 100 108 107 108 104 101 103 100 103 102 97 91 91 89 82 77 78 73 69 65
27 27 27 27 27 27 28 32 33 35 35 39 44 50 55 61 66 70 76 78 80 87 87 91 94 96 104 111 117 113 111 111 112 107 106 102 101 99 91 85 81 83 79 76 72
30 26 23 23 23 24 26 28 29 29 33 38 42 47 53 56 60 60 62 64 68 75 79 86 88 93 97 106 108 108 108 112 106 107 106 107 109 102 95 91 88 92 85 83 76
33 29 25 23 23 23 25 25 25 28 32 36 39 43 42 46 52 59 59 54 57 61 69 73 77 88 91 99 99 102 109 111 112 106 108 105 106 108 104 98 99 99 95 81 75
34 31 27 25 25 27 26 25 25 26 27 30 39 42 39 40 40 43 48 51 50 51 60 67 70 78 83 94 97 102 104 108 113 113 110 109 104 111 108 102 103 102 93 81 80

GFSSW_250_spd_066.txt.gz
Wind_Speed
38 40 40 41 41 40 37 36 33 32 29 26 24 22 23 26 39 42 42 38 39 37 35 33 33 30 29 25 23 25 24 23 20 11 23 18 22 25 23 22 25 26 24 24 30
38 39 39 39 41 42 41 40 39 36 35 32 30 28 29 30 32 44 43 45 42 41 39 38 36 34 33 32 27 25 26 26 24 25 25 25 21 23 24 25 25 20 20 23 29
40 40 39 39 39 40 42 44 43 41 40 38 36 34 32 34 36 37 45 46 47 45 44 42 40 38 34 32 32 26 24 18 25 23 25 24 26 26 24 25 25 21 21 26 29
47 46 44 43 42 43 42 43 45 44 44 43 41 39 39 38 41 39 41 48 48 49 49 46 44 42 39 37 37 31 26 27 29 25 23 19 26 23 20 23 20 17 24 27 29
52 52 50 49 48 46 46 47 45 46 47 47 46 44 44 42 44 44 44 47 50 52 51 51 49 46 44 42 40 39 36 34 32 28 24 15 7 12 16 17 23 26 27 27 29
55 56 55 54 53 52 52 51 50 49 48 48 49 47 45 43 45 47 48 48 50 51 54 53 52 52 49 48 46 43 40 36 37 32 29 21 28 23 22 29 28 25 23 25 29
61 61 60 60 59 58 56 56 55 54 52 52 51 50 49 49 47 47 49 51 52 53 54 57 55 55 53 52 50 47 43 40 37 35 30 30 32 28 21 26 26 23 24 24 28
68 67 66 64 62 61 59 58 58 59 58 56 55 55 54 53 52 50 50 51 53 54 56 54 55 56 53 53 55 52 49 47 43 38 37 31 27 25 24 34 25 27 29 26 29
68 68 71 70 68 67 66 64 62 60 59 60 60 58 57 57 56 55 53 54 53 54 57 58 57 55 54 50 53 55 54 51 47 45 40 35 30 28 33 31 34 32 25 26 26
71 69 71 72 72 71 70 70 70 68 66 64 62 62 60 60 60 60 59 57 57 55 56 60 61 58 55 53 54 53 58 54 51 49 44 38 32 24 26 26 30 28 37 25 24
73 73 72 73 73 72 73 73 72 72 74 72 70 68 66 64 63 62 62 61 60 58 59 61 62 62 64 61 57 54 54 52 53 52 48 44 36 33 38 36 44 32 25 22 20
79 74 74 74 74 75 74 74 74 73 74 74 74 75 74 71 70 67 66 64 64 63 63 63 61 66 67 66 61 57 56 54 53 53 51 49 44 38 31 25 24 37 30 26 14
74 76 71 73 76 76 77 76 75 75 75 74 76 76 75 77 75 74 73 69 68 68 66 65 68 68 67 67 67 63 61 60 56 53 51 49 45 41 41 25 30 39 33 23 19
59 66 72 72 73 77 79 79 78 77 78 76 77 73 77 78 79 76 77 76 75 73 71 69 71 71 70 67 68 67 68 65 60 54 50 49 46 43 35 32 39 29 40 26 24
43 54 63 66 71 73 76 77 79 80 84 75 73 77 76 79 74 79 79 79 80 80 78 75 74 73 72 72 71 69 72 70 67 60 53 47 44 44 41 42 52 30 29 26 25
32 38 47 56 65 69 72 73 73 78 86 79 78 79 79 80 79 76 81 81 82 83 83 82 81 78 75 75 75 76 72 73 70 68 56 50 45 42 40 51 44 37 35 29 27
30 30 34 46 54 60 66 69 71 76 76 75 77 80 83 82 80 81 81 81 82 84 85 87 86 85 84 81 79 78 76 75 74 75 58 59 52 47 45 58 47 33 33 32 30
33 30 29 33 44 53 60 69 74 77 73 71 77 76 81 84 85 83 83 86 87 86 85 86 87 92 89 87 86 83 81 81 76 72 63 68 57 53 52 50 56 46 23 41 32
34 33 32 32 33 40 48 60 69 76 78 79 78 78 78 77 82 83 88 90 92 87 85 85 88 91 92 93 92 88 90 79 80 78 72 74 68 64 61 59 57 54 45 42 38
31 31 33 35 36 38 39 44 51 64 72 76 80 80 83 86 83 83 86 91 94 85 87 93 88 92 91 94 91 97 87 91 88 82 75 76 74 70 67 63 60 56 53 45 44
29 26 27 33 39 42 43 44 46 49 54 60 64 69 76 83 84 90 92 94 93 90 88 94 94 96 96 89 89 90 93 98 95 91 81 78 76 75 74 70 68 62 61 53 49
29 25 25 25 29 36 42 45 49 52 54 57 58 60 62 68 75 81 89 96 94 94 92 96 96 94 98 94 95 97 95 101 104 98 92 86 82 82 80 78 73 70 67 56 65
33 25 23 23 25 29 32 36 39 44 49 54 59 62 65 68 70 73 78 86 87 92 99 100 102 101 100 102 103 98 94 100 100 101 99 93 87 84 88 86 80 77 73 76 67
37 29 26 24 23 25 28 32 35 38 40 44 49 55 60 64 68 74 79 80 82 84 89 97 105 105 103 104 115 110 104 107 106 102 101 97 94 95 93 92 89 84 80 74 72
38 30 27 25 24 25 27 29 31 32 35 39 44 46 51 54 59 65 71 77 79 82 82 88 95 102 103 107 113 112 107 107 102 101 98 96 100 98 100 99 97 92 89 89 88
41 36 29 24 23 23 24 26 28 29 31 35 37 40 45 47 53 55 61 65 69 75 76 83 87 93 98 103 111 107 107 106 109 100 102 98 106 107 110 103 99 97 98 96 97
45 39 30 25 23 23 23 24 25 29 31 32 33 36 37 40 45 49 54 58 59 58 62 72 76 85 90 96 108 111 108 107 108 107 104 104 99 105 112 111 105 102 102 100 96

GFSSW_250_spd_069.txt.gz
Wind_Speed
35 36 36 38 39 41 41 39 35 33 30 28 26 24 23 32 37 44 45 42 39 37 35 35 33 33 31 30 26 27 24 16 12 4 7 11 12 22 25 20 23 22 20 21 28
38 37 36 37 39 40 41 43 41 39 37 34 32 31 29 30 37 44 47 46 43 41 38 37 34 32 32 33 30 27 27 21 20 20 13 11 15 25 21 25 24 19 16 22 28
43 42 41 40 39 40 41 42 43 45 43 40 37 36 35 34 37 41 47 50 48 45 42 40 38 36 33 31 32 29 27 29 25 14 19 10 16 18 30 23 23 11 11 26 27
51 49 46 45 44 43 42 42 41 45 46 46 44 42 40 40 40 40 46 49 52 50 47 45 42 41 38 35 32 32 29 31 26 24 17 9 15 20 25 13 7 15 16 25 25
59 57 54 52 49 48 48 46 44 43 44 48 48 47 46 44 46 42 43 49 54 54 53 49 47 45 43 41 37 38 35 34 28 26 25 20 21 21 17 21 15 17 18 22 23
65 64 61 59 58 55 53 52 50 48 47 46 49 50 49 49 51 49 47 48 51 55 55 55 52 50 47 45 43 39 36 36 35 37 20 22 23 6 14 27 16 24 23 18 22
71 70 67 63 62 61 60 58 56 54 52 50 50 50 52 55 52 52 51 50 52 53 60 57 55 55 53 50 48 45 42 40 38 38 34 24 21 17 7 20 30 31 22 18 27
72 74 73 71 68 67 65 64 62 59 58 56 54 54 54 55 56 54 54 52 54 55 55 58 58 57 56 54 52 49 46 43 41 38 36 32 26 29 26 28 26 21 23 24 29
77 76 75 74 73 73 71 70 68 66 64 62 60 58 58 56 57 57 56 56 55 57 58 57 60 59 57 57 57 55 53 49 44 42 39 35 33 32 28 23 25 25 22 22 23
75 76 77 79 76 75 75 74 72 71 70 66 64 63 62 61 61 60 59 59 58 58 58 60 60 59 58 59 61 58 56 52 49 48 44 40 35 37 34 33 28 28 21 25 24
74 73 77 78 80 79 76 77 75 74 76 72 69 66 63 65 64 64 63 62 62 60 60 59 59 61 62 60 60 61 59 56 53 52 48 45 42 38 40 30 16 20 28 22 15
54 70 79 81 79 81 80 77 78 77 77 77 77 73 70 68 67 65 65 65 64 63 64 61 59 63 64 64 62 59 58 58 58 56 54 50 47 44 42 32 27 19 31 30 25
34 40 55 73 79 80 82 82 77 78 79 78 78 79 76 77 73 70 68 67 66 66 66 65 67 68 65 65 65 63 60 60 58 57 54 52 52 48 43 36 30 27 29 28 22
30 31 35 45 62 75 79 82 79 76 80 77 79 77 81 81 80 76 76 73 71 69 68 67 71 69 68 66 66 66 66 64 60 54 50 51 50 50 47 41 35 30 38 40 30
32 29 29 33 42 56 70 77 81 80 79 77 77 79 80 82 79 80 80 80 79 77 73 70 71 69 70 70 68 67 70 69 65 57 53 48 46 51 49 48 45 43 35 26 29
31 30 29 29 32 44 58 71 75 81 82 77 79 81 81 81 81 79 81 83 83 83 81 78 75 72 70 72 71 71 70 71 69 64 56 52 48 46 49 48 47 38 41 31 29
34 30 30 30 28 33 45 59 73 79 78 77 76 79 82 83 81 81 82 83 84 85 85 85 83 81 78 76 75 74 74 72 71 69 58 62 56 51 51 49 52 47 40 36 28
34 30 29 30 30 29 34 48 61 68 67 69 72 78 82 82 83 83 83 84 87 87 85 87 86 87 88 82 80 79 79 76 73 68 64 71 60 57 56 51 52 60 48 31 23
34 26 26 29 31 32 31 36 47 53 63 68 69 74 78 80 82 83 85 87 91 85 82 81 83 87 88 89 88 84 79 75 77 75 73 72 66 63 58 53 52 60 55 41 34
36 27 23 24 29 33 33 36 39 47 54 62 66 69 76 75 77 78 83 91 88 83 83 83 86 89 89 88 86 88 84 87 82 77 74 72 69 67 67 59 58 59 55 51 44
40 29 24 21 23 26 36 40 41 41 45 53 62 69 75 76 75 78 84 84 83 82 85 90 89 91 90 88 93 95 95 96 89 82 76 75 70 72 75 69 65 65 56 58 57
42 31 23 21 20 22 27 36 43 45 46 47 50 58 69 78 81 85 90 84 84 84 85 88 93 95 96 93 93 91 93 96 96 90 85 79 71 76 80 80 69 67 62 62 52
47 33 23 19 19 21 25 30 37 44 51 53 54 56 58 62 69 77 89 90 91 92 93 91 93 95 97 100 101 101 97 98 101 97 91 88 77 87 86 84 77 72 71 77 61
48 36 26 22 19 18 20 25 33 39 44 48 54 58 61 63 67 69 73 78 81 86 94 98 100 100 98 101 107 103 101 102 103 102 96 93 85 90 92 89 86 82 79 77 75
50 33 27 23 19 18 19 21 24 30 35 40 46 52 57 63 66 69 71 74 76 79 84 91 99 106 108 107 113 109 105 102 104 99 96 97 91 99 98 96 93 91 85 77 78
49 33 28 23 19 18 20 22 23 26 30 35 39 44 48 51 55 60 65 71 75 78 82 84 88 93 98 108 115 110 110 109 106 100 94 95 94 111 109 101 94 95 91 84 77
48 34 28 19 15 17 20 22 24 26 29 32 35 39 41 44 43 47 53 59 64 70 73 78 81 88 85 96 107 111 106 109 106 102 100 100 102 110 111 108 104 98 96 92 88

GFSSW_250_spd_072.txt.gz
Wind_Speed
40 39 38 37 36 36 37 38 38 37 34 31 28 25 26 33 45 51 47 45 42 43 43 44 42 40 36 31 27 23 23 22 8 9 12 9 12 2 17 14 23 20 12 23 28
45 44 42 40 37 36 36 37 40 41 40 37 35 32 30 34 37 48 49 49 45 42 42 41 40 41 38 35 32 28 28 26 19 13 11 4 12 22 20 16 19 9 12 18 28
49 48 47 45 44 41 38 37 39 42 44 44 41 38 37 36 40 44 52 50 49 47 43 41 42 42 40 38 35 31 33 31 25 22 20 18 8 20 14 12 12 3 19 17 25
57 55 53 50 48 46 44 42 41 42 44 47 47 45 42 40 39 44 47 50 51 50 47 45 43 43 41 39 38 35 33 36 31 24 16 19 7 18 9 9 13 9 15 21 22
66 63 62 60 57 54 51 47 46 45 45 46 50 51 48 47 44 46 48 53 55 53 50 49 48 46 44 41 41 40 39 36 33 28 25 13 19 17 23 9 12 21 12 24 20
72 71 69 68 66 63 60 55 52 51 48 47 49 53 54 54 50 48 49 53 56 57 57 55 51 47 46 44 44 40 39 39 35 35 32 26 29 21 18 15 20 21 22 20 19
74 74 74 72 72 71 67 64 60 56 55 53 50 51 58 58 55 54 52 53 56 58 60 59 56 54 51 51 47 42 42 43 40 35 33 32 30 20 9 5 15 17 20 15 18
71 72 74 75 75 75 73 70 67 64 60 59 58 55 54 57 59 59 57 57 57 58 61 61 60 58 58 54 51 50 48 47 44 41 38 34 23 20 25 25 23 13 17 18 24
64 74 74 73 76 77 76 75 72 69 66 64 63 62 59 58 60 60 62 61 59 61 59 58 62 62 61 59 58 55 54 52 49 44 45 47 43 34 29 28 28 19 21 16 17
50 64 76 76 75 76 77 76 76 74 72 70 68 67 65 65 62 61 63 64 65 62 60 59 59 60 63 64 64 61 57 54 51 49 45 45 47 42 40 36 32 28 23 23 18
39 42 53 73 79 76 73 78 79 78 78 76 74 70 70 70 68 66 64 64 65 64 64 63 61 61 63 66 66 64 61 60 57 56 49 45 43 41 39 41 36 32 26 23 18
35 36 37 46 63 78 75 76 78 80 80 81 79 77 76 73 72 70 68 67 65 65 66 63 63 67 65 64 65 64 62 62 62 59 54 51 50 47 41 42 38 36 30 22 17
33 33 34 36 45 60 80 80 79 82 83 83 83 82 79 79 75 75 73 71 69 67 67 66 69 68 67 65 63 63 63 66 64 59 57 53 52 50 47 43 41 38 34 24 25
33 34 32 33 37 45 56 71 83 82 83 85 85 83 87 84 80 78 76 75 75 73 71 68 70 69 67 67 67 65 65 65 65 59 58 56 56 55 51 48 47 44 38 33 30
33 33 32 32 34 39 43 54 71 81 82 81 84 85 87 87 83 83 81 78 77 76 73 71 72 71 70 69 67 69 69 68 66 59 55 53 54 58 56 55 53 51 43 34 29
35 33 31 32 34 36 39 44 57 71 81 85 85 86 86 86 86 86 88 86 82 80 77 77 76 75 74 72 68 70 68 70 68 62 57 56 53 52 58 59 58 53 48 40 34
41 32 27 28 33 36 38 36 43 57 71 80 84 84 86 86 86 88 88 89 89 85 81 78 77 77 78 77 76 75 73 72 70 67 62 64 57 55 58 60 61 58 52 46 41
46 36 26 24 29 34 36 37 37 45 57 72 80 85 85 83 86 89 90 90 87 88 86 84 83 82 76 75 76 75 77 75 71 68 68 71 61 60 61 56 56 59 54 54 51
50 40 27 21 22 30 36 39 37 40 54 69 77 83 84 85 84 87 90 88 87 86 85 86 89 87 84 83 79 79 77 77 75 73 72 72 67 69 69 62 58 57 57 56 49
53 45 29 21 19 25 33 34 35 35 44 57 71 78 80 85 87 87 84 84 86 86 84 84 89 88 90 90 87 87 84 82 78 76 75 73 71 73 76 71 65 58 55 56 52
57 50 31 22 19 21 27 34 36 38 41 49 59 69 74 79 83 85 85 85 86 88 88 88 91 91 93 93 94 93 95 89 82 78 77 72 73 84 78 76 70 63 54 59 53
63 48 35 23 19 20 25 31 35 43 44 43 51 61 69 77 80 82 81 83 86 87 89 91 93 94 93 94 96 96 98 96 91 86 83 78 84 87 84 80 76 69 64 59 66
66 47 35 22 18 20 24 30 34 37 42 46 47 52 61 69 75 78 81 80 81 83 86 90 91 95 96 98 98 98 98 98 95 93 92 86 86 91 89 85 79 75 68 62 62
64 51 32 25 20 19 24 28 32 36 39 46 50 53 54 59 66 72 75 80 84 85 88 90 92 94 98 103 103 100 102 101 98 96 95 95 92 95 95 88 82 78 74 71 66
64 48 36 26 22 20 22 28 29 32 36 41 45 50 54 57 60 64 70 76 81 85 89 91 91 94 96 101 105 106 103 105 101 98 98 102 100 102 100 92 85 82 80 79 75
66 47 35 29 21 17 19 22 27 29 31 36 41 45 50 54 57 61 65 66 67 74 83 91 97 99 101 104 107 106 107 109 105 104 107 105 105 101 101 97 91 84 85 82 80
68 50 37 27 20 16 15 19 23 27 29 31 34 37 44 48 52 56 59 59 64 69 74 80 88 94 103 109 111 110 108 110 111 115 111 107 104 101 103 104 98 91 85 85 82

GFSSW_250_spd_075.txt.gz
Wind_Speed
46 46 45 44 42 39 37 36 36 36 37 35 34 29 27 35 51 57 55 54 54 51 48 46 43 40 38 35 31 24 20 18 16 8 8 8 8 7 12 9 21 26 15 21 27
51 49 48 47 46 43 40 38 37 38 39 40 39 36 32 33 42 57 59 55 54 53 51 48 47 44 40 38 33 27 25 29 13 12 12 2 3 10 11 14 26 20 16 22 24
55 54 54 52 50 48 45 41 39 38 42 43 44 42 38 35 39 49 59 58 54 53 51 50 52 49 46 41 35 31 30 30 22 15 13 12 7 12 13 21 20 18 17 22 22
64 62 62 59 57 53 50 48 44 41 42 46 47 47 45 42 40 45 55 60 58 55 50 50 51 50 48 44 39 36 32 34 29 26 18 19 18 12 22 17 16 15 13 21 23
67 69 69 66 64 61 57 53 50 47 45 46 50 51 51 48 46 44 49 58 62 59 55 52 53 51 51 47 44 40 38 36 35 31 29 24 22 18 22 17 12 14 14 25 20
65 65 68 70 72 69 66 62 58 53 50 49 51 55 56 55 52 49 49 55 60 63 59 57 52 49 47 48 49 44 41 41 41 39 32 24 18 16 21 11 13 14 15 17 11
65 64 61 63 70 74 74 71 67 63 59 55 54 55 56 58 58 56 54 54 59 62 64 58 56 55 52 52 46 46 47 45 44 44 39 32 20 25 21 23 18 20 16 10 9
59 58 61 66 65 69 73 76 76 72 67 64 60 58 57 61 62 61 60 59 58 63 62 61 60 58 55 53 52 51 50 47 48 44 39 40 34 32 22 16 21 17 17 10 10
48 49 49 56 68 68 70 74 79 79 76 73 68 63 62 63 62 65 66 63 61 60 61 61 65 64 60 59 57 56 53 49 48 46 42 37 36 40 33 24 31 21 24 15 15
52 44 41 44 58 73 76 76 80 82 82 80 75 71 67 66 65 64 69 69 66 62 60 63 67 67 66 65 63 60 56 53 52 48 46 43 39 39 34 29 31 27 25 27 21
70 49 40 38 41 52 69 76 78 81 83 84 82 77 74 72 71 68 67 70 69 68 65 65 65 67 70 69 68 64 62 59 55 51 50 47 46 45 44 41 39 36 32 28 23
70 67 39 36 36 39 52 66 79 80 84 85 84 83 80 77 75 74 70 69 70 71 70 68 68 69 68 69 69 67 68 65 61 56 53 51 49 48 46 48 44 41 39 35 28
68 63 37 33 36 38 41 51 69 85 85 86 87 88 85 81 80 78 77 73 72 70 72 72 75 70 68 66 67 68 72 70 65 60 58 55 55 53 51 48 45 42 42 38 29
70 51 34 31 35 37 40 44 55 76 85 85 89 89 91 87 84 82 81 79 77 74 73 75 75 73 70 69 68 66 71 72 69 65 62 59 58 57 53 53 50 47 44 41 36
71 44 31 32 33 36 40 42 47 60 79 86 86 91 91 92 88 86 84 83 81 78 74 75 76 76 74 73 71 73 71 69 63 65 64 61 60 61 60 59 57 52 47 44 40
69 39 28 27 30 35 40 43 45 52 64 84 88 90 92 91 93 91 89 87 84 81 80 79 77 77 78 76 72 74 73 72 66 61 61 62 61 62 67 67 64 57 52 47 44
70 38 30 24 26 32 39 43 44 47 54 70 85 89 89 92 93 96 94 91 87 83 82 81 80 78 78 77 77 76 75 75 72 66 64 62 62 66 71 66 63 59 52 50 46
70 41 32 23 22 28 36 43 45 46 51 60 75 87 93 91 93 93 94 93 90 88 84 84 82 82 81 80 78 79 77 75 73 70 69 68 66 70 68 65 64 59 60 56 50
75 45 35 23 19 22 28 40 45 49 51 53 62 78 91 94 92 92 91 93 92 91 89 88 85 84 83 84 83 82 80 78 76 74 72 73 73 74 70 64 61 57 58 58 55
81 50 33 23 18 18 25 35 44 48 50 49 55 69 83 93 96 93 91 91 91 91 91 91 91 89 88 87 87 86 83 82 80 79 77 78 80 73 72 66 60 56 56 56 58
77 53 35 25 19 18 23 30 39 46 49 49 50 58 73 86 94 95 95 95 94 93 93 95 96 96 95 93 89 88 86 85 84 85 84 84 81 74 71 68 63 60 57 54 52
69 53 36 25 17 17 20 26 33 42 45 48 47 53 63 74 85 94 94 94 93 92 93 97 98 100 99 98 95 94 91 88 88 88 89 87 86 79 74 70 69 65 64 60 54
64 53 39 29 16 13 18 24 30 36 44 47 47 48 57 66 74 83 91 92 94 95 96 98 100 102 100 99 97 97 96 95 93 93 92 90 84 84 80 75 72 71 69 67 62
66 55 39 28 21 15 16 23 29 34 39 44 48 49 51 59 67 75 83 88 93 95 95 97 100 103 102 101 99 99 99 99 101 100 98 91 86 86 85 81 79 77 74 72 69
72 54 43 28 21 17 15 18 26 33 37 41 46 51 54 54 61 69 77 82 86 91 95 96 96 98 102 103 102 101 103 104 104 105 104 99 96 89 91 87 84 81 81 77 76
79 59 44 31 21 16 14 14 19 29 34 38 43 45 51 56 57 61 70 77 82 87 91 95 96 98 99 101 103 105 107 108 108 107 106 104 101 99 98 93 90 85 84 83 81
81 61 47 34 21 15 13 12 14 20 27 33 39 43 47 50 56 60 62 67 76 83 87 91 94 97 97 99 102 106 110 113 112 110 108 108 104 102 102 102 97 93 89 87 86

GFSSW_250_spd_078.txt.gz
Wind_Speed
49 49 49 47 44 43 41 39 38 37 37 36 37 33 31 27 43 60 61 58 54 55 53 49 44 40 37 34 30 27 21 15 10 13 9 7 5 11 17 18 14 15 25 27 29
55 54 55 54 52 49 47 45 42 41 39 39 39 39 35 34 34 60 62 61 58 57 54 52 48 45 41 39 35 29 24 19 20 17 13 7 11 24 11 15 9 12 23 24 33
57 59 60 58 58 55 52 49 47 45 43 42 43 43 41 39 35 53 63 64 61 59 57 56 52 49 45 42 37 31 29 23 25 18 16 16 12 14 10 20 12 17 12 19 28
53 58 63 65 63 60 58 55 51 49 47 44 45 46 47 44 42 42 60 62 65 61 59 59 55 52 48 44 39 34 31 29 33 19 22 22 18 11 13 15 16 17 10 15 26
55 56 59 62 65 64 63 62 59 54 53 50 47 48 51 49 49 44 52 61 65 66 62 62 58 54 51 47 43 39 38 35 38 30 26 25 19 10 15 8 15 13 11 15 18
56 60 63 63 61 60 64 67 66 63 59 56 53 51 52 54 53 52 49 58 63 67 66 65 60 58 55 52 48 45 43 41 39 39 32 24 18 18 20 18 21 12 15 16 15
45 50 57 62 61 56 59 65 70 70 67 63 59 57 54 57 58 58 55 53 60 64 69 65 62 61 60 57 50 49 47 44 41 42 38 31 25 24 23 21 20 15 18 16 13
36 42 51 58 62 59 59 63 67 74 75 71 67 62 61 59 60 62 61 57 55 61 65 69 68 64 62 61 53 52 51 48 44 42 41 37 32 21 25 28 17 19 15 13 10
37 45 47 49 56 59 57 64 69 73 79 79 75 70 66 62 61 64 65 62 60 58 61 68 69 68 64 63 59 57 53 51 46 42 43 43 39 33 28 29 21 20 18 16 17
44 49 51 51 53 51 53 60 70 73 78 84 82 78 73 67 66 65 68 68 65 62 60 65 69 70 70 67 63 62 58 54 50 46 45 45 43 42 40 37 22 23 23 19 17
44 52 54 58 61 49 47 54 69 80 81 84 88 85 81 77 72 69 69 69 70 68 66 64 67 72 73 72 68 67 61 56 51 50 47 46 42 41 40 43 35 30 34 29 22
47 54 57 66 57 47 44 49 61 77 86 86 90 90 89 85 79 74 71 69 71 72 71 69 69 70 71 72 71 70 65 61 56 52 51 49 47 47 44 42 42 41 36 33 28
50 51 62 60 51 45 41 47 56 67 80 88 88 92 92 90 85 81 76 74 72 71 75 75 75 69 70 71 73 73 72 66 60 57 55 54 52 50 48 48 47 45 42 41 36
52 58 63 54 44 40 37 44 51 57 71 86 91 90 95 93 91 87 83 79 76 74 74 79 78 74 71 70 71 77 77 70 64 61 60 59 57 55 54 53 52 50 48 41 35
54 65 62 48 38 36 35 41 49 53 61 77 92 92 91 95 94 92 89 84 80 78 76 77 80 78 75 75 73 78 76 74 70 66 64 63 63 63 63 58 55 52 48 44 38
60 68 60 40 35 32 35 41 46 48 54 63 78 93 91 93 96 95 93 89 84 82 81 79 77 79 80 76 79 75 74 72 71 70 68 65 68 73 65 59 56 54 51 47 41
64 69 53 35 31 29 32 41 47 47 50 56 66 84 93 92 95 96 95 92 89 86 86 83 80 78 80 80 81 79 78 74 72 69 68 70 72 71 67 64 60 57 55 50 45
67 72 44 36 27 24 30 38 44 49 52 54 58 70 92 95 93 93 95 94 92 89 89 87 85 82 81 79 82 82 81 79 76 73 71 70 68 67 69 66 62 59 58 55 50
72 75 46 36 25 22 27 35 41 48 53 55 57 64 82 97 96 93 94 95 94 93 92 90 88 87 86 83 83 82 82 82 80 77 75 73 68 67 66 66 65 62 61 57 53
76 76 50 31 23 19 24 31 36 46 53 54 55 59 68 89 100 97 95 95 95 95 95 93 92 90 89 89 87 85 84 84 83 80 78 74 72 68 67 64 62 61 60 59 57
75 74 50 34 23 15 21 29 35 40 50 54 54 56 60 72 94 101 98 96 97 97 99 100 98 95 93 91 90 89 87 85 84 82 79 76 74 71 69 67 64 62 61 58 56
79 71 49 36 23 12 17 25 33 38 46 52 55 56 57 60 73 96 103 100 101 100 101 104 105 102 99 97 94 92 90 89 87 84 81 79 77 73 72 70 69 68 66 62 58
74 69 47 36 27 15 13 20 28 35 40 48 52 54 55 57 61 73 93 102 103 102 103 104 103 103 101 100 98 96 94 92 90 88 86 82 78 76 76 75 72 71 71 69 65
76 61 46 38 26 16 14 19 25 31 37 44 52 53 55 56 57 66 78 92 102 104 104 104 104 101 101 102 102 99 97 95 92 90 88 86 83 81 79 79 77 75 74 72 70
80 63 49 40 29 16 11 15 23 29 34 40 46 51 52 53 55 60 71 82 90 98 105 102 103 102 101 101 103 103 102 100 98 95 92 88 87 86 85 84 82 81 79 76 74
82 63 50 40 30 15 8 9 16 25 33 38 43 47 51 50 53 56 64 73 81 90 97 103 104 105 104 103 104 105 105 104 103 101 99 95 91 91 89 88 88 86 84 82 79
83 62 53 37 24 14 9 6 8 16 25 33 39 44 47 50 52 53 55 64 73 80 87 94 101 105 105 106 107 105 105 106 105 105 105 103 101 96 94 92 91 90 88 87 85

GFSSW_250_spd_081.txt.gz
Wind_Speed
48 52 53 52 50 47 44 42 41 39 37 36 36 36 36 33 28 33 59 60 56 55 56 51 47 41 37 35 31 27 21 14 12 14 11 5 7 5 5 15 12 15 23 24 32
49 51 53 55 55 54 52 49 46 43 40 40 38 37 38 38 33 31 55 62 60 58 59 55 51 46 41 38 34 30 27 19 16 11 14 7 8 14 10 12 4 12 15 21 29
48 50 54 56 56 56 56 54 52 50 47 45 42 41 39 41 39 36 47 63 64 61 60 60 56 49 45 41 37 33 31 24 22 21 15 14 14 13 15 6 11 11 11 15 25
44 46 49 51 54 58 59 57 55 55 52 51 48 46 43 42 44 42 43 61 66 65 62 62 59 52 47 44 41 37 35 27 23 25 18 18 16 8 11 12 16 7 7 14 21
43 47 49 51 51 54 58 59 58 59 58 55 54 51 49 47 48 48 44 54 68 68 66 63 61 55 51 48 46 43 39 32 29 27 23 21 17 16 13 11 14 5 8 11 17
42 46 48 50 52 56 56 58 57 60 64 62 59 56 53 51 51 53 51 50 63 71 68 65 63 59 57 54 51 48 43 37 35 33 24 22 24 17 19 12 12 12 11 12 17
42 42 47 49 53 55 59 58 57 58 64 68 66 61 58 56 55 56 57 53 59 70 73 68 66 65 62 58 54 52 48 41 37 38 32 28 26 24 24 17 14 17 15 15 15
45 44 47 49 53 56 59 61 59 55 61 71 72 69 65 62 59 59 61 58 54 65 71 74 71 68 65 62 57 55 51 46 43 41 38 35 31 28 27 24 29 24 12 12 10
44 42 43 43 47 53 58 60 59 59 58 67 76 76 72 68 64 62 63 64 61 57 66 71 77 72 68 66 62 59 55 52 47 43 42 43 39 35 29 22 24 19 12 14 11
41 38 39 45 50 55 60 61 59 60 60 63 75 81 79 74 71 68 66 68 66 63 60 69 73 77 75 70 66 62 59 55 51 47 45 44 46 40 32 28 31 26 15 14 14
38 32 38 45 48 52 57 63 63 53 66 65 71 82 84 82 78 74 70 70 71 68 65 64 72 77 79 76 70 66 62 58 54 50 48 46 45 47 42 36 33 34 29 22 22
30 36 39 45 49 55 58 63 65 56 55 68 70 82 88 88 84 79 75 72 74 73 71 68 68 73 75 78 75 69 66 60 55 54 51 49 48 48 49 47 44 38 36 33 28
29 40 46 47 53 59 65 64 60 52 52 61 69 84 90 92 90 84 80 77 74 76 76 75 72 67 71 76 78 77 72 65 60 57 55 53 51 49 50 50 49 45 34 35 33
37 39 41 48 56 62 58 52 49 45 50 56 67 81 92 95 94 90 85 82 77 76 80 79 73 70 68 70 74 78 78 71 66 63 59 57 55 53 51 51 51 49 45 41 36
35 41 46 55 61 57 45 41 41 42 46 53 65 77 90 95 96 95 91 87 83 80 79 82 80 77 74 74 73 79 77 73 70 68 65 62 59 57 54 49 48 47 44 42 39
41 46 54 63 57 43 35 34 36 38 41 50 60 70 86 95 98 98 96 92 87 83 82 80 82 81 80 77 75 71 74 74 72 71 70 67 65 61 56 53 53 51 48 47 44
48 55 61 61 45 36 28 29 32 35 41 49 57 63 76 93 97 98 99 96 92 88 84 82 80 81 84 82 79 75 72 71 73 72 71 71 69 65 61 59 57 55 52 50 48
57 61 66 50 38 30 24 25 32 37 45 49 56 60 68 83 97 97 98 99 96 94 91 87 85 81 81 83 83 81 78 74 70 71 70 70 69 68 65 63 61 59 58 55 52
59 67 67 45 37 26 22 22 29 36 46 52 56 61 66 75 93 99 97 97 99 98 95 92 87 85 83 83 84 84 82 79 74 73 73 70 69 71 70 67 64 62 61 59 56
67 71 61 45 35 25 20 21 27 36 45 54 59 61 65 71 83 98 100 99 98 101 100 97 94 91 89 87 85 83 85 84 80 77 73 70 69 67 69 68 67 65 63 62 60
70 75 56 45 34 26 16 19 27 36 44 52 58 60 63 66 75 91 102 102 100 100 103 102 99 96 95 90 88 86 83 82 82 81 78 75 72 71 70 68 66 65 64 64 63
70 74 55 45 33 25 15 15 26 34 41 48 54 56 58 61 66 76 94 105 104 102 103 105 104 101 99 95 92 90 87 84 81 81 81 78 77 76 74 73 70 68 66 65 63
72 73 56 44 33 23 16 14 22 32 38 43 51 56 58 59 61 65 76 97 107 106 104 104 103 103 101 99 97 94 92 89 86 82 80 80 80 79 78 78 76 73 71 69 67
75 73 59 45 33 23 13 15 19 28 35 40 46 53 57 59 61 62 67 79 98 105 107 105 104 103 101 99 97 95 94 92 90 88 85 81 82 82 82 81 81 78 76 75 73
75 73 60 45 33 22 10 13 18 24 30 36 41 48 54 57 59 61 64 68 83 98 103 104 103 102 102 102 101 99 97 96 95 93 91 88 86 84 83 83 83 82 80 78 76
76 73 60 46 30 20 12 10 14 21 26 32 37 42 49 55 58 60 61 64 66 81 96 103 103 103 102 103 104 104 103 101 99 98 97 95 93 91 88 86 85 84 84 81 79
73 73 61 47 34 20 15 9 10 14 22 28 34 39 44 50 54 57 59 61 64 68 81 97 105 107 106 104 105 105 104 104 104 103 101 100 98 95 93 91 91 88 86 85 83

GFSSW_250_spd_087.txt.gz
Wind_Speed
43 44 45 46 47 47 48 48 48 46 44 42 39 37 37 39 39 41 42 45 47 51 52 47 47 43 41 36 32 27 24 22 18 19 15 12 7 7 19 10 14 15 18 25 30
42 45 46 48 49 50 50 49 49 49 47 46 43 40 39 38 40 41 43 44 50 51 56 52 50 48 44 41 37 33 29 27 16 23 20 17 12 10 12 8 12 16 19 26 27
35 38 46 48 50 52 53 52 51 51 51 50 48 45 42 40 40 43 44 43 45 49 60 59 54 54 49 46 42 38 33 29 23 25 24 19 15 8 15 15 11 13 18 14 25
43 40 41 40 43 51 56 55 55 54 53 53 52 50 48 44 42 44 46 47 47 48 62 65 59 59 54 50 46 43 41 34 28 27 27 20 12 6 8 14 12 11 4 16 23
50 48 45 45 46 48 50 56 57 57 56 56 55 56 54 50 47 47 46 48 49 49 53 69 64 60 59 53 50 47 46 40 34 31 25 23 17 25 13 17 16 13 22 12 19
50 50 52 53 54 54 55 55 56 59 58 57 57 58 58 56 54 52 50 49 51 49 45 71 69 63 63 59 55 50 48 44 39 34 31 27 23 24 19 16 14 9 19 11 14
38 43 50 54 55 57 58 59 60 58 58 59 59 60 62 63 60 57 55 52 51 52 50 61 72 69 66 64 60 57 53 49 44 38 33 28 26 22 21 20 12 16 15 15 11
32 36 42 46 53 53 54 58 63 61 59 58 61 62 61 66 65 63 60 58 54 53 55 52 74 73 69 68 66 61 57 53 47 42 38 31 27 26 25 20 13 23 26 22 14
36 37 39 45 46 45 47 49 56 60 62 60 58 63 62 66 70 69 66 63 59 56 57 56 67 76 73 73 70 64 61 55 48 44 41 35 32 27 29 21 25 20 9 12 13
39 40 42 45 47 49 47 48 49 55 60 61 60 58 61 65 71 73 71 68 67 62 59 61 61 74 76 72 72 70 65 60 55 50 46 42 39 35 28 28 28 28 15 16 16
37 39 42 42 45 45 47 48 50 51 59 59 65 64 64 63 71 76 76 74 71 68 63 64 62 66 74 78 75 73 68 65 57 56 52 50 44 39 37 35 30 33 21 17 17
38 37 39 40 39 40 41 41 45 50 54 58 62 66 68 67 67 75 80 80 76 74 70 66 66 66 72 77 73 72 71 68 61 61 56 53 49 43 41 35 32 35 31 26 22
35 31 32 32 36 37 39 42 46 51 58 59 62 67 68 69 68 74 80 83 83 79 75 71 72 70 67 73 77 77 73 71 68 64 59 55 51 47 46 44 39 33 30 29 26
33 24 23 20 24 30 39 47 51 59 62 64 69 73 72 75 73 70 72 83 87 84 81 79 73 70 68 69 76 80 78 74 69 66 62 58 53 50 47 48 45 36 31 32 25
37 23 22 27 29 33 41 49 60 69 72 68 74 73 78 80 72 69 68 80 89 90 85 82 75 73 73 70 74 81 79 75 73 68 65 61 55 41 52 48 46 46 45 33 32
45 27 26 31 39 45 51 55 62 67 72 74 78 83 83 82 73 71 71 74 90 94 91 89 82 78 78 76 73 79 76 77 76 71 68 65 62 60 57 51 49 47 48 47 37
52 35 37 45 48 48 43 43 46 52 58 63 66 71 75 74 73 69 69 75 87 95 98 89 85 81 79 78 75 69 76 78 79 76 70 70 70 63 62 55 52 51 49 51 52
53 42 47 53 51 36 32 31 34 36 39 47 52 60 67 69 69 74 72 78 91 96 103 96 94 85 81 80 78 74 74 75 75 77 76 76 71 64 64 61 57 54 53 52 49
57 50 56 61 46 35 25 21 26 29 33 39 46 54 57 60 66 70 73 80 91 99 101 100 98 91 84 83 79 79 74 75 77 78 83 80 73 70 66 65 64 60 56 54 51
60 57 61 62 46 33 22 17 20 24 29 35 43 48 51 56 64 69 78 80 85 98 102 104 99 95 91 86 86 84 83 80 76 75 77 79 78 78 76 71 69 66 62 59 55
64 60 64 61 44 33 22 14 17 21 28 34 40 45 51 56 64 74 79 80 89 97 102 102 100 98 93 88 88 87 87 83 79 80 78 77 79 70 73 76 75 73 70 66 60
71 63 65 63 47 37 21 11 14 18 28 34 41 45 51 55 57 62 70 80 88 95 101 104 105 102 102 95 90 87 89 88 86 83 80 82 83 73 80 77 77 76 75 71 66
69 60 63 62 52 38 22 12 11 16 26 32 40 47 51 56 58 60 64 72 84 94 98 103 106 106 100 98 96 93 94 93 89 90 85 86 80 79 79 77 75 74 74 74 70
62 57 60 62 51 41 26 15 5 13 22 33 40 46 51 53 53 59 64 70 79 86 94 103 109 107 111 110 104 100 94 94 93 91 90 98 85 79 81 78 76 75 73 72 72
56 57 59 61 51 42 32 13 9 7 17 28 37 45 53 55 55 54 57 62 69 77 88 102 110 110 108 104 101 99 98 95 96 97 100 102 90 83 85 82 79 78 77 74 73
52 54 56 59 58 46 33 24 10 6 11 22 32 40 46 56 59 59 58 60 61 67 71 86 106 110 111 108 106 103 101 100 99 97 101 100 92 82 85 87 86 84 81 78 75
48 50 52 57 58 47 43 30 18 6 7 15 25 34 42 49 57 61 61 63 64 64 67 73 89 103 109 111 111 108 106 104 103 102 103 101 95 95 94 94 91 88 86 84 81

GFSSW_250_spd_090.txt.gz
Wind_Speed
43 43 43 45 49 50 51 50 50 48 47 45 42 42 41 41 42 46 44 41 44 45 43 46 42 42 37 37 32 27 25 19 19 18 15 12 11 8 14 14 7 17 29 30 30
45 48 48 48 47 48 51 52 52 50 50 49 46 45 42 41 41 46 46 44 45 47 46 48 47 43 43 40 36 31 27 25 22 25 22 18 13 7 14 10 14 11 20 24 27
44 45 50 51 52 52 50 52 54 54 52 51 50 49 46 44 43 46 47 47 47 48 51 50 52 47 48 44 40 39 32 28 30 25 26 23 17 10 8 7 18 13 16 16 26
46 50 48 53 56 54 54 53 53 56 56 54 54 54 51 48 44 46 47 48 49 49 52 53 55 53 51 49 44 42 37 34 30 31 30 26 21 12 7 15 19 9 10 22 21
48 55 54 52 53 59 56 54 55 55 56 57 57 57 56 53 50 47 48 49 51 51 51 55 57 58 53 54 52 47 44 37 36 35 32 27 20 12 11 12 22 11 11 17 17
46 54 49 53 46 55 59 56 54 55 58 58 59 59 59 57 59 53 52 52 53 53 52 53 58 62 58 58 55 51 46 43 39 37 33 31 22 21 17 17 14 8 7 15 14
57 47 45 44 44 46 56 59 58 55 55 58 60 59 61 61 63 60 58 56 55 54 54 54 52 64 67 63 61 59 45 52 43 37 35 34 27 22 22 18 17 14 18 20 19
65 46 36 35 39 40 46 54 58 61 59 58 60 61 59 64 66 66 63 60 58 58 58 56 55 56 70 67 67 63 56 53 50 40 37 37 30 26 24 21 19 19 16 23 25
66 44 34 35 40 45 46 50 53 56 59 59 61 62 59 64 68 70 68 65 62 60 60 58 58 56 69 74 69 66 60 55 51 48 42 38 31 29 26 21 22 14 22 10 5
63 48 36 33 40 45 50 50 52 51 51 56 59 60 62 63 66 71 72 71 68 64 62 63 61 59 59 75 71 69 65 58 51 44 46 43 37 31 29 27 26 25 18 13 12
67 43 37 30 31 41 45 45 52 51 52 49 52 56 56 63 66 70 75 75 73 69 67 66 64 58 57 66 80 73 70 64 57 43 48 47 43 38 32 29 28 29 31 26 14
68 46 35 27 27 31 37 39 44 50 50 52 51 51 52 60 65 70 74 76 77 75 72 68 64 63 62 62 78 76 71 67 60 60 44 50 43 44 38 32 33 30 26 27 20
73 50 33 25 26 28 31 34 39 41 45 46 51 51 56 60 63 66 71 76 80 80 76 72 71 68 64 62 69 75 72 67 67 64 51 52 32 44 45 40 39 38 29 28 27
77 57 27 20 24 27 28 30 35 37 42 46 51 54 56 62 61 63 66 73 78 82 81 78 76 71 67 64 62 73 81 73 67 69 66 56 62 49 47 43 40 38 30 32 32
75 63 43 20 18 26 33 38 40 42 47 47 54 54 60 63 67 66 68 70 74 82 85 84 80 75 69 65 66 69 80 80 76 70 71 68 56 54 48 47 45 43 43 33 31
75 62 46 34 31 36 42 46 49 55 59 57 62 65 64 66 70 69 69 71 75 80 86 88 86 80 74 71 71 72 78 79 79 74 71 69 67 61 43 42 53 51 50 41 37
76 60 43 39 45 50 46 41 45 55 65 68 72 76 75 72 71 71 72 73 73 73 83 91 89 83 80 77 77 74 70 74 78 75 71 72 69 66 51 42 39 60 57 50 43
77 62 51 49 53 51 40 33 34 42 47 64 73 75 79 81 77 75 77 74 75 74 82 88 92 88 86 82 79 75 72 68 73 75 74 75 75 63 58 36 25 48 57 44 48
75 64 56 55 59 49 34 26 29 36 35 46 53 72 82 83 82 81 79 80 82 83 82 88 92 97 95 90 85 76 74 68 74 78 81 85 71 64 62 72 42 44 47 47 34
73 67 59 56 59 51 37 15 21 25 27 36 45 55 72 83 84 83 86 85 86 84 79 87 89 97 96 92 83 80 79 79 75 81 84 85 77 76 74 76 79 63 53 53 58
73 68 59 57 57 52 42 28 16 21 23 30 38 48 54 63 76 89 94 86 90 80 81 85 83 92 99 94 92 86 83 82 82 79 80 83 83 82 73 84 79 76 70 64 57
78 63 60 57 54 49 38 28 19 17 23 28 33 39 46 55 61 70 81 86 87 79 83 84 89 94 100 99 96 93 91 92 88 79 82 81 86 81 81 89 82 80 77 69 59
72 62 57 53 56 53 43 26 17 14 21 28 35 37 43 50 57 64 70 73 76 81 82 83 85 88 96 102 99 93 92 92 87 90 91 86 86 86 90 91 86 81 77 71 66
70 54 51 50 50 50 40 27 15 9 17 25 33 37 43 49 53 56 56 59 68 75 79 81 86 93 101 108 107 103 99 95 91 91 91 97 90 89 89 89 88 84 81 77 72
54 48 46 47 47 50 36 28 16 7 13 22 32 38 40 47 52 55 56 60 64 69 77 80 87 95 98 103 106 104 103 102 94 94 105 92 93 84 81 80 79 81 83 81 78
49 41 43 47 48 51 45 30 20 8 8 17 29 35 39 42 46 55 56 59 61 64 71 78 85 91 95 101 102 107 108 100 97 99 107 103 96 91 84 76 79 78 79 78 78
44 37 40 44 47 53 50 37 25 14 6 11 20 31 36 42 46 50 55 58 59 63 65 70 80 86 94 101 106 107 106 103 101 103 111 103 98 96 86 88 82 82 82 81 79

GFSSW_250_spd_093.txt.gz
Wind_Speed
32 34 33 37 41 45 52 53 51 49 49 49 48 50 49 48 47 45 45 44 42 43 41 39 39 36 34 32 32 29 24 22 13 21 22 13 11 4 13 13 16 18 22 31 38
33 42 38 34 38 44 47 51 55 54 52 51 52 51 51 53 52 49 48 47 47 46 46 42 42 41 38 35 34 30 27 23 27 25 18 17 12 7 8 9 7 16 20 27 32
41 41 43 42 40 40 44 50 53 57 56 54 53 54 53 53 54 53 50 49 49 48 49 48 44 44 43 37 34 30 25 26 31 32 27 19 15 10 6 14 6 9 11 23 27
45 47 46 49 45 42 44 44 53 55 58 58 56 56 55 55 55 54 53 54 53 52 51 53 49 47 47 42 35 17 36 35 35 31 30 23 19 15 10 10 7 6 13 20 28
43 42 47 49 48 44 41 46 49 58 58 61 59 58 56 57 57 55 53 53 56 57 54 54 54 50 51 50 51 28 27 32 38 34 29 26 24 23 11 9 14 9 19 13 18
47 45 47 50 47 39 38 43 46 56 58 60 63 61 59 58 61 58 57 56 56 59 57 56 58 55 53 53 57 57 39 36 35 35 31 29 29 18 12 13 10 7 4 15 16
44 46 46 50 43 38 36 40 44 52 61 59 62 65 64 59 64 62 61 58 56 60 61 59 59 60 55 59 60 58 52 44 39 36 32 32 28 24 20 13 14 14 4 10 9
49 52 53 48 39 33 37 34 38 46 55 61 59 63 65 64 68 65 65 63 60 60 63 62 61 62 63 60 58 58 56 52 48 40 36 35 31 23 23 18 14 15 10 5 8
52 53 56 46 35 30 36 36 36 40 48 58 60 60 62 68 70 67 68 68 66 63 63 64 63 64 66 65 64 61 63 56 49 42 37 36 36 29 28 23 16 14 7 7 2
47 51 55 54 34 29 32 42 40 41 46 53 60 61 60 63 68 69 71 71 70 67 65 65 64 66 66 67 65 66 66 60 52 43 40 37 39 35 30 24 19 17 15 11 2
54 56 56 55 38 26 23 35 46 46 47 50 56 59 62 62 66 72 73 75 74 71 68 67 66 64 67 66 72 74 68 65 56 48 31 37 45 42 33 29 26 22 22 22 11
54 54 55 53 34 25 20 25 35 43 50 52 53 53 57 63 65 69 74 76 76 75 73 69 66 68 70 69 68 73 71 68 63 45 28 26 42 43 38 33 28 26 28 24 26
53 53 59 52 33 22 19 19 25 35 43 51 56 55 57 61 66 68 73 77 79 79 77 72 73 71 69 71 69 68 73 68 66 58 58 41 39 51 48 43 34 29 30 23 22
59 58 60 60 39 22 21 22 24 30 37 44 51 53 52 58 61 67 71 78 80 79 80 79 76 73 71 71 71 66 72 76 70 69 68 55 28 41 50 39 40 34 31 28 25
67 64 66 60 52 31 23 26 32 34 35 39 44 50 54 59 61 65 72 76 79 80 80 81 81 76 72 69 72 69 69 77 78 75 74 62 34 41 44 44 41 40 38 37 28
74 74 67 58 50 39 34 34 38 45 47 45 43 52 57 62 63 64 70 72 78 82 82 85 85 81 77 74 69 78 72 74 81 81 71 69 66 45 33 27 34 42 41 41 35
78 81 68 65 53 46 40 41 39 44 56 59 57 53 58 62 67 66 68 69 71 77 79 85 86 85 82 76 74 78 75 70 77 82 75 79 72 69 50 42 41 34 31 38 38
85 71 66 66 56 52 47 40 28 31 42 55 67 67 62 64 68 69 71 71 72 73 78 82 85 86 85 79 77 78 78 71 69 79 81 82 80 75 65 60 51 39 38 43 43
80 72 65 64 57 54 51 44 28 22 29 42 55 72 72 74 72 72 74 74 77 80 80 79 85 91 88 87 90 85 78 76 74 79 87 91 77 77 76 71 57 47 38 38 37
78 70 60 59 58 57 50 40 31 21 20 29 44 64 82 80 79 71 74 78 83 83 79 84 85 86 91 96 89 84 78 80 76 74 86 88 82 77 76 74 68 61 52 47 37
78 63 56 50 52 54 52 43 25 22 18 25 42 54 66 82 75 81 81 80 80 78 79 79 83 89 89 90 90 86 84 78 78 79 81 80 83 79 76 72 68 66 69 51 48
75 59 51 45 49 47 48 42 31 19 18 22 33 45 54 64 82 81 84 84 81 74 80 77 77 80 75 84 90 91 90 88 84 83 85 80 83 81 74 77 72 69 62 58 54
61 44 45 41 49 44 51 47 33 18 14 22 28 35 40 53 66 84 87 83 85 81 82 80 85 81 83 84 90 96 94 92 89 94 94 85 78 84 79 77 81 76 73 62 56
56 42 39 35 47 48 53 50 37 20 10 16 21 26 36 43 55 70 83 90 86 85 86 86 83 81 82 81 88 92 95 94 95 98 97 89 80 75 79 92 92 84 80 83 77
40 37 34 32 38 44 51 53 40 22 11 10 16 22 31 42 51 59 69 79 90 89 92 91 88 87 83 82 83 86 93 97 102 104 96 90 85 86 96 92 90 86 87 87 82
30 31 31 31 34 43 49 54 45 25 12 7 15 22 27 35 43 52 61 64 73 81 89 95 91 90 84 81 81 84 86 95 106 111 103 96 91 89 90 89 89 89 88 87 86
24 25 29 30 33 41 48 51 51 28 15 8 13 20 28 30 36 44 51 58 63 70 77 86 91 93 93 85 81 83 92 96 103 112 105 99 95 91 94 90 86 89 93 93 92

GFSSW_250_spd_096.txt.gz
Wind_Speed
25 26 26 26 23 23 33 43 48 49 49 51 52 52 51 51 50 48 46 44 43 42 41 38 38 37 33 30 25 19 17 10 14 18 12 10 6 2 6 12 14 19 30 31 34
30 31 33 34 33 34 32 37 47 51 51 52 52 53 54 54 52 50 51 49 47 45 45 43 41 40 37 35 33 26 20 19 14 17 17 11 6 8 7 6 7 10 21 25 26
35 39 39 36 35 35 34 34 43 52 54 54 55 55 55 57 57 56 53 53 51 48 46 45 46 43 41 39 41 35 23 18 20 22 21 20 13 10 5 3 7 9 20 23 22
36 37 38 39 40 40 44 40 37 49 56 57 57 58 57 58 59 60 57 55 54 53 51 51 51 49 45 42 44 39 25 22 24 26 25 19 13 12 8 4 3 5 13 22 19
39 40 40 41 38 41 43 45 43 47 56 61 60 60 61 60 61 61 62 59 58 56 54 53 55 53 48 46 45 42 34 12 29 28 29 27 24 16 11 4 7 7 12 16 16
42 39 40 40 42 44 45 46 47 49 59 63 64 63 63 64 64 64 64 64 63 59 57 59 59 55 49 49 48 47 40 33 33 31 33 32 28 22 16 12 9 7 7 11 12
50 40 42 41 40 44 46 48 46 50 57 65 64 65 65 65 68 67 66 65 66 63 63 60 58 59 55 53 52 49 43 41 37 32 38 32 25 25 18 18 15 11 4 10 6
51 42 43 37 42 47 45 42 41 47 53 61 63 65 65 68 71 68 68 66 66 67 67 64 60 59 59 56 57 61 45 53 36 36 36 34 33 28 25 21 16 14 10 5 2
47 49 44 35 39 40 39 35 36 42 47 58 61 66 66 69 75 70 70 70 68 68 69 66 63 62 63 63 63 62 62 50 32 30 39 32 32 30 26 26 18 14 13 8 2
50 49 54 56 49 41 31 26 32 38 42 54 60 64 68 68 71 71 72 73 72 71 69 69 67 66 65 67 68 71 70 66 42 40 38 36 36 34 29 28 23 16 15 11 8
53 56 54 58 46 46 30 23 26 33 40 48 57 60 65 66 68 74 75 74 73 71 70 70 71 69 71 73 74 71 70 67 61 49 42 43 40 39 36 30 27 22 17 13 13
54 57 61 65 48 44 37 21 21 33 43 46 50 57 63 67 68 72 75 76 75 75 74 69 71 76 75 75 73 72 70 68 65 60 42 36 50 39 39 37 31 26 23 23 24
62 63 65 61 54 41 34 22 16 28 42 48 48 54 59 65 69 70 72 78 79 79 76 74 79 75 76 76 75 75 69 72 68 68 59 36 34 41 44 42 38 34 28 28 26
73 76 65 65 58 44 32 26 16 22 37 48 54 54 60 65 70 71 72 74 79 80 80 81 78 74 75 76 77 75 72 76 72 71 68 62 49 42 41 47 43 36 34 32 30
74 71 67 66 60 42 31 24 21 21 25 39 50 57 62 66 67 73 74 74 74 83 82 85 81 77 74 76 77 77 80 77 79 74 71 60 42 43 36 41 47 44 37 34 31
68 73 72 71 62 42 32 24 25 30 32 35 42 57 64 67 67 70 73 75 79 80 82 87 86 83 80 79 76 84 79 81 78 79 73 66 48 43 36 37 44 50 43 39 33
72 79 78 65 55 38 33 28 33 33 41 47 50 50 62 68 71 71 72 73 74 76 80 89 86 85 85 81 80 83 80 78 81 82 78 78 75 57 40 41 40 50 48 44 43
73 76 74 69 48 36 33 36 39 34 35 46 59 62 62 70 72 72 72 74 76 81 86 88 90 88 87 85 84 81 80 78 72 80 88 84 82 78 50 47 42 43 51 49 47
80 75 70 53 37 34 34 41 40 36 19 35 52 68 66 65 67 74 74 76 79 86 87 90 90 91 90 89 87 84 80 78 78 78 87 87 82 75 59 55 48 46 50 47 48
83 65 36 35 33 32 35 40 41 38 23 26 46 59 69 65 62 72 78 79 79 77 85 87 88 90 90 92 94 90 82 81 82 79 83 90 86 79 74 60 52 50 48 48 42
79 39 30 33 30 28 36 39 43 33 26 19 35 55 68 75 70 66 79 79 78 76 78 83 86 90 89 87 93 91 86 85 82 83 84 85 91 82 84 72 60 59 52 53 43
55 30 25 29 28 32 33 38 45 30 18 15 31 49 64 80 81 77 73 79 79 78 76 78 83 89 87 87 91 95 92 89 87 86 87 82 85 87 86 85 83 76 67 59 51
33 25 20 22 21 30 32 40 47 26 13 13 24 40 57 70 83 84 74 74 79 78 78 80 81 83 84 85 84 93 95 94 92 91 89 87 80 87 92 92 87 85 76 70 64
24 20 19 20 23 29 31 41 48 28 13 4 18 32 44 61 70 81 83 73 74 77 78 79 79 80 83 86 84 84 94 98 97 96 91 88 84 83 91 92 91 88 85 79 76
22 17 17 27 24 27 32 41 49 37 22 8 8 22 34 41 56 66 85 77 81 81 78 77 80 80 84 84 82 81 89 98 100 98 92 90 87 86 85 90 92 93 85 81 79
24 15 14 23 25 27 34 41 48 47 30 16 3 20 30 38 47 62 77 89 92 83 81 80 78 78 82 81 80 82 84 90 99 104 99 94 86 86 86 85 95 91 88 87 80
23 17 17 17 22 27 35 40 45 47 39 24 11 6 22 33 42 53 62 78 90 87 86 84 84 85 83 83 85 85 87 92 94 101 99 97 91 89 89 88 90 95 98 89 85

GFSSW_250_spd_099.txt.gz
Wind_Speed
27 29 29 28 31 33 31 32 38 44 49 54 56 56 54 53 52 49 46 46 44 44 41 37 37 35 32 28 33 22 20 16 19 24 13 13 8 10 7 13 13 21 22 30 33
29 30 30 33 35 35 38 39 36 41 49 53 58 60 58 56 55 52 52 50 49 46 45 41 41 40 37 32 26 27 15 14 18 17 15 11 8 5 6 6 11 18 23 26 31
35 36 34 36 36 38 36 38 42 40 42 52 57 62 63 62 58 57 54 54 54 51 47 47 45 46 41 36 35 28 23 25 19 17 15 17 16 7 6 3 5 18 20 19 29
36 36 35 35 37 41 41 38 39 43 43 45 56 63 65 66 63 62 58 58 57 56 51 53 49 48 46 40 41 38 29 28 18 17 16 22 18 11 6 2 2 7 14 15 24
38 36 31 34 37 38 41 44 43 41 46 44 50 63 67 68 67 66 63 61 60 60 57 56 53 51 48 45 42 41 35 30 25 20 22 26 20 15 10 3 1 6 7 11 16
38 36 34 37 33 33 35 40 45 45 44 48 50 60 69 70 69 69 67 66 63 62 62 61 57 52 51 49 44 44 39 32 24 22 27 28 26 21 15 11 7 6 8 7 10
48 43 45 46 34 37 40 40 44 48 49 49 53 55 71 71 73 72 71 70 68 66 65 62 57 54 54 51 48 50 45 31 22 19 28 27 29 23 22 18 13 12 6 6 5
50 47 43 45 45 50 48 39 44 47 50 51 55 60 67 72 78 75 75 73 72 71 66 63 59 57 56 53 54 54 51 42 21 18 27 30 30 28 27 18 14 16 9 6 4
57 51 51 51 54 44 50 40 41 47 49 52 56 63 67 79 82 78 77 76 76 73 67 64 63 60 60 57 59 61 57 55 33 25 27 35 34 33 28 24 21 17 16 13 3
59 59 58 56 55 49 52 46 39 40 41 46 52 62 70 79 79 78 79 78 78 75 72 69 66 63 63 63 65 65 61 51 49 24 30 34 34 36 33 28 26 20 16 15 9
63 66 58 57 55 52 55 47 42 33 32 42 49 58 68 73 79 78 81 79 77 76 75 75 71 69 71 71 66 68 65 55 50 21 32 39 38 35 36 30 30 26 19 19 11
72 74 70 63 55 55 53 50 40 31 27 37 44 55 65 73 79 77 79 79 78 78 78 76 75 77 76 73 70 70 67 66 61 43 38 42 45 42 37 33 31 31 26 21 16
81 83 75 71 62 56 51 51 34 25 24 34 45 51 64 71 78 77 79 80 81 81 80 79 82 79 78 76 72 72 73 75 75 53 46 45 44 43 40 39 35 31 29 25 24
86 83 79 69 65 56 50 47 31 21 21 32 46 49 61 71 74 77 76 80 82 81 82 83 83 79 78 78 77 74 78 81 76 78 61 51 47 46 47 43 42 38 34 31 29
89 89 85 68 62 51 42 30 22 21 21 28 44 51 55 66 74 77 79 79 78 83 82 85 84 83 79 80 80 82 82 86 87 81 75 69 61 47 45 46 44 42 39 36 35
93 91 83 72 57 41 26 19 18 20 15 22 38 53 57 59 68 75 78 81 83 81 84 87 86 84 82 84 82 87 81 81 87 87 82 74 68 59 45 40 42 46 45 42 36
99 86 82 57 38 27 20 15 17 18 19 21 31 47 61 63 66 73 77 81 78 78 82 87 85 86 85 82 82 85 82 81 83 82 87 76 74 70 52 47 44 45 48 48 41
98 93 66 41 21 20 16 15 14 17 23 27 36 45 60 68 70 73 76 81 83 80 83 88 87 87 87 86 84 85 83 82 80 79 83 80 75 75 74 67 51 49 52 54 50
104 86 48 23 16 15 14 13 15 21 26 33 41 49 57 68 76 77 79 81 86 87 83 85 88 90 89 91 91 87 83 83 82 80 80 79 76 70 70 58 57 54 54 54 53
105 61 30 19 13 12 12 15 19 26 30 33 35 50 59 67 76 83 83 81 81 82 82 82 83 87 90 92 91 89 86 82 81 81 79 78 81 70 61 62 58 55 50 47 50
85 48 26 12 10 13 17 18 25 31 35 28 29 43 56 67 75 82 86 85 82 79 82 83 86 84 87 93 92 92 91 87 82 81 82 80 83 82 66 56 64 60 55 52 50
78 39 21 11 11 13 19 21 30 38 31 24 24 37 48 64 77 81 84 88 84 81 81 82 85 87 87 89 93 95 94 91 87 85 85 84 81 88 87 82 77 72 67 55 55
65 32 18 10 20 20 23 26 31 38 28 17 19 32 44 58 73 83 81 83 86 86 85 84 84 87 89 91 93 98 96 94 91 88 85 84 81 83 90 90 82 72 67 65 58
55 28 17 11 12 25 22 28 30 39 27 13 16 29 39 54 70 82 82 79 82 86 86 86 87 87 90 90 90 93 95 95 94 92 86 83 82 82 84 89 82 77 72 67 65
48 28 19 15 21 16 19 29 29 39 39 19 10 20 38 48 68 79 84 80 76 77 83 84 86 87 86 86 89 90 92 95 96 95 92 87 85 83 84 86 85 80 79 75 73
39 22 17 16 16 20 21 25 29 35 40 30 11 7 21 39 58 70 83 80 77 72 74 81 82 84 83 83 86 87 90 94 97 97 95 92 86 83 82 83 90 87 86 84 81
32 22 16 17 18 17 19 23 29 36 37 42 21 5 13 26 39 56 71 81 80 77 72 78 82 81 79 81 85 86 91 94 95 97 97 95 93 90 87 88 90 99 100 94 92

GFSSW_250_spd_102.txt.gz
Wind_Speed
25 26 26 25 27 31 31 32 34 36 40 47 51 54 56 57 54 49 44 46 44 43 39 37 36 34 30 23 29 29 17 24 22 19 12 11 11 6 10 12 13 24 22 38 38
30 32 28 28 29 31 33 37 36 40 40 42 51 56 57 58 58 55 52 48 47 46 43 40 40 37 34 29 31 27 14 17 18 32 22 11 7 4 6 10 10 19 20 30 32
35 33 29 29 27 31 32 35 40 43 45 45 46 55 60 60 59 60 57 53 52 50 48 46 43 42 38 36 38 27 24 22 10 19 16 12 12 3 3 6 6 14 13 22 25
34 38 32 31 33 32 28 29 36 36 42 48 50 50 59 63 62 63 61 59 56 56 53 51 48 46 42 41 39 32 21 26 20 20 21 14 13 13 6 3 3 12 6 18 20
38 38 39 34 38 33 30 27 28 32 40 47 51 52 53 64 65 66 66 63 62 60 57 54 52 49 43 42 39 38 28 27 29 24 21 14 14 14 8 1 5 5 5 12 14
44 43 46 43 42 36 32 34 34 35 37 45 51 55 56 56 67 69 70 67 66 64 63 59 54 53 48 44 42 42 35 36 18 24 20 21 17 17 14 9 3 3 3 8 11
46 49 45 45 42 38 39 35 34 36 36 40 51 56 58 54 61 72 73 72 69 68 66 62 58 56 54 48 48 46 45 35 25 23 24 23 20 21 19 15 8 8 6 4 7
50 50 48 56 48 44 43 36 36 32 29 40 45 54 55 58 62 70 76 76 73 71 69 65 62 59 57 53 51 49 52 46 32 22 25 25 27 23 24 21 17 11 8 6 5
56 58 61 60 58 56 47 38 35 34 33 31 47 51 58 62 63 63 75 78 76 74 71 67 65 64 61 56 54 56 51 49 41 29 30 25 26 25 26 25 20 13 13 12 5
63 66 68 65 69 62 53 41 36 34 34 35 37 51 58 63 61 63 70 79 79 77 75 71 68 66 66 62 57 56 54 50 42 33 23 28 25 26 28 26 20 17 15 14 10
68 66 73 73 69 59 53 50 48 34 37 36 35 44 57 67 66 66 71 77 82 80 78 76 71 71 71 66 60 59 57 55 47 35 29 28 28 28 30 29 28 19 20 16 14
68 73 80 76 72 72 67 48 40 36 36 35 32 39 52 64 70 69 71 78 83 83 81 80 78 77 74 70 65 62 61 59 56 42 30 31 39 32 32 34 33 27 25 18 16
70 78 87 75 83 73 56 43 34 34 33 34 31 38 49 60 67 72 76 80 86 87 84 85 84 80 77 73 69 65 66 65 65 50 43 36 41 42 34 33 31 30 29 27 22
80 91 85 88 79 58 42 35 33 30 29 31 30 37 46 53 62 73 78 82 86 89 87 87 86 82 80 77 72 70 70 71 67 65 52 51 45 48 46 39 35 29 31 30 25
87 90 89 95 66 38 29 30 29 27 26 27 28 34 44 52 57 66 76 79 86 89 88 88 87 84 84 82 80 77 70 71 72 69 59 53 53 47 46 46 44 41 35 32 29
88 94 93 76 46 24 19 20 23 24 26 26 26 31 42 50 55 61 71 76 84 89 90 91 90 86 86 87 83 80 76 73 77 71 68 62 59 62 49 46 43 39 35 36 35
92 93 94 57 35 16 11 15 20 24 27 27 27 29 38 48 54 57 64 73 81 85 87 88 87 86 88 87 86 82 77 76 76 78 72 71 65 60 57 48 44 44 42 40 38
92 91 87 45 27 13 10 14 18 24 29 29 27 29 33 46 53 59 66 73 79 81 84 88 85 86 88 87 89 87 82 80 79 83 90 76 70 67 59 53 47 41 41 44 43
92 89 71 38 21 12 10 12 14 19 23 23 26 30 34 41 55 59 68 75 75 78 83 86 88 87 88 91 92 90 84 85 85 84 87 84 81 76 72 66 63 55 47 48 47
89 85 56 33 14 9 9 8 11 14 19 26 31 35 41 44 52 65 68 73 81 79 84 86 86 88 90 92 90 91 89 88 85 85 84 90 91 85 79 77 69 65 55 52 51
98 84 46 23 14 8 7 10 14 19 24 32 41 46 52 56 60 68 74 72 76 84 84 87 87 88 89 91 92 92 90 87 86 85 86 85 89 90 81 76 66 66 67 64 58
95 75 39 20 18 13 7 15 17 19 23 38 38 43 47 54 63 71 77 79 77 81 87 87 89 87 89 91 92 93 94 91 87 84 84 85 85 82 81 81 75 72 71 70 71
99 69 33 24 21 19 16 15 16 21 29 36 31 28 34 49 57 66 74 82 82 82 85 88 90 90 90 90 94 92 93 93 89 86 81 80 82 85 81 81 83 81 73 65 72
99 65 31 18 20 21 18 13 18 21 27 27 23 20 25 38 53 64 72 77 87 83 85 88 90 94 92 89 90 91 92 92 93 88 83 78 75 79 81 77 75 72 71 70 63
100 61 31 20 18 20 21 18 20 23 28 28 19 15 21 30 41 53 70 80 81 89 86 88 89 93 96 93 90 88 90 93 93 92 88 83 80 81 78 75 79 76 74 79 73
90 55 31 25 20 21 20 20 24 25 31 32 26 14 14 23 35 45 62 78 84 85 91 89 90 93 94 93 91 89 88 91 95 94 92 90 84 85 82 81 84 90 81 72 72
90 50 27 22 23 22 23 24 23 26 31 33 33 20 10 15 23 35 48 68 81 85 86 92 92 92 89 90 91 93 92 91 92 96 95 92 90 90 88 86 86 88 96 88 77

GFSSW_250_spd_105.txt.gz
Wind_Speed
21 22 22 20 18 21 25 28 32 33 33 39 46 47 50 52 55 50 47 44 42 42 38 36 36 36 27 26 23 22 17 17 16 12 23 6 6 8 10 14 19 25 31 33 40
21 25 27 27 21 17 17 21 26 34 39 38 41 48 51 53 55 55 53 49 45 45 42 39 40 40 33 31 26 26 19 17 14 15 13 8 6 6 9 11 17 17 22 28 34
27 30 29 29 29 22 23 22 23 26 37 44 42 44 53 55 57 56 57 54 50 49 47 45 44 41 36 32 29 32 25 22 22 21 17 15 13 4 4 7 13 13 18 24 30
32 32 33 32 30 33 34 27 25 23 26 37 46 47 47 56 57 60 60 59 57 52 51 48 47 44 38 32 38 34 30 24 23 22 22 15 11 7 5 4 9 9 14 18 25
34 34 33 34 31 38 33 29 29 32 32 31 39 48 52 52 59 63 63 62 61 57 54 52 50 46 41 38 40 40 24 31 20 20 25 18 12 13 9 4 6 5 12 14 20
36 39 38 37 37 37 33 29 31 33 39 36 36 46 53 54 58 64 66 65 64 63 58 55 53 50 46 44 44 45 33 35 30 20 20 19 17 16 8 4 4 5 7 10 17
40 44 45 45 44 48 45 39 33 34 38 42 43 44 49 57 60 64 69 68 67 67 62 58 57 55 51 48 43 46 43 35 34 30 24 22 19 13 11 8 4 3 7 7 13
46 50 49 51 52 54 59 44 34 38 40 43 47 45 45 53 64 66 69 71 70 69 67 63 62 59 57 53 47 45 46 41 35 26 28 29 26 16 21 14 12 7 5 5 9
51 56 56 55 57 60 63 49 45 44 39 39 50 50 48 51 63 65 67 72 73 72 70 68 65 64 61 56 53 47 47 45 42 27 30 19 27 28 26 18 14 12 10 7 4
56 60 58 60 66 69 67 57 52 48 43 38 45 51 51 49 58 67 68 70 75 75 74 71 70 67 66 61 57 53 53 51 48 31 31 32 36 27 27 23 16 13 14 9 5
60 62 64 70 71 72 65 62 55 53 49 47 44 50 54 52 57 66 71 71 73 78 77 75 74 74 72 67 59 55 54 54 56 45 37 33 34 30 29 24 22 17 18 13 10
64 66 69 77 75 72 68 68 59 52 48 47 46 50 55 52 56 66 70 72 73 78 80 80 81 77 72 70 64 58 57 56 56 54 49 34 34 36 31 28 26 22 18 16 14
68 69 74 79 71 70 69 56 43 38 41 44 46 50 53 50 57 68 72 76 78 78 82 85 85 80 76 73 69 64 60 60 58 57 53 40 35 40 39 36 30 27 22 22 19
68 77 77 85 75 69 53 39 30 27 34 40 44 46 49 46 55 68 72 76 76 77 82 88 87 84 80 76 74 70 66 62 59 54 49 48 38 37 35 35 32 30 25 25 25
72 79 83 90 76 56 41 31 22 22 26 34 40 43 42 42 50 63 71 76 77 77 79 87 88 86 83 80 78 75 71 65 61 60 54 57 49 39 46 43 38 32 29 28 28
78 86 87 95 65 43 31 22 17 17 22 28 36 37 37 38 42 55 70 76 78 78 80 86 91 88 87 86 82 78 74 70 63 68 59 56 54 51 50 45 43 37 33 32 29
80 88 94 92 54 34 19 11 8 12 18 25 31 33 33 33 38 49 62 74 78 80 80 81 89 90 90 89 85 80 77 75 69 66 68 59 57 58 51 55 50 47 38 35 31
84 90 95 82 46 25 13 10 8 11 17 22 29 30 30 31 35 44 56 66 76 79 82 81 86 89 90 90 88 84 81 79 76 80 77 73 62 63 55 49 52 46 40 39 37
84 90 91 72 41 21 10 10 11 13 16 21 28 29 29 30 34 40 49 61 69 79 81 80 83 89 92 94 93 88 84 85 84 81 81 80 75 67 62 56 55 54 54 48 45
85 89 89 63 35 21 12 11 11 12 15 20 24 28 28 30 34 39 46 54 64 74 82 82 82 87 92 95 94 92 89 88 86 83 79 79 77 71 61 65 58 58 57 53 50
85 88 86 61 32 15 14 9 8 12 16 19 24 27 30 35 37 42 46 52 60 72 80 84 82 85 91 94 95 94 90 88 88 87 85 88 86 79 68 68 65 60 59 59 53
84 88 85 60 32 14 13 16 20 21 22 27 30 37 44 46 47 48 52 58 60 66 75 82 84 86 89 93 94 94 93 92 90 89 87 86 94 91 80 71 73 69 67 69 62
84 88 86 62 36 21 14 19 23 25 26 27 31 39 40 42 53 55 59 59 65 68 72 78 85 88 91 92 92 93 95 93 91 90 88 89 89 94 95 93 76 75 73 71 71
86 90 85 61 37 25 20 19 18 20 21 25 32 37 36 32 43 57 60 65 68 72 74 78 83 89 92 93 94 92 93 95 92 91 90 89 90 92 92 96 96 85 81 79 78
85 89 82 61 36 24 20 18 18 21 22 26 29 33 25 22 34 49 62 68 71 75 78 81 85 90 93 95 96 94 94 95 95 93 91 90 87 89 91 92 91 93 93 84 81
85 88 84 68 41 26 21 23 18 19 19 24 28 31 24 16 21 34 49 65 72 78 81 85 86 91 93 95 96 97 95 95 96 96 94 92 89 85 89 90 91 88 85 77 72
85 87 89 70 42 30 26 22 22 25 23 25 28 33 29 16 14 25 36 51 66 76 80 84 88 89 92 94 95 98 97 97 97 96 95 95 93 90 88 89 89 90 87 79 74

GFSSW_250_spd_108.txt.gz
Wind_Speed
10 12 15 15 17 17 16 18 22 28 30 31 38 46 46 49 51 49 48 45 43 42 39 36 38 38 33 28 22 26 21 21 13 12 12 5 6 7 13 18 21 25 34 37 37
12 15 18 17 16 17 16 19 21 25 31 34 36 43 50 50 51 51 53 49 47 45 42 39 41 40 34 29 24 28 21 12 13 15 15 9 9 7 12 17 17 21 26 35 35
16 19 20 20 20 20 21 25 24 25 30 35 39 41 47 53 51 53 56 54 51 49 45 44 42 39 37 30 25 27 27 26 14 16 15 12 6 6 7 12 12 17 22 29 34
16 20 24 24 24 20 22 23 23 27 29 33 36 42 45 51 54 56 57 59 56 53 49 45 44 40 39 34 29 29 28 21 25 18 18 19 17 9 4 8 9 14 20 24 32
21 23 27 28 26 24 25 24 23 25 33 35 39 40 46 50 55 58 58 61 62 58 52 49 47 43 43 39 36 35 28 25 27 24 27 15 13 7 4 7 6 10 15 18 28
26 27 29 32 31 31 31 34 36 31 30 38 42 43 45 50 57 60 61 63 64 64 58 52 50 48 48 42 39 45 35 27 24 27 30 27 13 7 5 4 7 7 12 14 22
31 33 35 40 39 39 41 42 42 41 39 36 45 46 44 49 56 62 65 65 66 65 64 58 55 54 51 44 41 53 41 31 25 26 29 32 24 15 12 8 5 5 8 10 17
35 38 42 43 44 47 51 53 54 52 50 43 44 46 48 49 52 60 64 67 68 68 68 65 60 58 56 49 44 51 45 37 33 31 29 21 18 23 20 17 7 5 5 7 11
38 42 45 46 51 57 59 63 63 63 56 51 48 50 50 54 53 54 63 66 70 70 70 70 65 61 60 55 51 51 47 38 34 33 33 27 23 22 18 18 12 8 6 7 7
42 46 49 50 59 64 67 72 72 68 62 53 50 53 55 57 56 55 61 67 71 75 74 73 71 67 63 62 59 56 50 47 41 40 28 32 19 30 28 26 17 12 9 6 6
47 52 57 60 67 73 77 80 73 69 58 56 56 53 59 60 60 56 58 67 71 75 76 77 75 73 71 66 62 62 57 53 55 33 39 36 35 36 33 31 24 17 13 11 9
51 58 64 67 74 82 83 80 67 48 43 47 53 56 58 62 61 62 60 63 73 77 76 80 79 77 72 69 66 66 63 57 55 47 36 39 42 41 32 28 25 20 15 14 12
54 63 67 73 79 83 82 70 45 31 26 31 41 51 57 62 61 62 58 64 73 79 79 82 84 80 78 73 71 67 65 61 58 58 46 48 47 42 35 33 30 31 22 18 18
58 65 72 77 84 82 76 51 35 24 19 23 34 47 57 65 65 61 60 61 70 81 82 83 85 84 82 79 75 70 68 63 60 60 60 48 47 46 42 43 37 35 29 24 24
61 68 74 83 83 81 61 42 29 17 14 21 31 41 52 62 64 63 64 64 66 79 82 82 85 87 85 83 79 73 70 66 65 66 64 56 52 49 46 43 42 35 37 32 27
63 70 77 83 83 77 51 33 21 10 15 22 26 32 43 55 62 65 65 66 65 77 84 81 85 88 89 87 82 78 73 70 68 66 68 70 66 55 51 50 44 45 43 33 30
64 70 78 80 82 70 43 23 13 8 12 19 22 26 33 46 56 62 64 67 70 76 85 82 83 85 89 89 85 83 77 75 69 66 65 65 61 61 58 48 49 49 44 35 34
63 70 78 86 86 62 35 17 12 7 5 11 17 21 28 38 46 53 59 65 69 77 84 86 82 80 85 91 89 85 82 78 75 72 68 63 60 64 59 59 53 49 41 41 40
64 70 78 80 87 58 31 14 14 9 6 8 10 17 22 29 35 42 49 58 67 77 87 89 86 82 83 89 90 89 84 84 83 83 70 64 67 66 63 58 59 61 53 50 46
65 69 76 81 83 57 30 14 13 12 9 9 11 16 21 25 28 30 37 48 62 75 85 89 88 84 83 87 90 91 90 87 85 85 78 73 75 71 65 63 62 58 59 56 50
63 68 75 80 81 56 31 15 13 13 9 9 12 15 19 27 28 28 32 40 51 69 82 88 91 86 85 85 88 90 90 89 89 87 84 79 75 74 74 69 62 66 64 60 59
61 67 73 80 79 62 32 19 19 18 19 18 19 20 22 26 33 34 31 36 45 56 75 85 90 87 87 89 91 90 91 92 91 89 86 85 89 83 76 77 66 65 61 59 59
60 65 72 78 76 62 33 22 21 27 26 25 27 30 32 34 36 39 41 42 44 53 61 78 87 89 89 87 90 90 92 92 93 93 91 89 88 92 88 85 74 66 68 65 62
60 64 71 76 76 68 35 21 17 20 23 23 25 30 32 37 40 45 48 53 52 54 61 69 81 88 91 96 95 92 94 94 95 95 92 92 92 98 89 91 87 82 76 71 68
59 63 70 78 77 69 38 22 18 20 21 23 29 33 33 34 38 40 44 55 60 60 63 69 74 83 90 93 90 89 92 96 96 97 97 95 96 104 99 95 89 84 87 74 71
60 63 69 76 76 69 45 27 20 17 19 23 25 25 28 29 31 26 34 50 63 66 65 71 75 78 83 90 93 92 94 96 99 100 100 100 96 99 102 105 96 89 84 81 82
59 63 69 74 74 69 47 28 23 21 21 22 24 26 28 29 27 20 26 41 60 69 69 70 76 78 82 85 92 94 94 97 99 99 101 103 103 97 99 101 106 101 94 88 83

GFSSW_250_spd_111.txt.gz
Wind_Speed
9 9 9 13 14 14 13 14 18 20 22 27 34 41 45 45 47 49 49 45 44 41 37 32 34 38 32 31 25 23 22 14 15 9 10 8 3 9 19 24 23 27 33 29 28
10 9 11 14 14 15 17 16 21 22 24 25 29 35 44 48 48 50 53 50 47 45 42 39 35 41 36 32 27 26 21 23 20 12 13 3 6 9 12 19 19 24 33 28 30
13 11 14 14 16 17 18 21 22 27 26 29 31 33 39 47 51 51 55 54 52 48 47 43 38 42 40 35 30 26 25 17 17 17 13 9 8 6 7 13 14 20 28 31 29
16 17 19 18 19 19 21 23 27 30 31 32 34 36 37 43 48 56 57 58 56 53 49 46 42 41 42 38 33 29 30 19 18 14 19 20 10 15 2 8 11 18 24 28 27
21 22 24 24 25 26 26 26 28 28 31 35 38 39 39 39 44 55 58 59 60 58 53 49 46 44 43 38 34 32 35 27 22 23 18 15 22 16 2 4 8 14 19 24 26
26 26 26 27 28 31 31 31 33 36 39 39 39 43 44 42 47 53 61 61 62 61 59 54 51 49 46 41 35 34 28 26 28 24 21 21 20 9 3 4 5 10 15 19 23
29 28 30 32 33 36 37 40 43 45 46 45 48 46 50 47 49 51 59 64 65 63 63 59 56 52 51 45 38 38 33 28 25 23 27 24 23 11 5 5 7 7 12 15 18
30 29 33 35 38 40 44 49 52 56 60 60 59 54 45 54 54 53 56 63 67 67 66 65 60 57 55 49 42 40 43 31 24 28 28 36 35 28 22 14 14 8 7 10 12
32 34 38 40 43 48 53 58 63 67 69 69 66 62 51 55 57 57 57 63 68 70 70 69 66 61 58 55 48 46 46 34 33 25 27 31 32 28 26 23 17 10 5 4 9
35 38 42 46 49 56 62 69 75 77 75 72 65 61 54 54 59 61 59 62 69 71 73 72 71 67 61 60 55 53 54 44 33 36 31 33 28 21 20 18 19 14 9 4 5
40 42 45 49 55 64 73 80 84 78 63 52 50 54 55 55 64 64 61 63 66 72 73 76 74 72 69 65 58 56 54 51 40 30 34 37 33 26 28 25 25 17 10 9 6
45 47 51 54 61 68 78 80 82 61 41 31 33 46 56 58 62 68 65 65 67 70 73 75 77 78 74 67 62 61 58 54 46 42 22 33 37 39 35 33 29 26 18 15 12
49 50 54 57 64 74 79 83 70 45 28 21 23 40 53 60 64 68 67 65 69 71 74 76 82 82 78 73 68 66 64 51 52 50 46 32 32 47 35 38 31 31 25 20 19
52 53 55 59 67 73 76 79 57 36 22 15 16 32 50 59 64 67 68 66 67 70 73 78 83 83 82 82 74 70 66 56 57 57 54 56 41 46 46 38 34 32 32 24 24
53 54 56 61 68 71 74 73 48 30 21 10 13 25 43 57 62 66 68 70 68 69 72 76 81 84 87 85 80 70 69 54 64 63 53 53 62 55 55 52 43 36 35 31 25
54 55 56 62 67 73 73 69 40 23 15 8 10 21 32 48 60 64 67 70 68 69 70 77 80 85 89 88 84 77 79 85 53 75 67 62 48 61 51 51 47 42 41 34 30
56 54 55 61 64 73 74 68 35 16 13 8 11 19 27 38 52 62 68 71 72 73 73 69 75 84 87 89 85 84 81 79 77 71 72 71 55 51 55 57 55 48 42 36 38
54 52 54 60 64 70 75 67 31 11 6 8 10 19 22 28 43 53 64 70 69 70 71 72 78 83 84 88 90 89 85 83 81 75 72 75 65 55 55 62 59 56 49 52 42
51 49 53 58 66 70 70 66 29 11 7 5 8 18 19 24 31 46 60 68 71 70 72 72 76 85 87 88 91 92 87 85 86 84 82 78 73 61 59 53 63 61 57 57 46
46 46 52 58 64 69 67 63 31 12 8 5 7 10 17 23 29 37 54 64 68 70 67 68 72 79 87 88 89 90 91 90 88 86 80 76 80 77 72 66 61 64 63 62 56
42 45 51 56 61 68 67 60 36 13 12 8 8 9 13 20 27 33 42 52 64 69 71 71 73 77 87 88 88 90 91 89 89 87 87 85 84 74 84 78 81 79 66 55 56
41 46 50 55 61 64 66 67 44 19 17 17 16 15 16 16 22 29 35 43 52 64 70 72 74 71 83 89 91 92 93 93 93 87 86 85 87 86 76 85 79 72 69 62 58
41 46 50 54 61 64 69 66 55 23 15 23 22 23 23 23 24 28 32 35 43 53 64 70 74 74 83 91 93 91 92 92 92 94 95 90 90 85 93 78 72 72 71 66 65
42 45 48 53 59 64 69 66 63 30 16 14 18 23 30 32 32 32 32 37 41 43 51 58 72 78 86 93 93 95 93 95 95 97 98 95 95 92 93 84 80 74 71 69 66
43 46 48 53 59 63 68 67 64 34 19 16 18 22 24 29 32 37 41 44 46 48 47 51 61 74 84 92 96 94 92 94 98 95 101 103 102 97 96 86 79 84 81 69 70
43 46 49 54 58 63 66 67 63 37 22 19 21 22 25 29 33 39 41 46 52 56 58 58 56 64 78 88 96 96 92 92 96 100 100 105 110 100 100 97 90 90 80 74 76
43 45 49 55 59 64 66 69 62 45 24 20 22 23 23 26 29 33 37 41 47 54 59 61 62 60 69 86 94 94 94 91 92 98 102 109 112 98 94 87 100 96 91 86 75

GFSSW_250_spd_114.txt.gz
Wind_Speed
13 14 14 14 14 16 18 20 18 18 19 22 27 33 39 42 43 48 48 45 42 41 37 34 31 31 31 29 27 23 19 17 11 12 6 11 11 11 19 24 26 30 27 24 24
17 17 17 17 17 18 19 21 22 23 22 23 26 30 37 42 45 46 52 49 47 43 42 37 34 34 34 33 31 26 25 20 17 15 13 17 3 9 14 18 22 27 25 26 26
18 18 19 21 21 20 21 23 24 25 24 24 25 28 34 39 46 51 50 52 52 48 46 43 37 34 36 35 33 29 28 19 13 15 11 11 4 5 9 11 20 23 28 27 29
18 20 22 24 24 25 25 24 26 28 29 29 27 27 29 34 39 50 53 53 54 53 49 48 43 38 38 36 34 35 28 23 20 18 15 14 9 9 5 5 15 21 27 25 26
24 25 26 27 28 29 29 30 31 29 30 32 33 34 32 32 34 48 53 55 57 57 54 51 48 43 40 39 37 36 32 25 16 18 20 20 13 15 1 3 9 18 23 25 23
29 28 29 30 32 33 34 34 36 36 36 38 38 38 39 37 39 43 52 57 59 59 60 55 52 48 46 43 39 37 33 31 22 18 23 20 24 23 10 7 7 14 17 21 20
30 31 31 33 35 34 36 39 41 43 45 47 47 48 47 42 47 44 48 57 61 62 62 60 56 55 49 44 38 38 33 35 29 25 23 17 21 15 10 2 4 11 19 16 20
32 32 33 34 36 39 41 44 48 50 54 56 58 58 57 57 54 48 51 53 63 64 64 64 62 57 53 49 41 39 34 35 33 30 24 24 18 21 13 10 12 20 16 11 14
35 37 36 37 37 40 44 48 53 57 62 66 70 73 68 70 65 57 54 57 60 66 66 67 66 62 57 53 46 42 37 35 32 25 23 26 27 33 30 22 15 24 13 9 8
37 39 41 42 43 45 49 53 62 68 72 77 80 67 61 66 66 66 61 60 61 66 67 70 70 65 60 55 52 44 41 35 30 28 29 32 29 31 28 24 19 16 12 9 5
42 44 46 46 48 50 52 58 67 77 81 86 62 47 49 57 67 67 66 62 65 66 68 73 71 69 66 62 57 50 48 39 36 38 28 34 30 32 27 17 15 18 13 13 7
45 47 48 50 53 53 55 65 75 82 83 61 41 34 38 49 64 68 68 69 68 68 73 73 73 74 71 67 61 56 54 44 42 41 35 31 35 30 26 23 23 21 18 12 7
49 50 53 54 55 54 59 68 79 81 72 40 31 27 28 38 59 68 70 72 72 71 72 73 78 79 76 68 66 62 60 54 40 48 44 34 30 33 26 30 27 26 25 17 15
56 55 56 55 54 54 60 72 71 78 49 37 23 19 20 32 52 65 69 74 73 72 72 72 80 80 78 75 71 69 64 61 51 47 43 41 42 38 39 35 32 36 33 25 20
57 57 58 53 51 52 60 68 71 69 44 28 19 13 15 25 49 63 66 72 71 72 71 71 79 81 80 81 78 72 69 61 50 54 46 38 49 50 43 37 34 37 34 27 23
59 58 51 47 47 52 60 65 65 61 37 23 18 9 10 22 47 59 65 69 72 70 66 70 78 83 82 83 82 76 73 70 71 61 58 44 37 51 48 53 50 38 35 27 25
56 49 45 43 44 52 59 61 63 60 33 19 16 6 10 14 42 57 63 65 71 72 70 68 69 78 81 87 85 78 75 77 75 60 66 58 48 41 44 49 57 47 42 36 43
49 45 40 40 44 50 55 62 62 62 30 13 12 3 6 15 36 51 58 65 70 74 72 72 71 75 82 86 86 82 82 83 73 80 72 63 54 53 40 54 51 50 52 47 50
47 40 37 38 43 49 55 58 61 59 34 12 6 8 6 12 23 47 57 63 68 72 75 72 77 80 83 88 89 87 85 85 81 74 80 67 44 54 60 61 58 54 50 48 49
43 35 35 37 43 47 52 55 60 60 42 15 8 7 13 15 19 31 51 60 64 71 70 68 70 73 82 87 88 86 90 89 85 83 74 77 61 58 58 60 62 57 54 50 50
38 34 35 38 43 46 50 52 59 63 50 18 11 11 12 19 24 25 34 51 62 66 67 66 68 72 74 85 87 86 89 89 89 87 78 89 89 76 71 61 56 57 58 56 56
35 34 37 39 42 44 49 52 55 60 57 26 15 14 13 15 19 26 28 39 52 61 67 70 73 74 75 78 89 91 90 93 95 94 94 86 100 87 81 78 61 67 63 60 60
34 34 37 38 41 45 49 53 52 57 57 37 19 20 20 17 19 23 30 37 44 56 62 65 68 70 74 79 84 90 94 92 96 101 100 100 93 89 87 86 77 63 63 60 59
31 34 36 38 43 47 50 54 50 54 57 47 21 21 26 25 24 25 28 34 41 47 57 66 72 75 76 77 84 87 94 92 97 103 102 101 97 96 93 90 88 69 68 61 53
31 35 36 40 44 46 51 54 51 54 56 52 22 20 23 27 31 33 32 33 37 44 51 61 71 77 76 75 78 80 88 94 94 98 101 102 102 96 94 95 93 89 83 77 74
33 35 38 43 47 48 50 58 54 52 54 54 31 19 20 22 28 33 38 41 40 40 46 54 63 74 75 74 77 77 82 91 96 93 101 104 107 100 93 96 91 93 87 77 83
35 38 41 44 48 51 53 59 59 52 54 54 37 22 23 25 27 29 33 37 41 47 54 54 56 62 70 81 81 80 86 88 94 96 97 104 112 105 104 95 76 81 88 82 76

GFSSW_250_spd_117.txt.gz
Wind_Speed
14 15 17 17 20 20 22 21 20 19 17 15 18 23 30 35 39 40 43 42 41 38 37 34 32 32 30 23 23 25 19 12 3 10 5 5 13 15 21 24 33 34 32 29 25
17 18 18 19 22 23 23 22 21 20 18 17 15 16 22 29 36 41 44 45 45 43 41 39 36 34 34 27 26 30 23 18 18 11 6 3 11 9 16 19 28 34 30 34 27
15 16 16 20 22 26 26 26 25 24 23 22 21 19 19 24 30 37 43 45 48 47 45 43 40 36 35 30 31 31 26 22 17 14 12 8 8 7 11 13 22 30 34 29 33
19 20 22 24 26 27 28 29 29 29 28 29 28 25 23 21 26 33 38 45 49 52 49 46 44 40 37 34 35 34 28 23 18 18 13 11 9 15 8 9 18 26 31 27 29
22 24 25 26 26 28 29 31 32 33 33 33 32 32 30 27 29 31 35 42 48 52 53 51 47 45 40 36 37 38 33 26 21 17 13 17 14 14 5 2 11 18 29 26 26
24 26 27 27 29 30 31 30 32 34 35 37 38 38 38 35 35 36 32 37 46 52 55 56 52 49 44 40 39 39 33 31 26 19 16 21 25 19 16 11 4 14 22 22 24
25 27 29 32 34 33 34 35 35 36 41 43 45 45 46 44 43 46 41 37 42 50 56 58 57 53 49 42 38 39 38 28 29 23 19 26 23 23 18 10 3 9 19 20 20
30 31 31 32 33 35 37 37 39 43 47 48 50 50 52 54 53 55 52 50 44 47 55 59 61 57 53 50 42 33 41 36 34 28 26 27 26 28 19 12 5 7 18 14 15
31 31 34 35 38 39 41 43 43 47 48 52 54 55 59 60 64 64 63 60 55 51 54 60 63 62 58 54 48 48 46 41 38 32 30 34 27 24 25 16 8 13 13 8 11
32 32 36 41 45 46 48 50 50 51 53 55 58 65 71 70 71 75 76 71 66 60 54 61 64 67 62 57 55 46 47 45 37 30 38 34 29 30 23 24 19 21 17 9 7
36 37 40 50 54 49 52 53 52 55 58 62 70 74 69 56 55 71 85 81 73 63 60 61 66 67 69 65 60 46 49 48 42 31 43 41 28 30 33 32 28 18 13 10 2
40 43 48 55 57 55 56 51 51 55 64 67 74 69 48 42 39 50 70 83 81 71 69 61 65 72 74 67 65 61 51 49 44 46 47 30 33 34 31 30 23 18 12 10 3
45 48 54 59 61 54 47 46 49 56 65 73 72 50 37 30 29 38 59 78 83 79 72 65 69 75 77 72 68 64 56 51 47 47 39 41 37 34 33 29 28 18 12 14 8
48 54 58 63 53 47 41 44 50 60 66 72 58 36 30 23 23 32 50 73 82 80 75 71 71 76 79 77 73 66 61 60 52 48 46 42 35 41 35 30 29 22 19 19 12
55 58 61 54 51 42 38 44 52 60 67 67 43 31 25 20 18 29 45 68 77 79 76 74 72 75 78 79 76 73 69 67 57 51 56 48 42 44 41 33 32 30 26 23 20
55 58 56 52 46 37 38 45 52 61 66 65 40 29 19 15 14 26 44 64 76 73 73 74 74 77 79 83 81 76 75 69 66 51 57 53 49 43 40 36 31 31 29 26 29
56 55 50 48 39 35 39 46 51 58 61 62 36 26 15 13 8 22 46 60 69 71 74 74 74 75 81 83 79 80 76 74 74 61 57 58 56 50 42 43 38 32 33 36 36
54 48 46 43 36 34 39 46 51 56 57 58 33 21 11 11 6 20 45 60 66 73 77 78 73 72 77 80 83 83 82 78 73 68 61 59 50 52 51 45 45 38 41 37 33
48 46 41 36 33 35 39 44 50 50 52 52 35 14 11 9 5 21 41 59 68 73 76 73 77 80 81 85 85 89 86 82 76 71 59 64 62 49 41 47 45 52 52 42 36
46 37 34 30 31 34 38 44 47 48 47 49 40 12 12 8 7 16 37 51 60 66 67 71 67 70 73 80 87 86 85 83 79 76 68 65 68 62 50 47 50 50 52 58 49
34 30 27 26 28 31 36 43 46 47 43 46 46 15 10 11 9 9 30 46 57 59 66 68 72 71 74 76 86 87 87 85 82 81 80 74 70 63 65 54 55 49 51 59 54
27 26 23 23 27 33 38 41 43 48 42 43 46 25 13 13 16 16 19 39 54 60 64 67 70 71 70 73 85 88 89 89 89 86 83 87 81 63 62 61 52 52 55 54 55
24 20 22 23 27 33 37 42 45 46 49 41 43 44 12 18 18 21 23 27 48 57 62 68 72 73 74 78 86 90 91 92 95 97 92 87 89 75 66 64 57 55 54 48 48
18 20 22 26 30 35 38 43 44 52 48 42 41 44 23 13 24 21 27 31 32 48 63 66 71 76 74 73 77 83 88 87 93 97 101 93 94 94 76 59 65 64 57 54 53
25 26 27 31 34 37 40 41 44 54 52 45 43 44 39 14 18 30 29 33 37 40 49 63 70 75 75 74 78 81 82 88 97 97 96 99 100 93 82 72 70 72 64 58 58
30 31 31 34 38 37 40 41 44 54 53 45 42 48 39 19 17 22 36 35 36 41 47 53 65 73 76 77 75 81 85 87 96 95 99 103 103 93 84 84 77 66 65 58 60
34 35 38 39 41 38 39 40 42 53 52 48 46 47 41 20 20 23 26 38 43 43 46 52 58 67 75 75 76 82 83 86 91 93 95 103 102 96 89 85 89 84 77 53 66

GFSSW_250_spd_120.txt.gz
Wind_Speed
14 14 15 15 14 16 17 18 17 15 14 10 10 11 17 22 27 35 37 40 41 38 36 35 31 31 29 26 21 22 18 11 2 8 4 8 10 15 22 25 36 37 36 36 34
12 12 15 16 18 19 20 22 21 21 20 17 13 11 13 17 22 29 36 39 42 43 39 38 35 33 31 29 26 22 21 19 9 6 7 1 8 14 16 22 31 36 35 34 36
13 15 16 18 20 21 22 24 25 23 23 25 22 19 17 18 18 26 30 39 42 45 44 41 39 36 34 30 29 26 27 20 15 11 10 9 5 8 11 17 25 33 34 31 33
16 17 18 20 21 22 22 23 25 25 26 27 27 26 27 25 22 21 28 35 43 45 47 46 42 39 37 33 33 30 32 25 20 17 11 11 7 4 6 10 17 26 30 28 31
16 18 20 22 23 24 24 24 24 26 26 28 30 31 31 31 30 27 25 29 38 45 48 50 48 43 40 37 36 32 34 30 25 19 16 15 12 6 5 8 15 19 26 25 29
20 21 22 24 25 25 26 27 28 29 28 29 30 33 36 35 38 36 30 29 33 41 49 53 52 47 46 44 39 37 38 35 29 21 20 13 18 17 4 6 8 21 23 23 26
23 25 27 26 25 26 25 27 31 33 34 35 36 38 38 40 42 44 40 37 32 36 46 55 54 53 49 47 42 41 41 40 34 27 22 22 22 27 15 7 2 16 19 18 24
26 27 27 26 27 27 31 36 39 40 39 39 40 43 43 45 47 47 46 47 44 41 39 48 56 56 55 53 48 46 45 44 38 33 25 26 23 20 19 8 4 7 14 17 20
30 32 32 32 32 35 38 43 47 47 44 46 46 45 46 46 47 51 55 54 54 52 48 42 51 58 59 58 54 49 48 42 41 37 30 27 30 22 21 14 11 4 11 13 14
34 36 36 38 39 40 46 50 54 52 49 49 47 46 45 46 49 54 63 63 64 61 57 50 47 57 62 64 60 51 50 45 42 35 37 31 34 31 27 19 16 8 5 9 9
39 40 40 39 41 44 50 54 53 47 46 46 46 44 48 58 61 67 72 76 76 71 66 59 52 55 66 69 61 56 49 53 47 42 32 38 34 32 22 18 22 11 7 5 4
41 41 43 44 50 52 53 52 50 46 44 46 46 47 54 64 62 57 58 67 82 84 78 65 62 62 66 70 66 65 53 47 56 44 48 44 39 35 28 25 27 17 15 7 1
44 47 50 52 51 50 52 50 44 42 44 48 48 52 60 62 46 37 41 51 67 88 89 81 80 68 66 72 71 70 68 58 53 53 48 47 43 38 34 33 28 24 17 9 11
47 50 50 50 50 50 47 45 38 40 44 48 53 59 64 48 35 28 30 40 55 78 95 91 81 73 66 72 75 74 71 63 56 56 48 46 47 49 40 33 30 26 21 16 13
51 54 51 54 52 45 43 39 37 41 45 50 54 61 65 36 28 20 24 35 52 73 91 95 88 79 67 74 77 76 73 66 64 60 53 48 50 42 41 36 32 32 27 21 18
54 52 55 53 48 41 39 33 37 43 49 52 55 59 56 34 24 20 23 29 45 68 89 87 87 80 73 76 79 78 73 67 68 65 54 53 54 48 44 39 41 39 29 22 21
52 53 53 50 44 36 32 30 34 43 49 54 58 58 50 31 26 15 18 29 46 68 88 89 86 84 74 75 78 79 79 74 70 67 60 56 57 53 49 47 43 41 31 31 26
55 53 48 42 33 28 24 28 33 41 48 55 56 55 45 27 26 13 12 31 49 67 86 88 86 80 74 72 78 83 84 86 71 65 66 63 54 56 53 51 50 38 35 29 27
49 43 35 26 25 22 21 26 32 41 46 52 55 50 41 21 21 15 7 22 46 67 84 87 86 89 83 79 80 84 88 84 78 71 65 69 65 62 59 56 54 43 41 34 29
41 33 23 20 20 18 23 28 33 38 44 49 48 44 39 19 14 14 4 16 39 59 73 81 80 77 75 75 78 81 86 85 83 82 73 71 71 65 61 58 53 50 47 41 32
28 21 18 16 15 18 24 29 33 37 43 45 44 41 39 20 12 10 8 16 34 54 67 73 75 75 78 78 77 83 85 90 87 86 81 74 72 69 67 62 58 55 53 44 35
19 17 14 13 17 23 27 32 35 33 39 42 50 41 35 32 15 12 9 16 31 53 67 74 73 74 78 77 76 84 90 93 89 89 84 80 74 72 67 67 64 59 58 49 48
18 18 19 22 23 25 28 33 33 35 38 44 47 42 39 34 16 15 15 15 30 48 62 70 73 74 75 76 79 82 88 91 90 89 84 82 74 73 66 62 65 59 50 51 49
22 21 20 22 24 27 29 29 31 34 39 44 46 40 37 35 26 20 20 20 28 43 55 65 70 74 76 78 78 87 89 92 91 91 89 83 78 63 64 66 61 59 58 55 53
25 29 25 28 29 30 32 28 37 32 40 42 44 43 40 42 31 20 28 27 30 39 50 63 67 71 74 77 78 82 85 89 91 88 87 86 82 72 63 63 68 64 61 61 59
31 31 33 34 34 35 35 33 34 31 35 41 47 45 44 43 36 20 27 32 35 39 46 58 65 69 70 76 79 80 85 89 90 87 87 89 85 84 72 57 58 71 63 64 68
37 37 35 35 37 38 35 33 31 30 34 42 44 44 46 45 42 25 26 32 38 41 44 48 61 66 71 74 78 81 85 87 88 89 88 89 89 89 82 64 67 63 54 54 62

GFSSW_250_spd_123.txt.gz
Wind_Speed
9 9 10 11 12 12 13 15 15 15 14 14 10 9 11 17 21 27 33 36 40 37 35 35 35 33 31 29 23 19 18 8 1 6 5 6 11 16 23 33 35 34 34 32 34
8 9 11 12 14 16 17 18 19 19 18 17 16 14 11 10 15 24 30 36 39 42 39 38 38 37 34 32 28 24 20 18 6 5 6 2 6 10 17 27 31 32 33 30 32
10 11 13 14 14 17 17 18 19 20 20 20 21 21 18 16 15 19 24 33 40 44 45 43 40 39 36 34 32 27 22 21 21 9 8 5 2 5 11 19 23 29 33 28 31
11 12 13 15 17 17 18 19 19 20 22 23 25 26 25 24 23 20 20 27 35 43 47 48 44 41 38 35 34 31 25 27 25 20 14 9 4 1 5 16 25 28 32 30 30
14 15 16 17 19 20 20 20 19 20 22 24 25 26 27 29 30 28 24 24 30 38 46 51 48 44 42 38 36 34 31 29 25 19 15 11 4 4 1 10 21 23 29 31 32
17 19 18 21 22 23 22 23 23 21 24 27 29 30 30 31 32 32 32 29 28 34 41 50 51 48 44 44 40 38 35 33 32 23 17 15 11 12 8 5 15 22 27 29 28
20 21 23 23 25 27 27 28 26 27 29 32 33 36 36 36 37 35 36 37 35 34 38 44 51 52 51 49 45 41 39 37 38 28 23 17 16 17 7 5 5 15 24 24 23
23 26 27 28 30 30 31 33 35 36 38 41 41 42 42 42 42 42 40 39 41 41 38 39 45 51 54 54 49 47 44 42 39 33 28 21 23 18 20 16 12 11 19 17 18
28 30 30 32 34 35 36 37 36 40 43 45 47 47 44 43 44 46 44 47 46 45 43 39 42 44 51 58 57 52 47 44 42 40 32 27 28 27 25 20 12 3 12 12 14
32 32 34 36 37 37 39 40 43 44 47 48 47 43 41 40 41 45 46 48 50 51 48 48 47 43 44 60 60 54 51 47 45 43 39 33 29 29 22 17 15 7 6 8 9
35 36 37 37 40 43 45 45 44 45 47 47 44 39 35 33 37 41 45 50 53 55 55 56 53 48 54 61 61 59 57 52 50 45 41 37 33 28 27 25 20 14 6 2 8
37 37 39 44 44 46 46 44 47 47 45 45 40 36 33 37 40 45 51 59 65 68 66 62 62 63 58 60 60 64 62 57 53 47 41 43 40 35 34 32 27 19 11 5 1
39 42 45 49 49 50 47 49 46 43 44 44 41 37 37 39 44 54 62 66 69 74 77 80 77 70 67 58 61 66 66 62 58 52 45 46 46 41 37 33 29 22 15 11 8
44 46 49 50 49 49 49 47 43 41 42 44 43 41 41 45 49 56 53 48 51 58 73 89 84 76 71 65 64 66 70 67 60 59 57 51 51 47 41 36 31 25 21 15 14
47 48 50 50 51 51 47 42 36 36 38 42 45 45 47 51 54 45 34 31 36 44 61 82 95 90 78 74 67 69 72 68 65 63 60 58 54 48 46 44 35 31 26 23 19
50 50 51 51 51 46 37 32 29 31 34 40 47 49 52 55 46 36 28 25 30 40 54 71 90 94 87 75 73 72 74 72 69 66 65 62 62 56 51 45 40 35 29 27 22
48 49 50 48 43 33 24 22 24 27 34 41 49 54 56 51 46 31 28 24 30 37 49 64 83 94 92 82 73 69 74 79 67 70 65 63 60 57 51 48 43 37 33 31 25
48 48 44 39 32 22 19 21 22 27 34 40 48 49 52 52 46 29 27 23 23 32 43 58 74 93 92 86 79 73 75 82 81 68 63 61 64 60 56 51 49 45 40 35 29
43 39 35 29 22 20 18 20 23 28 34 36 41 45 51 53 47 30 26 18 15 21 33 48 66 92 95 91 88 82 77 81 84 80 70 62 59 63 56 53 50 50 43 43 32
31 31 25 21 21 18 19 21 24 30 33 33 39 46 50 52 46 30 23 17 7 16 28 44 64 90 95 91 85 81 77 81 85 82 76 67 62 63 59 55 53 48 47 47 37
22 20 18 16 17 18 22 25 26 31 30 33 37 41 48 49 45 35 20 18 9 13 27 44 65 88 93 90 86 84 79 82 85 82 76 78 68 64 64 61 57 54 53 49 40
14 12 13 15 18 21 24 27 28 27 30 31 33 36 45 45 46 38 18 16 13 15 26 44 65 82 87 92 91 85 78 78 82 80 77 78 73 68 67 64 61 54 52 50 45
13 15 16 16 20 21 25 27 30 28 33 29 34 34 41 43 44 37 24 14 17 18 24 42 65 80 84 86 87 80 76 76 80 81 78 76 78 75 68 63 65 64 57 55 56
21 20 22 23 24 26 28 32 33 34 31 29 31 31 37 41 41 40 35 21 18 19 26 37 60 76 80 80 82 79 77 75 82 87 89 82 80 76 73 67 65 63 59 56 56
28 31 30 32 31 32 31 34 38 36 31 29 31 29 35 40 40 40 37 24 22 20 25 36 56 72 76 79 80 79 76 74 80 86 92 89 80 83 78 75 70 66 64 61 60
33 33 35 35 36 34 35 36 36 36 34 32 31 30 32 37 39 41 40 27 25 27 29 34 50 67 75 77 76 78 79 78 78 84 91 93 86 80 82 79 75 72 68 61 62
38 40 40 40 39 37 36 39 41 38 36 38 31 33 32 36 36 39 42 34 25 34 32 33 42 60 70 74 74 76 78 79 81 83 88 92 89 89 85 75 68 78 72 66 63